<?xml version="1.0" encoding="UTF-8" standalone="no" ?>
<gpx xmlns="http://www.topografix.com/GPX/1/1" xmlns:xsi="http://www.w3.org/2001/XMLSchema-instance" xsi:schemaLocation="http://www.topografix.com/GPX/1/1 http://www.topografix.com/GPX/1/1/gpx.xsd" version="1.1" creator="VisuGPX - https://www.visugpx.com">
  <metadata>
    <name>83-AVF - Moissac Bellevue</name>
    <desc><![CDATA[Moissac Bellevue Boucle]]></desc>
  </metadata>
  <trk>
    <name><![CDATA[2011-10-14-moissac]]></name>
    <trkseg>
      <trkpt lat="43.67821" lon="6.16004">
        <ele>609.954529</ele>
        <time>2011-10-14T12:31:41Z</time>
      </trkpt>
      <trkpt lat="43.67822" lon="6.16004">
        <ele>609.430908</ele>
        <time>2011-10-14T12:31:42Z</time>
      </trkpt>
      <trkpt lat="43.67825" lon="6.16004">
        <ele>608.099976</ele>
        <time>2011-10-14T12:31:51Z</time>
      </trkpt>
      <trkpt lat="43.67825" lon="6.16002">
        <ele>607.900024</ele>
        <time>2011-10-14T12:31:56Z</time>
      </trkpt>
      <trkpt lat="43.67827" lon="6.16">
        <ele>607.900024</ele>
        <time>2011-10-14T12:32:01Z</time>
      </trkpt>
      <trkpt lat="43.67828" lon="6.15998">
        <ele>607.900024</ele>
        <time>2011-10-14T12:32:06Z</time>
      </trkpt>
      <trkpt lat="43.6783" lon="6.15995">
        <ele>607.799988</ele>
        <time>2011-10-14T12:32:11Z</time>
      </trkpt>
      <trkpt lat="43.67835" lon="6.15993">
        <ele>607.700012</ele>
        <time>2011-10-14T12:32:16Z</time>
      </trkpt>
      <trkpt lat="43.6784" lon="6.1599">
        <ele>607.5</ele>
        <time>2011-10-14T12:32:21Z</time>
      </trkpt>
      <trkpt lat="43.67844" lon="6.15988">
        <ele>607.5</ele>
        <time>2011-10-14T12:32:26Z</time>
      </trkpt>
      <trkpt lat="43.67849" lon="6.15984">
        <ele>607.700012</ele>
        <time>2011-10-14T12:32:31Z</time>
      </trkpt>
      <trkpt lat="43.67853" lon="6.15981">
        <ele>608</ele>
        <time>2011-10-14T12:32:36Z</time>
      </trkpt>
      <trkpt lat="43.67858" lon="6.15978">
        <ele>608</ele>
        <time>2011-10-14T12:32:41Z</time>
      </trkpt>
      <trkpt lat="43.67863" lon="6.15978">
        <ele>608</ele>
        <time>2011-10-14T12:32:46Z</time>
      </trkpt>
      <trkpt lat="43.67864" lon="6.15978">
        <ele>607.900024</ele>
        <time>2011-10-14T12:32:47Z</time>
      </trkpt>
      <trkpt lat="43.67872" lon="6.15972">
        <ele>607.900024</ele>
        <time>2011-10-14T12:32:56Z</time>
      </trkpt>
      <trkpt lat="43.67876" lon="6.1597">
        <ele>607.700012</ele>
        <time>2011-10-14T12:33:01Z</time>
      </trkpt>
      <trkpt lat="43.6788" lon="6.1597">
        <ele>607.599976</ele>
        <time>2011-10-14T12:33:06Z</time>
      </trkpt>
      <trkpt lat="43.67883" lon="6.1597">
        <ele>607.700012</ele>
        <time>2011-10-14T12:33:11Z</time>
      </trkpt>
      <trkpt lat="43.67887" lon="6.1597">
        <ele>607.5</ele>
        <time>2011-10-14T12:33:16Z</time>
      </trkpt>
      <trkpt lat="43.67891" lon="6.15975">
        <ele>607.5</ele>
        <time>2011-10-14T12:33:21Z</time>
      </trkpt>
      <trkpt lat="43.67898" lon="6.15982">
        <ele>607.599976</ele>
        <time>2011-10-14T12:33:26Z</time>
      </trkpt>
      <trkpt lat="43.67904" lon="6.15988">
        <ele>607.799988</ele>
        <time>2011-10-14T12:33:31Z</time>
      </trkpt>
      <trkpt lat="43.67908" lon="6.15994">
        <ele>608.099976</ele>
        <time>2011-10-14T12:33:36Z</time>
      </trkpt>
      <trkpt lat="43.67912" lon="6.16002">
        <ele>608.5</ele>
        <time>2011-10-14T12:33:41Z</time>
      </trkpt>
      <trkpt lat="43.67917" lon="6.16011">
        <ele>608.700012</ele>
        <time>2011-10-14T12:33:46Z</time>
      </trkpt>
      <trkpt lat="43.67919" lon="6.16021">
        <ele>608.799988</ele>
        <time>2011-10-14T12:33:51Z</time>
      </trkpt>
      <trkpt lat="43.6792" lon="6.16023">
        <ele>608.700012</ele>
        <time>2011-10-14T12:33:52Z</time>
      </trkpt>
      <trkpt lat="43.67926" lon="6.16035">
        <ele>609.400024</ele>
        <time>2011-10-14T12:34:01Z</time>
      </trkpt>
      <trkpt lat="43.67929" lon="6.1604">
        <ele>609.599976</ele>
        <time>2011-10-14T12:34:06Z</time>
      </trkpt>
      <trkpt lat="43.67934" lon="6.16045">
        <ele>609.700012</ele>
        <time>2011-10-14T12:34:11Z</time>
      </trkpt>
      <trkpt lat="43.67938" lon="6.1605">
        <ele>609.799988</ele>
        <time>2011-10-14T12:34:16Z</time>
      </trkpt>
      <trkpt lat="43.67942" lon="6.16056">
        <ele>610.200012</ele>
        <time>2011-10-14T12:34:21Z</time>
      </trkpt>
      <trkpt lat="43.67947" lon="6.16062">
        <ele>610.799988</ele>
        <time>2011-10-14T12:34:26Z</time>
      </trkpt>
      <trkpt lat="43.6795" lon="6.16067">
        <ele>610.799988</ele>
        <time>2011-10-14T12:34:31Z</time>
      </trkpt>
      <trkpt lat="43.67952" lon="6.16069">
        <ele>611.299988</ele>
        <time>2011-10-14T12:34:36Z</time>
      </trkpt>
      <trkpt lat="43.67955" lon="6.16071">
        <ele>611.400024</ele>
        <time>2011-10-14T12:34:41Z</time>
      </trkpt>
      <trkpt lat="43.6796" lon="6.16073">
        <ele>611.900024</ele>
        <time>2011-10-14T12:34:46Z</time>
      </trkpt>
      <trkpt lat="43.67965" lon="6.16074">
        <ele>612.200012</ele>
        <time>2011-10-14T12:34:51Z</time>
      </trkpt>
      <trkpt lat="43.6797" lon="6.16076">
        <ele>612.5</ele>
        <time>2011-10-14T12:34:56Z</time>
      </trkpt>
      <trkpt lat="43.67971" lon="6.16076">
        <ele>612.599976</ele>
        <time>2011-10-14T12:34:57Z</time>
      </trkpt>
      <trkpt lat="43.67981" lon="6.1608">
        <ele>612.900024</ele>
        <time>2011-10-14T12:35:06Z</time>
      </trkpt>
      <trkpt lat="43.67985" lon="6.16084">
        <ele>613.200012</ele>
        <time>2011-10-14T12:35:11Z</time>
      </trkpt>
      <trkpt lat="43.67989" lon="6.16088">
        <ele>613.200012</ele>
        <time>2011-10-14T12:35:16Z</time>
      </trkpt>
      <trkpt lat="43.67992" lon="6.16093">
        <ele>613.599976</ele>
        <time>2011-10-14T12:35:21Z</time>
      </trkpt>
      <trkpt lat="43.67997" lon="6.16097">
        <ele>613.900024</ele>
        <time>2011-10-14T12:35:26Z</time>
      </trkpt>
      <trkpt lat="43.68001" lon="6.16099">
        <ele>614.200012</ele>
        <time>2011-10-14T12:35:31Z</time>
      </trkpt>
      <trkpt lat="43.68006" lon="6.161">
        <ele>614.299988</ele>
        <time>2011-10-14T12:35:36Z</time>
      </trkpt>
      <trkpt lat="43.68012" lon="6.16102">
        <ele>614.700012</ele>
        <time>2011-10-14T12:35:41Z</time>
      </trkpt>
      <trkpt lat="43.68018" lon="6.16103">
        <ele>614.599976</ele>
        <time>2011-10-14T12:35:46Z</time>
      </trkpt>
      <trkpt lat="43.68023" lon="6.16105">
        <ele>614.400024</ele>
        <time>2011-10-14T12:35:51Z</time>
      </trkpt>
      <trkpt lat="43.68029" lon="6.16108">
        <ele>614.900024</ele>
        <time>2011-10-14T12:35:56Z</time>
      </trkpt>
      <trkpt lat="43.68034" lon="6.16111">
        <ele>614.700012</ele>
        <time>2011-10-14T12:36:01Z</time>
      </trkpt>
      <trkpt lat="43.68035" lon="6.16112">
        <ele>614.799988</ele>
        <time>2011-10-14T12:36:02Z</time>
      </trkpt>
      <trkpt lat="43.68044" lon="6.16115">
        <ele>614.900024</ele>
        <time>2011-10-14T12:36:11Z</time>
      </trkpt>
      <trkpt lat="43.68049" lon="6.16117">
        <ele>615.299988</ele>
        <time>2011-10-14T12:36:16Z</time>
      </trkpt>
      <trkpt lat="43.68054" lon="6.16119">
        <ele>615.200012</ele>
        <time>2011-10-14T12:36:21Z</time>
      </trkpt>
      <trkpt lat="43.6806" lon="6.16121">
        <ele>615.799988</ele>
        <time>2011-10-14T12:36:26Z</time>
      </trkpt>
      <trkpt lat="43.68066" lon="6.16124">
        <ele>616</ele>
        <time>2011-10-14T12:36:31Z</time>
      </trkpt>
      <trkpt lat="43.6807" lon="6.16126">
        <ele>616.299988</ele>
        <time>2011-10-14T12:36:36Z</time>
      </trkpt>
      <trkpt lat="43.68075" lon="6.16129">
        <ele>616.5</ele>
        <time>2011-10-14T12:36:41Z</time>
      </trkpt>
      <trkpt lat="43.68079" lon="6.16131">
        <ele>617.099976</ele>
        <time>2011-10-14T12:36:46Z</time>
      </trkpt>
      <trkpt lat="43.68083" lon="6.16134">
        <ele>617.200012</ele>
        <time>2011-10-14T12:36:51Z</time>
      </trkpt>
      <trkpt lat="43.68086" lon="6.16136">
        <ele>617.599976</ele>
        <time>2011-10-14T12:36:56Z</time>
      </trkpt>
      <trkpt lat="43.6809" lon="6.16139">
        <ele>617.900024</ele>
        <time>2011-10-14T12:37:01Z</time>
      </trkpt>
      <trkpt lat="43.68093" lon="6.16143">
        <ele>618</ele>
        <time>2011-10-14T12:37:06Z</time>
      </trkpt>
      <trkpt lat="43.68094" lon="6.16144">
        <ele>618.099976</ele>
        <time>2011-10-14T12:37:07Z</time>
      </trkpt>
      <trkpt lat="43.68101" lon="6.1615">
        <ele>618.700012</ele>
        <time>2011-10-14T12:37:16Z</time>
      </trkpt>
      <trkpt lat="43.68105" lon="6.16152">
        <ele>619.200012</ele>
        <time>2011-10-14T12:37:21Z</time>
      </trkpt>
      <trkpt lat="43.68111" lon="6.16154">
        <ele>619.299988</ele>
        <time>2011-10-14T12:37:26Z</time>
      </trkpt>
      <trkpt lat="43.68116" lon="6.16157">
        <ele>619.400024</ele>
        <time>2011-10-14T12:37:31Z</time>
      </trkpt>
      <trkpt lat="43.68121" lon="6.1616">
        <ele>619.700012</ele>
        <time>2011-10-14T12:37:36Z</time>
      </trkpt>
      <trkpt lat="43.68125" lon="6.16164">
        <ele>619.900024</ele>
        <time>2011-10-14T12:37:41Z</time>
      </trkpt>
      <trkpt lat="43.6813" lon="6.16167">
        <ele>620.299988</ele>
        <time>2011-10-14T12:37:46Z</time>
      </trkpt>
      <trkpt lat="43.68135" lon="6.1617">
        <ele>620.400024</ele>
        <time>2011-10-14T12:37:51Z</time>
      </trkpt>
      <trkpt lat="43.6814" lon="6.16173">
        <ele>620.700012</ele>
        <time>2011-10-14T12:37:56Z</time>
      </trkpt>
      <trkpt lat="43.68145" lon="6.16175">
        <ele>621.200012</ele>
        <time>2011-10-14T12:38:01Z</time>
      </trkpt>
      <trkpt lat="43.68149" lon="6.16178">
        <ele>621.900024</ele>
        <time>2011-10-14T12:38:06Z</time>
      </trkpt>
      <trkpt lat="43.68155" lon="6.16181">
        <ele>622.400024</ele>
        <time>2011-10-14T12:38:11Z</time>
      </trkpt>
      <trkpt lat="43.68156" lon="6.16181">
        <ele>622.5</ele>
        <time>2011-10-14T12:38:12Z</time>
      </trkpt>
      <trkpt lat="43.68165" lon="6.16186">
        <ele>623.099976</ele>
        <time>2011-10-14T12:38:21Z</time>
      </trkpt>
      <trkpt lat="43.68169" lon="6.16188">
        <ele>622.900024</ele>
        <time>2011-10-14T12:38:26Z</time>
      </trkpt>
      <trkpt lat="43.68174" lon="6.16191">
        <ele>622.099976</ele>
        <time>2011-10-14T12:38:31Z</time>
      </trkpt>
      <trkpt lat="43.6818" lon="6.16194">
        <ele>622</ele>
        <time>2011-10-14T12:38:36Z</time>
      </trkpt>
      <trkpt lat="43.68186" lon="6.16198">
        <ele>622</ele>
        <time>2011-10-14T12:38:41Z</time>
      </trkpt>
      <trkpt lat="43.6819" lon="6.16202">
        <ele>622.5</ele>
        <time>2011-10-14T12:38:46Z</time>
      </trkpt>
      <trkpt lat="43.68193" lon="6.16205">
        <ele>622.700012</ele>
        <time>2011-10-14T12:38:51Z</time>
      </trkpt>
      <trkpt lat="43.68196" lon="6.16209">
        <ele>623</ele>
        <time>2011-10-14T12:38:56Z</time>
      </trkpt>
      <trkpt lat="43.68199" lon="6.16213">
        <ele>623</ele>
        <time>2011-10-14T12:39:01Z</time>
      </trkpt>
      <trkpt lat="43.68204" lon="6.16217">
        <ele>623.299988</ele>
        <time>2011-10-14T12:39:06Z</time>
      </trkpt>
      <trkpt lat="43.68209" lon="6.16221">
        <ele>623.900024</ele>
        <time>2011-10-14T12:39:11Z</time>
      </trkpt>
      <trkpt lat="43.68214" lon="6.16226">
        <ele>624.099976</ele>
        <time>2011-10-14T12:39:16Z</time>
      </trkpt>
      <trkpt lat="43.68215" lon="6.16227">
        <ele>624.099976</ele>
        <time>2011-10-14T12:39:17Z</time>
      </trkpt>
      <trkpt lat="43.68222" lon="6.16234">
        <ele>624.799988</ele>
        <time>2011-10-14T12:39:26Z</time>
      </trkpt>
      <trkpt lat="43.68227" lon="6.16237">
        <ele>624.900024</ele>
        <time>2011-10-14T12:39:31Z</time>
      </trkpt>
      <trkpt lat="43.68232" lon="6.16241">
        <ele>625</ele>
        <time>2011-10-14T12:39:36Z</time>
      </trkpt>
      <trkpt lat="43.68236" lon="6.16243">
        <ele>624.900024</ele>
        <time>2011-10-14T12:39:41Z</time>
      </trkpt>
      <trkpt lat="43.68239" lon="6.16246">
        <ele>625.400024</ele>
        <time>2011-10-14T12:39:46Z</time>
      </trkpt>
      <trkpt lat="43.68243" lon="6.16249">
        <ele>625.400024</ele>
        <time>2011-10-14T12:39:51Z</time>
      </trkpt>
      <trkpt lat="43.68247" lon="6.16253">
        <ele>625.900024</ele>
        <time>2011-10-14T12:39:56Z</time>
      </trkpt>
      <trkpt lat="43.68252" lon="6.16258">
        <ele>626.099976</ele>
        <time>2011-10-14T12:40:01Z</time>
      </trkpt>
      <trkpt lat="43.68256" lon="6.16261">
        <ele>626.299988</ele>
        <time>2011-10-14T12:40:06Z</time>
      </trkpt>
      <trkpt lat="43.6826" lon="6.16264">
        <ele>626.599976</ele>
        <time>2011-10-14T12:40:11Z</time>
      </trkpt>
      <trkpt lat="43.68264" lon="6.16267">
        <ele>627</ele>
        <time>2011-10-14T12:40:16Z</time>
      </trkpt>
      <trkpt lat="43.68268" lon="6.1627">
        <ele>627.400024</ele>
        <time>2011-10-14T12:40:21Z</time>
      </trkpt>
      <trkpt lat="43.6827" lon="6.1627">
        <ele>627.400024</ele>
        <time>2011-10-14T12:40:22Z</time>
      </trkpt>
      <trkpt lat="43.68279" lon="6.16276">
        <ele>627.5</ele>
        <time>2011-10-14T12:40:31Z</time>
      </trkpt>
      <trkpt lat="43.68284" lon="6.1628">
        <ele>627.799988</ele>
        <time>2011-10-14T12:40:36Z</time>
      </trkpt>
      <trkpt lat="43.68289" lon="6.16283">
        <ele>628</ele>
        <time>2011-10-14T12:40:41Z</time>
      </trkpt>
      <trkpt lat="43.68294" lon="6.16286">
        <ele>628.400024</ele>
        <time>2011-10-14T12:40:46Z</time>
      </trkpt>
      <trkpt lat="43.68299" lon="6.16289">
        <ele>628.799988</ele>
        <time>2011-10-14T12:40:51Z</time>
      </trkpt>
      <trkpt lat="43.68303" lon="6.16292">
        <ele>629.200012</ele>
        <time>2011-10-14T12:40:56Z</time>
      </trkpt>
      <trkpt lat="43.68308" lon="6.16296">
        <ele>629.599976</ele>
        <time>2011-10-14T12:41:01Z</time>
      </trkpt>
      <trkpt lat="43.68311" lon="6.16301">
        <ele>629.599976</ele>
        <time>2011-10-14T12:41:06Z</time>
      </trkpt>
      <trkpt lat="43.68315" lon="6.16306">
        <ele>629.799988</ele>
        <time>2011-10-14T12:41:11Z</time>
      </trkpt>
      <trkpt lat="43.68318" lon="6.1631">
        <ele>630.099976</ele>
        <time>2011-10-14T12:41:16Z</time>
      </trkpt>
      <trkpt lat="43.68322" lon="6.16315">
        <ele>630.200012</ele>
        <time>2011-10-14T12:41:21Z</time>
      </trkpt>
      <trkpt lat="43.68326" lon="6.16318">
        <ele>630.299988</ele>
        <time>2011-10-14T12:41:26Z</time>
      </trkpt>
      <trkpt lat="43.68326" lon="6.16319">
        <ele>630.299988</ele>
        <time>2011-10-14T12:41:27Z</time>
      </trkpt>
      <trkpt lat="43.68334" lon="6.16327">
        <ele>630.799988</ele>
        <time>2011-10-14T12:41:36Z</time>
      </trkpt>
      <trkpt lat="43.68337" lon="6.16331">
        <ele>630.900024</ele>
        <time>2011-10-14T12:41:41Z</time>
      </trkpt>
      <trkpt lat="43.68342" lon="6.16337">
        <ele>631.099976</ele>
        <time>2011-10-14T12:41:46Z</time>
      </trkpt>
      <trkpt lat="43.68344" lon="6.16342">
        <ele>631.299988</ele>
        <time>2011-10-14T12:41:51Z</time>
      </trkpt>
      <trkpt lat="43.68348" lon="6.16347">
        <ele>631.799988</ele>
        <time>2011-10-14T12:41:56Z</time>
      </trkpt>
      <trkpt lat="43.68352" lon="6.16351">
        <ele>632.099976</ele>
        <time>2011-10-14T12:42:01Z</time>
      </trkpt>
      <trkpt lat="43.68355" lon="6.16355">
        <ele>632.299988</ele>
        <time>2011-10-14T12:42:06Z</time>
      </trkpt>
      <trkpt lat="43.6836" lon="6.16359">
        <ele>632.299988</ele>
        <time>2011-10-14T12:42:11Z</time>
      </trkpt>
      <trkpt lat="43.68365" lon="6.16365">
        <ele>632.900024</ele>
        <time>2011-10-14T12:42:16Z</time>
      </trkpt>
      <trkpt lat="43.68369" lon="6.16369">
        <ele>632.900024</ele>
        <time>2011-10-14T12:42:21Z</time>
      </trkpt>
      <trkpt lat="43.68372" lon="6.16374">
        <ele>633.299988</ele>
        <time>2011-10-14T12:42:26Z</time>
      </trkpt>
      <trkpt lat="43.68376" lon="6.16378">
        <ele>633.5</ele>
        <time>2011-10-14T12:42:31Z</time>
      </trkpt>
      <trkpt lat="43.68377" lon="6.16379">
        <ele>633.599976</ele>
        <time>2011-10-14T12:42:32Z</time>
      </trkpt>
      <trkpt lat="43.68385" lon="6.16387">
        <ele>634</ele>
        <time>2011-10-14T12:42:41Z</time>
      </trkpt>
      <trkpt lat="43.68388" lon="6.16392">
        <ele>634.099976</ele>
        <time>2011-10-14T12:42:46Z</time>
      </trkpt>
      <trkpt lat="43.68392" lon="6.16396">
        <ele>634.400024</ele>
        <time>2011-10-14T12:42:51Z</time>
      </trkpt>
      <trkpt lat="43.68395" lon="6.164">
        <ele>634.599976</ele>
        <time>2011-10-14T12:42:56Z</time>
      </trkpt>
      <trkpt lat="43.684" lon="6.16406">
        <ele>635.099976</ele>
        <time>2011-10-14T12:43:01Z</time>
      </trkpt>
      <trkpt lat="43.68403" lon="6.1641">
        <ele>635.400024</ele>
        <time>2011-10-14T12:43:06Z</time>
      </trkpt>
      <trkpt lat="43.68406" lon="6.16414">
        <ele>635.700012</ele>
        <time>2011-10-14T12:43:11Z</time>
      </trkpt>
      <trkpt lat="43.6841" lon="6.16419">
        <ele>635.599976</ele>
        <time>2011-10-14T12:43:16Z</time>
      </trkpt>
      <trkpt lat="43.68415" lon="6.16423">
        <ele>636</ele>
        <time>2011-10-14T12:43:21Z</time>
      </trkpt>
      <trkpt lat="43.68421" lon="6.16427">
        <ele>636.700012</ele>
        <time>2011-10-14T12:43:26Z</time>
      </trkpt>
      <trkpt lat="43.68425" lon="6.16431">
        <ele>636.599976</ele>
        <time>2011-10-14T12:43:31Z</time>
      </trkpt>
      <trkpt lat="43.6843" lon="6.16434">
        <ele>636.900024</ele>
        <time>2011-10-14T12:43:36Z</time>
      </trkpt>
      <trkpt lat="43.68431" lon="6.16435">
        <ele>637</ele>
        <time>2011-10-14T12:43:37Z</time>
      </trkpt>
      <trkpt lat="43.68438" lon="6.16443">
        <ele>637.099976</ele>
        <time>2011-10-14T12:43:46Z</time>
      </trkpt>
      <trkpt lat="43.68443" lon="6.16446">
        <ele>637.5</ele>
        <time>2011-10-14T12:43:51Z</time>
      </trkpt>
      <trkpt lat="43.68448" lon="6.16448">
        <ele>638</ele>
        <time>2011-10-14T12:43:56Z</time>
      </trkpt>
      <trkpt lat="43.68451" lon="6.1645">
        <ele>638.200012</ele>
        <time>2011-10-14T12:44:01Z</time>
      </trkpt>
      <trkpt lat="43.68457" lon="6.16451">
        <ele>638.200012</ele>
        <time>2011-10-14T12:44:06Z</time>
      </trkpt>
      <trkpt lat="43.68461" lon="6.16452">
        <ele>638.099976</ele>
        <time>2011-10-14T12:44:11Z</time>
      </trkpt>
      <trkpt lat="43.68465" lon="6.16453">
        <ele>638.400024</ele>
        <time>2011-10-14T12:44:16Z</time>
      </trkpt>
      <trkpt lat="43.6847" lon="6.16453">
        <ele>639</ele>
        <time>2011-10-14T12:44:21Z</time>
      </trkpt>
      <trkpt lat="43.68475" lon="6.16454">
        <ele>639.299988</ele>
        <time>2011-10-14T12:44:26Z</time>
      </trkpt>
      <trkpt lat="43.6848" lon="6.16455">
        <ele>639.799988</ele>
        <time>2011-10-14T12:44:31Z</time>
      </trkpt>
      <trkpt lat="43.68484" lon="6.16455">
        <ele>640</ele>
        <time>2011-10-14T12:44:36Z</time>
      </trkpt>
      <trkpt lat="43.68489" lon="6.16455">
        <ele>640.099976</ele>
        <time>2011-10-14T12:44:41Z</time>
      </trkpt>
      <trkpt lat="43.6849" lon="6.16455">
        <ele>640.200012</ele>
        <time>2011-10-14T12:44:42Z</time>
      </trkpt>
      <trkpt lat="43.685" lon="6.16458">
        <ele>640.599976</ele>
        <time>2011-10-14T12:44:51Z</time>
      </trkpt>
      <trkpt lat="43.68504" lon="6.16461">
        <ele>640.799988</ele>
        <time>2011-10-14T12:44:56Z</time>
      </trkpt>
      <trkpt lat="43.6851" lon="6.16462">
        <ele>641.099976</ele>
        <time>2011-10-14T12:45:01Z</time>
      </trkpt>
      <trkpt lat="43.68515" lon="6.16465">
        <ele>641.400024</ele>
        <time>2011-10-14T12:45:06Z</time>
      </trkpt>
      <trkpt lat="43.6852" lon="6.16468">
        <ele>641.400024</ele>
        <time>2011-10-14T12:45:11Z</time>
      </trkpt>
      <trkpt lat="43.68524" lon="6.16471">
        <ele>641.799988</ele>
        <time>2011-10-14T12:45:16Z</time>
      </trkpt>
      <trkpt lat="43.68528" lon="6.16476">
        <ele>642</ele>
        <time>2011-10-14T12:45:21Z</time>
      </trkpt>
      <trkpt lat="43.68531" lon="6.16481">
        <ele>642.299988</ele>
        <time>2011-10-14T12:45:26Z</time>
      </trkpt>
      <trkpt lat="43.68535" lon="6.16486">
        <ele>642.599976</ele>
        <time>2011-10-14T12:45:31Z</time>
      </trkpt>
      <trkpt lat="43.68539" lon="6.1649">
        <ele>642.599976</ele>
        <time>2011-10-14T12:45:36Z</time>
      </trkpt>
      <trkpt lat="43.68543" lon="6.16494">
        <ele>642.599976</ele>
        <time>2011-10-14T12:45:41Z</time>
      </trkpt>
      <trkpt lat="43.68546" lon="6.16499">
        <ele>642.900024</ele>
        <time>2011-10-14T12:45:46Z</time>
      </trkpt>
      <trkpt lat="43.68547" lon="6.165">
        <ele>643</ele>
        <time>2011-10-14T12:45:47Z</time>
      </trkpt>
      <trkpt lat="43.68553" lon="6.1651">
        <ele>643.200012</ele>
        <time>2011-10-14T12:45:56Z</time>
      </trkpt>
      <trkpt lat="43.68557" lon="6.16517">
        <ele>643.400024</ele>
        <time>2011-10-14T12:46:01Z</time>
      </trkpt>
      <trkpt lat="43.6856" lon="6.16523">
        <ele>643.700012</ele>
        <time>2011-10-14T12:46:06Z</time>
      </trkpt>
      <trkpt lat="43.68564" lon="6.16528">
        <ele>644.099976</ele>
        <time>2011-10-14T12:46:11Z</time>
      </trkpt>
      <trkpt lat="43.68569" lon="6.16533">
        <ele>644.5</ele>
        <time>2011-10-14T12:46:16Z</time>
      </trkpt>
      <trkpt lat="43.68574" lon="6.16539">
        <ele>644.299988</ele>
        <time>2011-10-14T12:46:21Z</time>
      </trkpt>
      <trkpt lat="43.68578" lon="6.16545">
        <ele>644.5</ele>
        <time>2011-10-14T12:46:26Z</time>
      </trkpt>
      <trkpt lat="43.68582" lon="6.16551">
        <ele>645.200012</ele>
        <time>2011-10-14T12:46:31Z</time>
      </trkpt>
      <trkpt lat="43.68586" lon="6.16556">
        <ele>645.400024</ele>
        <time>2011-10-14T12:46:36Z</time>
      </trkpt>
      <trkpt lat="43.68589" lon="6.16561">
        <ele>645.700012</ele>
        <time>2011-10-14T12:46:41Z</time>
      </trkpt>
      <trkpt lat="43.68591" lon="6.16566">
        <ele>646.299988</ele>
        <time>2011-10-14T12:46:46Z</time>
      </trkpt>
      <trkpt lat="43.68594" lon="6.16571">
        <ele>646.5</ele>
        <time>2011-10-14T12:46:51Z</time>
      </trkpt>
      <trkpt lat="43.68595" lon="6.16572">
        <ele>646.5</ele>
        <time>2011-10-14T12:46:52Z</time>
      </trkpt>
      <trkpt lat="43.68599" lon="6.16584">
        <ele>647.5</ele>
        <time>2011-10-14T12:47:01Z</time>
      </trkpt>
      <trkpt lat="43.68598" lon="6.16591">
        <ele>647.900024</ele>
        <time>2011-10-14T12:47:06Z</time>
      </trkpt>
      <trkpt lat="43.68596" lon="6.16598">
        <ele>648.200012</ele>
        <time>2011-10-14T12:47:11Z</time>
      </trkpt>
      <trkpt lat="43.68593" lon="6.16604">
        <ele>649.200012</ele>
        <time>2011-10-14T12:47:16Z</time>
      </trkpt>
      <trkpt lat="43.68591" lon="6.1661">
        <ele>649.700012</ele>
        <time>2011-10-14T12:47:21Z</time>
      </trkpt>
      <trkpt lat="43.68588" lon="6.16616">
        <ele>649.799988</ele>
        <time>2011-10-14T12:47:26Z</time>
      </trkpt>
      <trkpt lat="43.68586" lon="6.16622">
        <ele>650.200012</ele>
        <time>2011-10-14T12:47:31Z</time>
      </trkpt>
      <trkpt lat="43.68585" lon="6.16629">
        <ele>650.400024</ele>
        <time>2011-10-14T12:47:36Z</time>
      </trkpt>
      <trkpt lat="43.68585" lon="6.16637">
        <ele>650.400024</ele>
        <time>2011-10-14T12:47:41Z</time>
      </trkpt>
      <trkpt lat="43.68586" lon="6.16645">
        <ele>650.900024</ele>
        <time>2011-10-14T12:47:46Z</time>
      </trkpt>
      <trkpt lat="43.68588" lon="6.1665">
        <ele>651.599976</ele>
        <time>2011-10-14T12:47:51Z</time>
      </trkpt>
      <trkpt lat="43.68592" lon="6.16655">
        <ele>652</ele>
        <time>2011-10-14T12:47:56Z</time>
      </trkpt>
      <trkpt lat="43.68592" lon="6.16656">
        <ele>652.099976</ele>
        <time>2011-10-14T12:47:57Z</time>
      </trkpt>
      <trkpt lat="43.68596" lon="6.16667">
        <ele>652.099976</ele>
        <time>2011-10-14T12:48:06Z</time>
      </trkpt>
      <trkpt lat="43.68597" lon="6.16674">
        <ele>652.5</ele>
        <time>2011-10-14T12:48:11Z</time>
      </trkpt>
      <trkpt lat="43.68597" lon="6.1668">
        <ele>652.900024</ele>
        <time>2011-10-14T12:48:16Z</time>
      </trkpt>
      <trkpt lat="43.68598" lon="6.16687">
        <ele>653.099976</ele>
        <time>2011-10-14T12:48:21Z</time>
      </trkpt>
      <trkpt lat="43.68599" lon="6.16693">
        <ele>653.599976</ele>
        <time>2011-10-14T12:48:26Z</time>
      </trkpt>
      <trkpt lat="43.686" lon="6.16699">
        <ele>653.799988</ele>
        <time>2011-10-14T12:48:31Z</time>
      </trkpt>
      <trkpt lat="43.686" lon="6.16705">
        <ele>653.900024</ele>
        <time>2011-10-14T12:48:36Z</time>
      </trkpt>
      <trkpt lat="43.68601" lon="6.16711">
        <ele>654.099976</ele>
        <time>2011-10-14T12:48:41Z</time>
      </trkpt>
      <trkpt lat="43.68602" lon="6.16718">
        <ele>654.299988</ele>
        <time>2011-10-14T12:48:46Z</time>
      </trkpt>
      <trkpt lat="43.68604" lon="6.16725">
        <ele>654.799988</ele>
        <time>2011-10-14T12:48:51Z</time>
      </trkpt>
      <trkpt lat="43.68606" lon="6.16732">
        <ele>655.200012</ele>
        <time>2011-10-14T12:48:56Z</time>
      </trkpt>
      <trkpt lat="43.68607" lon="6.16739">
        <ele>655.599976</ele>
        <time>2011-10-14T12:49:01Z</time>
      </trkpt>
      <trkpt lat="43.68606" lon="6.1674">
        <ele>655.700012</ele>
        <time>2011-10-14T12:49:02Z</time>
      </trkpt>
      <trkpt lat="43.68609" lon="6.16752">
        <ele>656.299988</ele>
        <time>2011-10-14T12:49:11Z</time>
      </trkpt>
      <trkpt lat="43.6861" lon="6.16759">
        <ele>656.400024</ele>
        <time>2011-10-14T12:49:16Z</time>
      </trkpt>
      <trkpt lat="43.68612" lon="6.16766">
        <ele>656.900024</ele>
        <time>2011-10-14T12:49:21Z</time>
      </trkpt>
      <trkpt lat="43.68614" lon="6.16772">
        <ele>657.099976</ele>
        <time>2011-10-14T12:49:26Z</time>
      </trkpt>
      <trkpt lat="43.68616" lon="6.16778">
        <ele>657.400024</ele>
        <time>2011-10-14T12:49:31Z</time>
      </trkpt>
      <trkpt lat="43.68619" lon="6.16782">
        <ele>657.200012</ele>
        <time>2011-10-14T12:49:36Z</time>
      </trkpt>
      <trkpt lat="43.68624" lon="6.16786">
        <ele>657.200012</ele>
        <time>2011-10-14T12:49:41Z</time>
      </trkpt>
      <trkpt lat="43.6863" lon="6.1679">
        <ele>657.200012</ele>
        <time>2011-10-14T12:49:46Z</time>
      </trkpt>
      <trkpt lat="43.68635" lon="6.16793">
        <ele>657.099976</ele>
        <time>2011-10-14T12:49:51Z</time>
      </trkpt>
      <trkpt lat="43.68639" lon="6.16795">
        <ele>657</ele>
        <time>2011-10-14T12:49:56Z</time>
      </trkpt>
      <trkpt lat="43.68643" lon="6.16798">
        <ele>657.400024</ele>
        <time>2011-10-14T12:50:01Z</time>
      </trkpt>
      <trkpt lat="43.68647" lon="6.16799">
        <ele>657.799988</ele>
        <time>2011-10-14T12:50:06Z</time>
      </trkpt>
      <trkpt lat="43.68648" lon="6.16799">
        <ele>657.900024</ele>
        <time>2011-10-14T12:50:07Z</time>
      </trkpt>
      <trkpt lat="43.68656" lon="6.16802">
        <ele>658.700012</ele>
        <time>2011-10-14T12:50:16Z</time>
      </trkpt>
      <trkpt lat="43.6866" lon="6.16804">
        <ele>659.299988</ele>
        <time>2011-10-14T12:50:21Z</time>
      </trkpt>
      <trkpt lat="43.68665" lon="6.16807">
        <ele>660.099976</ele>
        <time>2011-10-14T12:50:26Z</time>
      </trkpt>
      <trkpt lat="43.68669" lon="6.16809">
        <ele>660.099976</ele>
        <time>2011-10-14T12:50:31Z</time>
      </trkpt>
      <trkpt lat="43.68674" lon="6.16811">
        <ele>660.700012</ele>
        <time>2011-10-14T12:50:36Z</time>
      </trkpt>
      <trkpt lat="43.68678" lon="6.16813">
        <ele>661</ele>
        <time>2011-10-14T12:50:41Z</time>
      </trkpt>
      <trkpt lat="43.68683" lon="6.16814">
        <ele>661.400024</ele>
        <time>2011-10-14T12:50:46Z</time>
      </trkpt>
      <trkpt lat="43.68686" lon="6.16816">
        <ele>661.900024</ele>
        <time>2011-10-14T12:50:51Z</time>
      </trkpt>
      <trkpt lat="43.6869" lon="6.16819">
        <ele>662.299988</ele>
        <time>2011-10-14T12:50:56Z</time>
      </trkpt>
      <trkpt lat="43.68694" lon="6.16823">
        <ele>662.299988</ele>
        <time>2011-10-14T12:51:01Z</time>
      </trkpt>
      <trkpt lat="43.68698" lon="6.16827">
        <ele>662.900024</ele>
        <time>2011-10-14T12:51:06Z</time>
      </trkpt>
      <trkpt lat="43.68701" lon="6.16832">
        <ele>663.200012</ele>
        <time>2011-10-14T12:51:11Z</time>
      </trkpt>
      <trkpt lat="43.68701" lon="6.16834">
        <ele>663.400024</ele>
        <time>2011-10-14T12:51:12Z</time>
      </trkpt>
      <trkpt lat="43.68706" lon="6.16843">
        <ele>663.900024</ele>
        <time>2011-10-14T12:51:21Z</time>
      </trkpt>
      <trkpt lat="43.68708" lon="6.16848">
        <ele>664.200012</ele>
        <time>2011-10-14T12:51:26Z</time>
      </trkpt>
      <trkpt lat="43.68711" lon="6.16854">
        <ele>664.799988</ele>
        <time>2011-10-14T12:51:31Z</time>
      </trkpt>
      <trkpt lat="43.68713" lon="6.16859">
        <ele>665.299988</ele>
        <time>2011-10-14T12:51:36Z</time>
      </trkpt>
      <trkpt lat="43.68716" lon="6.16864">
        <ele>665.599976</ele>
        <time>2011-10-14T12:51:41Z</time>
      </trkpt>
      <trkpt lat="43.68719" lon="6.1687">
        <ele>666</ele>
        <time>2011-10-14T12:51:46Z</time>
      </trkpt>
      <trkpt lat="43.68721" lon="6.16874">
        <ele>666.5</ele>
        <time>2011-10-14T12:51:51Z</time>
      </trkpt>
      <trkpt lat="43.68724" lon="6.16879">
        <ele>666.900024</ele>
        <time>2011-10-14T12:51:56Z</time>
      </trkpt>
      <trkpt lat="43.68726" lon="6.16882">
        <ele>667.5</ele>
        <time>2011-10-14T12:52:01Z</time>
      </trkpt>
      <trkpt lat="43.68729" lon="6.16887">
        <ele>668.099976</ele>
        <time>2011-10-14T12:52:06Z</time>
      </trkpt>
      <trkpt lat="43.6873" lon="6.16893">
        <ele>668.5</ele>
        <time>2011-10-14T12:52:11Z</time>
      </trkpt>
      <trkpt lat="43.68731" lon="6.16899">
        <ele>668.900024</ele>
        <time>2011-10-14T12:52:16Z</time>
      </trkpt>
      <trkpt lat="43.68732" lon="6.16901">
        <ele>669.099976</ele>
        <time>2011-10-14T12:52:17Z</time>
      </trkpt>
      <trkpt lat="43.68733" lon="6.16914">
        <ele>669.700012</ele>
        <time>2011-10-14T12:52:26Z</time>
      </trkpt>
      <trkpt lat="43.68733" lon="6.16921">
        <ele>669.400024</ele>
        <time>2011-10-14T12:52:31Z</time>
      </trkpt>
      <trkpt lat="43.68732" lon="6.16928">
        <ele>669.5</ele>
        <time>2011-10-14T12:52:36Z</time>
      </trkpt>
      <trkpt lat="43.68733" lon="6.16935">
        <ele>669.900024</ele>
        <time>2011-10-14T12:52:41Z</time>
      </trkpt>
      <trkpt lat="43.68735" lon="6.1694">
        <ele>669.900024</ele>
        <time>2011-10-14T12:52:46Z</time>
      </trkpt>
      <trkpt lat="43.68735" lon="6.16942">
        <ele>669.900024</ele>
        <time>2011-10-14T12:52:51Z</time>
      </trkpt>
      <trkpt lat="43.68736" lon="6.16946">
        <ele>669.799988</ele>
        <time>2011-10-14T12:52:56Z</time>
      </trkpt>
      <trkpt lat="43.68737" lon="6.16948">
        <ele>670.099976</ele>
        <time>2011-10-14T12:53:01Z</time>
      </trkpt>
      <trkpt lat="43.68737" lon="6.16949">
        <ele>670.400024</ele>
        <time>2011-10-14T12:53:06Z</time>
      </trkpt>
      <trkpt lat="43.68738" lon="6.16951">
        <ele>670.799988</ele>
        <time>2011-10-14T12:53:11Z</time>
      </trkpt>
      <trkpt lat="43.68737" lon="6.16951">
        <ele>670.799988</ele>
        <time>2011-10-14T12:53:16Z</time>
      </trkpt>
      <trkpt lat="43.68737" lon="6.16951">
        <ele>670.799988</ele>
        <time>2011-10-14T12:53:21Z</time>
      </trkpt>
      <trkpt lat="43.68738" lon="6.16952">
        <ele>670.799988</ele>
        <time>2011-10-14T12:53:22Z</time>
      </trkpt>
      <trkpt lat="43.68739" lon="6.16954">
        <ele>670.400024</ele>
        <time>2011-10-14T12:53:31Z</time>
      </trkpt>
      <trkpt lat="43.68738" lon="6.16954">
        <ele>670.5</ele>
        <time>2011-10-14T12:53:36Z</time>
      </trkpt>
      <trkpt lat="43.68738" lon="6.16955">
        <ele>670.900024</ele>
        <time>2011-10-14T12:53:41Z</time>
      </trkpt>
      <trkpt lat="43.68738" lon="6.16955">
        <ele>670.400024</ele>
        <time>2011-10-14T12:53:46Z</time>
      </trkpt>
      <trkpt lat="43.68739" lon="6.16955">
        <ele>670.5</ele>
        <time>2011-10-14T12:53:51Z</time>
      </trkpt>
      <trkpt lat="43.6874" lon="6.16955">
        <ele>670.700012</ele>
        <time>2011-10-14T12:53:56Z</time>
      </trkpt>
      <trkpt lat="43.6874" lon="6.16956">
        <ele>670.599976</ele>
        <time>2011-10-14T12:54:01Z</time>
      </trkpt>
      <trkpt lat="43.68741" lon="6.16955">
        <ele>670.700012</ele>
        <time>2011-10-14T12:54:06Z</time>
      </trkpt>
      <trkpt lat="43.68739" lon="6.16956">
        <ele>670.700012</ele>
        <time>2011-10-14T12:54:11Z</time>
      </trkpt>
      <trkpt lat="43.68738" lon="6.16956">
        <ele>670.700012</ele>
        <time>2011-10-14T12:54:16Z</time>
      </trkpt>
      <trkpt lat="43.68738" lon="6.16955">
        <ele>670.900024</ele>
        <time>2011-10-14T12:54:21Z</time>
      </trkpt>
      <trkpt lat="43.68739" lon="6.16954">
        <ele>671.200012</ele>
        <time>2011-10-14T12:54:26Z</time>
      </trkpt>
      <trkpt lat="43.68739" lon="6.16954">
        <ele>671.299988</ele>
        <time>2011-10-14T12:54:27Z</time>
      </trkpt>
      <trkpt lat="43.68737" lon="6.16955">
        <ele>670.799988</ele>
        <time>2011-10-14T12:54:36Z</time>
      </trkpt>
      <trkpt lat="43.68736" lon="6.16954">
        <ele>670.799988</ele>
        <time>2011-10-14T12:54:41Z</time>
      </trkpt>
      <trkpt lat="43.68736" lon="6.16954">
        <ele>670.900024</ele>
        <time>2011-10-14T12:54:46Z</time>
      </trkpt>
      <trkpt lat="43.68736" lon="6.16954">
        <ele>671</ele>
        <time>2011-10-14T12:54:51Z</time>
      </trkpt>
      <trkpt lat="43.68736" lon="6.16955">
        <ele>671.400024</ele>
        <time>2011-10-14T12:54:56Z</time>
      </trkpt>
      <trkpt lat="43.68736" lon="6.16955">
        <ele>671.200012</ele>
        <time>2011-10-14T12:55:01Z</time>
      </trkpt>
      <trkpt lat="43.68734" lon="6.16953">
        <ele>671.200012</ele>
        <time>2011-10-14T12:55:06Z</time>
      </trkpt>
      <trkpt lat="43.68732" lon="6.16952">
        <ele>671.099976</ele>
        <time>2011-10-14T12:55:11Z</time>
      </trkpt>
      <trkpt lat="43.68729" lon="6.16952">
        <ele>671.200012</ele>
        <time>2011-10-14T12:55:16Z</time>
      </trkpt>
      <trkpt lat="43.68727" lon="6.16954">
        <ele>671.099976</ele>
        <time>2011-10-14T12:55:21Z</time>
      </trkpt>
      <trkpt lat="43.68727" lon="6.16952">
        <ele>671.299988</ele>
        <time>2011-10-14T12:55:26Z</time>
      </trkpt>
      <trkpt lat="43.68727" lon="6.16951">
        <ele>671.299988</ele>
        <time>2011-10-14T12:55:31Z</time>
      </trkpt>
      <trkpt lat="43.68727" lon="6.1695">
        <ele>671.400024</ele>
        <time>2011-10-14T12:55:32Z</time>
      </trkpt>
      <trkpt lat="43.68727" lon="6.16949">
        <ele>671.400024</ele>
        <time>2011-10-14T12:55:41Z</time>
      </trkpt>
      <trkpt lat="43.68728" lon="6.16949">
        <ele>671.400024</ele>
        <time>2011-10-14T12:55:46Z</time>
      </trkpt>
      <trkpt lat="43.68731" lon="6.16948">
        <ele>671.900024</ele>
        <time>2011-10-14T12:55:51Z</time>
      </trkpt>
      <trkpt lat="43.68735" lon="6.16949">
        <ele>672.400024</ele>
        <time>2011-10-14T12:55:56Z</time>
      </trkpt>
      <trkpt lat="43.6874" lon="6.16948">
        <ele>672.700012</ele>
        <time>2011-10-14T12:56:01Z</time>
      </trkpt>
      <trkpt lat="43.68744" lon="6.16947">
        <ele>673.099976</ele>
        <time>2011-10-14T12:56:06Z</time>
      </trkpt>
      <trkpt lat="43.68748" lon="6.16945">
        <ele>673.299988</ele>
        <time>2011-10-14T12:56:11Z</time>
      </trkpt>
      <trkpt lat="43.68752" lon="6.16942">
        <ele>673.799988</ele>
        <time>2011-10-14T12:56:16Z</time>
      </trkpt>
      <trkpt lat="43.68756" lon="6.1694">
        <ele>674.099976</ele>
        <time>2011-10-14T12:56:21Z</time>
      </trkpt>
      <trkpt lat="43.68759" lon="6.16938">
        <ele>674.5</ele>
        <time>2011-10-14T12:56:26Z</time>
      </trkpt>
      <trkpt lat="43.68763" lon="6.16935">
        <ele>674.799988</ele>
        <time>2011-10-14T12:56:31Z</time>
      </trkpt>
      <trkpt lat="43.68769" lon="6.16935">
        <ele>675.599976</ele>
        <time>2011-10-14T12:56:36Z</time>
      </trkpt>
      <trkpt lat="43.6877" lon="6.16935">
        <ele>675.700012</ele>
        <time>2011-10-14T12:56:37Z</time>
      </trkpt>
      <trkpt lat="43.68776" lon="6.16937">
        <ele>676.200012</ele>
        <time>2011-10-14T12:56:46Z</time>
      </trkpt>
      <trkpt lat="43.6878" lon="6.16937">
        <ele>676</ele>
        <time>2011-10-14T12:56:51Z</time>
      </trkpt>
      <trkpt lat="43.68784" lon="6.16939">
        <ele>676.200012</ele>
        <time>2011-10-14T12:56:56Z</time>
      </trkpt>
      <trkpt lat="43.68789" lon="6.16939">
        <ele>676.299988</ele>
        <time>2011-10-14T12:57:01Z</time>
      </trkpt>
      <trkpt lat="43.68793" lon="6.1694">
        <ele>676.400024</ele>
        <time>2011-10-14T12:57:06Z</time>
      </trkpt>
      <trkpt lat="43.68797" lon="6.16939">
        <ele>677.299988</ele>
        <time>2011-10-14T12:57:11Z</time>
      </trkpt>
      <trkpt lat="43.68801" lon="6.16937">
        <ele>677.5</ele>
        <time>2011-10-14T12:57:16Z</time>
      </trkpt>
      <trkpt lat="43.68805" lon="6.16935">
        <ele>677.799988</ele>
        <time>2011-10-14T12:57:21Z</time>
      </trkpt>
      <trkpt lat="43.68809" lon="6.16932">
        <ele>678.099976</ele>
        <time>2011-10-14T12:57:26Z</time>
      </trkpt>
      <trkpt lat="43.68812" lon="6.16929">
        <ele>678.700012</ele>
        <time>2011-10-14T12:57:31Z</time>
      </trkpt>
      <trkpt lat="43.68816" lon="6.16927">
        <ele>679.299988</ele>
        <time>2011-10-14T12:57:36Z</time>
      </trkpt>
      <trkpt lat="43.68821" lon="6.16927">
        <ele>679.900024</ele>
        <time>2011-10-14T12:57:41Z</time>
      </trkpt>
      <trkpt lat="43.68822" lon="6.16927">
        <ele>680</ele>
        <time>2011-10-14T12:57:42Z</time>
      </trkpt>
      <trkpt lat="43.6883" lon="6.16926">
        <ele>681</ele>
        <time>2011-10-14T12:57:51Z</time>
      </trkpt>
      <trkpt lat="43.68834" lon="6.16927">
        <ele>681.700012</ele>
        <time>2011-10-14T12:57:56Z</time>
      </trkpt>
      <trkpt lat="43.68838" lon="6.16927">
        <ele>681.900024</ele>
        <time>2011-10-14T12:58:01Z</time>
      </trkpt>
      <trkpt lat="43.68842" lon="6.16928">
        <ele>682.799988</ele>
        <time>2011-10-14T12:58:06Z</time>
      </trkpt>
      <trkpt lat="43.68845" lon="6.16929">
        <ele>683.099976</ele>
        <time>2011-10-14T12:58:11Z</time>
      </trkpt>
      <trkpt lat="43.68849" lon="6.16928">
        <ele>683.799988</ele>
        <time>2011-10-14T12:58:16Z</time>
      </trkpt>
      <trkpt lat="43.68853" lon="6.16928">
        <ele>684.200012</ele>
        <time>2011-10-14T12:58:21Z</time>
      </trkpt>
      <trkpt lat="43.68858" lon="6.16927">
        <ele>685</ele>
        <time>2011-10-14T12:58:26Z</time>
      </trkpt>
      <trkpt lat="43.68862" lon="6.16926">
        <ele>685.400024</ele>
        <time>2011-10-14T12:58:31Z</time>
      </trkpt>
      <trkpt lat="43.68867" lon="6.16925">
        <ele>686</ele>
        <time>2011-10-14T12:58:36Z</time>
      </trkpt>
      <trkpt lat="43.6887" lon="6.16924">
        <ele>686.099976</ele>
        <time>2011-10-14T12:58:41Z</time>
      </trkpt>
      <trkpt lat="43.68872" lon="6.16921">
        <ele>686.5</ele>
        <time>2011-10-14T12:58:46Z</time>
      </trkpt>
      <trkpt lat="43.68873" lon="6.16921">
        <ele>686.599976</ele>
        <time>2011-10-14T12:58:47Z</time>
      </trkpt>
      <trkpt lat="43.6888" lon="6.1692">
        <ele>687.900024</ele>
        <time>2011-10-14T12:58:56Z</time>
      </trkpt>
      <trkpt lat="43.68884" lon="6.16918">
        <ele>688.299988</ele>
        <time>2011-10-14T12:59:01Z</time>
      </trkpt>
      <trkpt lat="43.68888" lon="6.16916">
        <ele>688.599976</ele>
        <time>2011-10-14T12:59:06Z</time>
      </trkpt>
      <trkpt lat="43.68894" lon="6.16915">
        <ele>689</ele>
        <time>2011-10-14T12:59:11Z</time>
      </trkpt>
      <trkpt lat="43.68898" lon="6.16913">
        <ele>690.099976</ele>
        <time>2011-10-14T12:59:16Z</time>
      </trkpt>
      <trkpt lat="43.68902" lon="6.16912">
        <ele>690.599976</ele>
        <time>2011-10-14T12:59:21Z</time>
      </trkpt>
      <trkpt lat="43.68906" lon="6.16911">
        <ele>691.5</ele>
        <time>2011-10-14T12:59:26Z</time>
      </trkpt>
      <trkpt lat="43.68909" lon="6.16911">
        <ele>692.200012</ele>
        <time>2011-10-14T12:59:31Z</time>
      </trkpt>
      <trkpt lat="43.68909" lon="6.16911">
        <ele>692.200012</ele>
        <time>2011-10-14T12:59:36Z</time>
      </trkpt>
      <trkpt lat="43.6891" lon="6.16912">
        <ele>692.200012</ele>
        <time>2011-10-14T12:59:41Z</time>
      </trkpt>
      <trkpt lat="43.68911" lon="6.16913">
        <ele>692.299988</ele>
        <time>2011-10-14T12:59:46Z</time>
      </trkpt>
      <trkpt lat="43.68911" lon="6.16913">
        <ele>692.700012</ele>
        <time>2011-10-14T12:59:51Z</time>
      </trkpt>
      <trkpt lat="43.68911" lon="6.16913">
        <ele>692.599976</ele>
        <time>2011-10-14T12:59:52Z</time>
      </trkpt>
      <trkpt lat="43.68912" lon="6.16914">
        <ele>692.200012</ele>
        <time>2011-10-14T13:00:01Z</time>
      </trkpt>
      <trkpt lat="43.68912" lon="6.16914">
        <ele>692.400024</ele>
        <time>2011-10-14T13:00:06Z</time>
      </trkpt>
      <trkpt lat="43.68915" lon="6.16914">
        <ele>692.400024</ele>
        <time>2011-10-14T13:00:11Z</time>
      </trkpt>
      <trkpt lat="43.68918" lon="6.1691">
        <ele>692.400024</ele>
        <time>2011-10-14T13:00:16Z</time>
      </trkpt>
      <trkpt lat="43.6892" lon="6.16908">
        <ele>692.799988</ele>
        <time>2011-10-14T13:00:21Z</time>
      </trkpt>
      <trkpt lat="43.68923" lon="6.16905">
        <ele>692.799988</ele>
        <time>2011-10-14T13:00:26Z</time>
      </trkpt>
      <trkpt lat="43.68925" lon="6.16901">
        <ele>693.299988</ele>
        <time>2011-10-14T13:00:31Z</time>
      </trkpt>
      <trkpt lat="43.68928" lon="6.16898">
        <ele>693.900024</ele>
        <time>2011-10-14T13:00:36Z</time>
      </trkpt>
      <trkpt lat="43.6893" lon="6.16895">
        <ele>694.299988</ele>
        <time>2011-10-14T13:00:41Z</time>
      </trkpt>
      <trkpt lat="43.68932" lon="6.16893">
        <ele>694.799988</ele>
        <time>2011-10-14T13:00:46Z</time>
      </trkpt>
      <trkpt lat="43.68934" lon="6.1689">
        <ele>695.200012</ele>
        <time>2011-10-14T13:00:51Z</time>
      </trkpt>
      <trkpt lat="43.68938" lon="6.16888">
        <ele>695.599976</ele>
        <time>2011-10-14T13:00:56Z</time>
      </trkpt>
      <trkpt lat="43.68938" lon="6.16888">
        <ele>695.599976</ele>
        <time>2011-10-14T13:00:57Z</time>
      </trkpt>
      <trkpt lat="43.68946" lon="6.16885">
        <ele>696.200012</ele>
        <time>2011-10-14T13:01:06Z</time>
      </trkpt>
      <trkpt lat="43.68947" lon="6.16882">
        <ele>697.099976</ele>
        <time>2011-10-14T13:01:11Z</time>
      </trkpt>
      <trkpt lat="43.6895" lon="6.1688">
        <ele>697.099976</ele>
        <time>2011-10-14T13:01:16Z</time>
      </trkpt>
      <trkpt lat="43.68954" lon="6.16879">
        <ele>697.599976</ele>
        <time>2011-10-14T13:01:21Z</time>
      </trkpt>
      <trkpt lat="43.68959" lon="6.16877">
        <ele>698.299988</ele>
        <time>2011-10-14T13:01:26Z</time>
      </trkpt>
      <trkpt lat="43.68962" lon="6.16877">
        <ele>698.799988</ele>
        <time>2011-10-14T13:01:31Z</time>
      </trkpt>
      <trkpt lat="43.68965" lon="6.16875">
        <ele>699.5</ele>
        <time>2011-10-14T13:01:36Z</time>
      </trkpt>
      <trkpt lat="43.68969" lon="6.16874">
        <ele>699.900024</ele>
        <time>2011-10-14T13:01:41Z</time>
      </trkpt>
      <trkpt lat="43.68972" lon="6.16873">
        <ele>700.299988</ele>
        <time>2011-10-14T13:01:46Z</time>
      </trkpt>
      <trkpt lat="43.68976" lon="6.16873">
        <ele>701</ele>
        <time>2011-10-14T13:01:51Z</time>
      </trkpt>
      <trkpt lat="43.68981" lon="6.16874">
        <ele>700.700012</ele>
        <time>2011-10-14T13:01:56Z</time>
      </trkpt>
      <trkpt lat="43.68984" lon="6.16874">
        <ele>701.400024</ele>
        <time>2011-10-14T13:02:01Z</time>
      </trkpt>
      <trkpt lat="43.68985" lon="6.16874">
        <ele>701.400024</ele>
        <time>2011-10-14T13:02:02Z</time>
      </trkpt>
      <trkpt lat="43.6899" lon="6.16874">
        <ele>702.299988</ele>
        <time>2011-10-14T13:02:11Z</time>
      </trkpt>
      <trkpt lat="43.68995" lon="6.16878">
        <ele>702.700012</ele>
        <time>2011-10-14T13:02:16Z</time>
      </trkpt>
      <trkpt lat="43.69001" lon="6.16882">
        <ele>703.299988</ele>
        <time>2011-10-14T13:02:21Z</time>
      </trkpt>
      <trkpt lat="43.69004" lon="6.16886">
        <ele>703.5</ele>
        <time>2011-10-14T13:02:26Z</time>
      </trkpt>
      <trkpt lat="43.69008" lon="6.16889">
        <ele>704.400024</ele>
        <time>2011-10-14T13:02:31Z</time>
      </trkpt>
      <trkpt lat="43.6901" lon="6.16891">
        <ele>704.5</ele>
        <time>2011-10-14T13:02:36Z</time>
      </trkpt>
      <trkpt lat="43.69013" lon="6.16895">
        <ele>705</ele>
        <time>2011-10-14T13:02:41Z</time>
      </trkpt>
      <trkpt lat="43.69014" lon="6.16897">
        <ele>705.900024</ele>
        <time>2011-10-14T13:02:46Z</time>
      </trkpt>
      <trkpt lat="43.69016" lon="6.16899">
        <ele>706</ele>
        <time>2011-10-14T13:02:51Z</time>
      </trkpt>
      <trkpt lat="43.69019" lon="6.16901">
        <ele>706.200012</ele>
        <time>2011-10-14T13:02:56Z</time>
      </trkpt>
      <trkpt lat="43.69023" lon="6.16904">
        <ele>706.900024</ele>
        <time>2011-10-14T13:03:01Z</time>
      </trkpt>
      <trkpt lat="43.69027" lon="6.16906">
        <ele>706.900024</ele>
        <time>2011-10-14T13:03:06Z</time>
      </trkpt>
      <trkpt lat="43.69028" lon="6.16906">
        <ele>707</ele>
        <time>2011-10-14T13:03:07Z</time>
      </trkpt>
      <trkpt lat="43.69034" lon="6.1691">
        <ele>707.700012</ele>
        <time>2011-10-14T13:03:16Z</time>
      </trkpt>
      <trkpt lat="43.69037" lon="6.16911">
        <ele>707.799988</ele>
        <time>2011-10-14T13:03:21Z</time>
      </trkpt>
      <trkpt lat="43.69041" lon="6.16913">
        <ele>707.599976</ele>
        <time>2011-10-14T13:03:26Z</time>
      </trkpt>
      <trkpt lat="43.69044" lon="6.16914">
        <ele>707.5</ele>
        <time>2011-10-14T13:03:31Z</time>
      </trkpt>
      <trkpt lat="43.69049" lon="6.16916">
        <ele>707.5</ele>
        <time>2011-10-14T13:03:36Z</time>
      </trkpt>
      <trkpt lat="43.69054" lon="6.16917">
        <ele>706.799988</ele>
        <time>2011-10-14T13:03:41Z</time>
      </trkpt>
      <trkpt lat="43.69058" lon="6.1692">
        <ele>707.099976</ele>
        <time>2011-10-14T13:03:46Z</time>
      </trkpt>
      <trkpt lat="43.69062" lon="6.16921">
        <ele>707</ele>
        <time>2011-10-14T13:03:51Z</time>
      </trkpt>
      <trkpt lat="43.69066" lon="6.16923">
        <ele>706.400024</ele>
        <time>2011-10-14T13:03:56Z</time>
      </trkpt>
      <trkpt lat="43.6907" lon="6.16925">
        <ele>706.400024</ele>
        <time>2011-10-14T13:04:01Z</time>
      </trkpt>
      <trkpt lat="43.69074" lon="6.16927">
        <ele>706.5</ele>
        <time>2011-10-14T13:04:06Z</time>
      </trkpt>
      <trkpt lat="43.69077" lon="6.16929">
        <ele>706.400024</ele>
        <time>2011-10-14T13:04:11Z</time>
      </trkpt>
      <trkpt lat="43.69078" lon="6.1693">
        <ele>706.400024</ele>
        <time>2011-10-14T13:04:12Z</time>
      </trkpt>
      <trkpt lat="43.69085" lon="6.16936">
        <ele>706.099976</ele>
        <time>2011-10-14T13:04:21Z</time>
      </trkpt>
      <trkpt lat="43.69089" lon="6.16939">
        <ele>706.700012</ele>
        <time>2011-10-14T13:04:26Z</time>
      </trkpt>
      <trkpt lat="43.69092" lon="6.16943">
        <ele>707</ele>
        <time>2011-10-14T13:04:31Z</time>
      </trkpt>
      <trkpt lat="43.69096" lon="6.16946">
        <ele>706.700012</ele>
        <time>2011-10-14T13:04:36Z</time>
      </trkpt>
      <trkpt lat="43.69099" lon="6.1695">
        <ele>706.599976</ele>
        <time>2011-10-14T13:04:41Z</time>
      </trkpt>
      <trkpt lat="43.69102" lon="6.16953">
        <ele>706.900024</ele>
        <time>2011-10-14T13:04:46Z</time>
      </trkpt>
      <trkpt lat="43.69106" lon="6.16957">
        <ele>707.099976</ele>
        <time>2011-10-14T13:04:51Z</time>
      </trkpt>
      <trkpt lat="43.69109" lon="6.16961">
        <ele>706.799988</ele>
        <time>2011-10-14T13:04:56Z</time>
      </trkpt>
      <trkpt lat="43.69113" lon="6.16965">
        <ele>707</ele>
        <time>2011-10-14T13:05:01Z</time>
      </trkpt>
      <trkpt lat="43.69116" lon="6.16968">
        <ele>707</ele>
        <time>2011-10-14T13:05:06Z</time>
      </trkpt>
      <trkpt lat="43.6912" lon="6.16972">
        <ele>707</ele>
        <time>2011-10-14T13:05:11Z</time>
      </trkpt>
      <trkpt lat="43.69123" lon="6.16976">
        <ele>707.099976</ele>
        <time>2011-10-14T13:05:16Z</time>
      </trkpt>
      <trkpt lat="43.69124" lon="6.16977">
        <ele>707</ele>
        <time>2011-10-14T13:05:17Z</time>
      </trkpt>
      <trkpt lat="43.69132" lon="6.16983">
        <ele>705.799988</ele>
        <time>2011-10-14T13:05:26Z</time>
      </trkpt>
      <trkpt lat="43.69136" lon="6.16987">
        <ele>705.700012</ele>
        <time>2011-10-14T13:05:31Z</time>
      </trkpt>
      <trkpt lat="43.69141" lon="6.1699">
        <ele>705.099976</ele>
        <time>2011-10-14T13:05:36Z</time>
      </trkpt>
      <trkpt lat="43.69145" lon="6.16993">
        <ele>704.599976</ele>
        <time>2011-10-14T13:05:41Z</time>
      </trkpt>
      <trkpt lat="43.69149" lon="6.16995">
        <ele>704.799988</ele>
        <time>2011-10-14T13:05:46Z</time>
      </trkpt>
      <trkpt lat="43.69154" lon="6.16997">
        <ele>704.799988</ele>
        <time>2011-10-14T13:05:51Z</time>
      </trkpt>
      <trkpt lat="43.69157" lon="6.17001">
        <ele>705.400024</ele>
        <time>2011-10-14T13:05:56Z</time>
      </trkpt>
      <trkpt lat="43.69161" lon="6.17006">
        <ele>705.299988</ele>
        <time>2011-10-14T13:06:01Z</time>
      </trkpt>
      <trkpt lat="43.69166" lon="6.17013">
        <ele>705.400024</ele>
        <time>2011-10-14T13:06:06Z</time>
      </trkpt>
      <trkpt lat="43.69169" lon="6.1702">
        <ele>705.5</ele>
        <time>2011-10-14T13:06:11Z</time>
      </trkpt>
      <trkpt lat="43.69173" lon="6.17027">
        <ele>705.299988</ele>
        <time>2011-10-14T13:06:16Z</time>
      </trkpt>
      <trkpt lat="43.69175" lon="6.17035">
        <ele>705.700012</ele>
        <time>2011-10-14T13:06:21Z</time>
      </trkpt>
      <trkpt lat="43.69175" lon="6.17036">
        <ele>705.799988</ele>
        <time>2011-10-14T13:06:22Z</time>
      </trkpt>
      <trkpt lat="43.69179" lon="6.17046">
        <ele>705.799988</ele>
        <time>2011-10-14T13:06:31Z</time>
      </trkpt>
      <trkpt lat="43.69182" lon="6.17052">
        <ele>705.400024</ele>
        <time>2011-10-14T13:06:36Z</time>
      </trkpt>
      <trkpt lat="43.69185" lon="6.17057">
        <ele>705.700012</ele>
        <time>2011-10-14T13:06:41Z</time>
      </trkpt>
      <trkpt lat="43.69188" lon="6.17061">
        <ele>705.400024</ele>
        <time>2011-10-14T13:06:46Z</time>
      </trkpt>
      <trkpt lat="43.69192" lon="6.17064">
        <ele>704.900024</ele>
        <time>2011-10-14T13:06:51Z</time>
      </trkpt>
      <trkpt lat="43.69195" lon="6.17066">
        <ele>704.599976</ele>
        <time>2011-10-14T13:06:56Z</time>
      </trkpt>
      <trkpt lat="43.69199" lon="6.17069">
        <ele>704.099976</ele>
        <time>2011-10-14T13:07:01Z</time>
      </trkpt>
      <trkpt lat="43.69204" lon="6.17072">
        <ele>703.900024</ele>
        <time>2011-10-14T13:07:06Z</time>
      </trkpt>
      <trkpt lat="43.69209" lon="6.17075">
        <ele>703.900024</ele>
        <time>2011-10-14T13:07:11Z</time>
      </trkpt>
      <trkpt lat="43.69214" lon="6.17078">
        <ele>704.099976</ele>
        <time>2011-10-14T13:07:16Z</time>
      </trkpt>
      <trkpt lat="43.69218" lon="6.17081">
        <ele>704.5</ele>
        <time>2011-10-14T13:07:21Z</time>
      </trkpt>
      <trkpt lat="43.6922" lon="6.17082">
        <ele>704.599976</ele>
        <time>2011-10-14T13:07:26Z</time>
      </trkpt>
      <trkpt lat="43.69221" lon="6.17082">
        <ele>704.5</ele>
        <time>2011-10-14T13:07:27Z</time>
      </trkpt>
      <trkpt lat="43.69228" lon="6.17084">
        <ele>704.700012</ele>
        <time>2011-10-14T13:07:36Z</time>
      </trkpt>
      <trkpt lat="43.69232" lon="6.17085">
        <ele>704.900024</ele>
        <time>2011-10-14T13:07:41Z</time>
      </trkpt>
      <trkpt lat="43.69237" lon="6.17086">
        <ele>705</ele>
        <time>2011-10-14T13:07:46Z</time>
      </trkpt>
      <trkpt lat="43.69241" lon="6.17087">
        <ele>705.299988</ele>
        <time>2011-10-14T13:07:51Z</time>
      </trkpt>
      <trkpt lat="43.69246" lon="6.17087">
        <ele>705.400024</ele>
        <time>2011-10-14T13:07:56Z</time>
      </trkpt>
      <trkpt lat="43.69249" lon="6.17088">
        <ele>705.200012</ele>
        <time>2011-10-14T13:08:01Z</time>
      </trkpt>
      <trkpt lat="43.69255" lon="6.17089">
        <ele>705.700012</ele>
        <time>2011-10-14T13:08:06Z</time>
      </trkpt>
      <trkpt lat="43.6926" lon="6.17091">
        <ele>706.200012</ele>
        <time>2011-10-14T13:08:11Z</time>
      </trkpt>
      <trkpt lat="43.69264" lon="6.1709">
        <ele>706.400024</ele>
        <time>2011-10-14T13:08:16Z</time>
      </trkpt>
      <trkpt lat="43.69268" lon="6.17091">
        <ele>706.5</ele>
        <time>2011-10-14T13:08:21Z</time>
      </trkpt>
      <trkpt lat="43.69274" lon="6.17091">
        <ele>706.5</ele>
        <time>2011-10-14T13:08:26Z</time>
      </trkpt>
      <trkpt lat="43.6928" lon="6.17091">
        <ele>706.099976</ele>
        <time>2011-10-14T13:08:31Z</time>
      </trkpt>
      <trkpt lat="43.69281" lon="6.17091">
        <ele>706</ele>
        <time>2011-10-14T13:08:32Z</time>
      </trkpt>
      <trkpt lat="43.69291" lon="6.17094">
        <ele>706.5</ele>
        <time>2011-10-14T13:08:41Z</time>
      </trkpt>
      <trkpt lat="43.69296" lon="6.17099">
        <ele>707</ele>
        <time>2011-10-14T13:08:46Z</time>
      </trkpt>
      <trkpt lat="43.69299" lon="6.17102">
        <ele>707.799988</ele>
        <time>2011-10-14T13:08:51Z</time>
      </trkpt>
      <trkpt lat="43.69303" lon="6.17105">
        <ele>708.299988</ele>
        <time>2011-10-14T13:08:56Z</time>
      </trkpt>
      <trkpt lat="43.69307" lon="6.1711">
        <ele>708.5</ele>
        <time>2011-10-14T13:09:01Z</time>
      </trkpt>
      <trkpt lat="43.69312" lon="6.17116">
        <ele>709.599976</ele>
        <time>2011-10-14T13:09:06Z</time>
      </trkpt>
      <trkpt lat="43.69314" lon="6.17121">
        <ele>710</ele>
        <time>2011-10-14T13:09:11Z</time>
      </trkpt>
      <trkpt lat="43.69318" lon="6.17126">
        <ele>710.299988</ele>
        <time>2011-10-14T13:09:16Z</time>
      </trkpt>
      <trkpt lat="43.69321" lon="6.1713">
        <ele>710.5</ele>
        <time>2011-10-14T13:09:21Z</time>
      </trkpt>
      <trkpt lat="43.69325" lon="6.17135">
        <ele>711.299988</ele>
        <time>2011-10-14T13:09:26Z</time>
      </trkpt>
      <trkpt lat="43.69328" lon="6.17141">
        <ele>711.799988</ele>
        <time>2011-10-14T13:09:31Z</time>
      </trkpt>
      <trkpt lat="43.69332" lon="6.17146">
        <ele>712.200012</ele>
        <time>2011-10-14T13:09:36Z</time>
      </trkpt>
      <trkpt lat="43.69332" lon="6.17147">
        <ele>712.299988</ele>
        <time>2011-10-14T13:09:37Z</time>
      </trkpt>
      <trkpt lat="43.69335" lon="6.17154">
        <ele>712.900024</ele>
        <time>2011-10-14T13:09:46Z</time>
      </trkpt>
      <trkpt lat="43.69333" lon="6.17153">
        <ele>712.799988</ele>
        <time>2011-10-14T13:09:51Z</time>
      </trkpt>
      <trkpt lat="43.69331" lon="6.17153">
        <ele>712.900024</ele>
        <time>2011-10-14T13:09:56Z</time>
      </trkpt>
      <trkpt lat="43.69332" lon="6.17155">
        <ele>712.900024</ele>
        <time>2011-10-14T13:10:01Z</time>
      </trkpt>
      <trkpt lat="43.69333" lon="6.17156">
        <ele>713.099976</ele>
        <time>2011-10-14T13:10:06Z</time>
      </trkpt>
      <trkpt lat="43.69334" lon="6.17161">
        <ele>713.5</ele>
        <time>2011-10-14T13:10:11Z</time>
      </trkpt>
      <trkpt lat="43.69336" lon="6.17165">
        <ele>713.700012</ele>
        <time>2011-10-14T13:10:16Z</time>
      </trkpt>
      <trkpt lat="43.69337" lon="6.17169">
        <ele>713.799988</ele>
        <time>2011-10-14T13:10:21Z</time>
      </trkpt>
      <trkpt lat="43.69339" lon="6.17172">
        <ele>714.299988</ele>
        <time>2011-10-14T13:10:26Z</time>
      </trkpt>
      <trkpt lat="43.69342" lon="6.17177">
        <ele>714.900024</ele>
        <time>2011-10-14T13:10:31Z</time>
      </trkpt>
      <trkpt lat="43.69343" lon="6.17182">
        <ele>715.799988</ele>
        <time>2011-10-14T13:10:36Z</time>
      </trkpt>
      <trkpt lat="43.69344" lon="6.17185">
        <ele>716.099976</ele>
        <time>2011-10-14T13:10:41Z</time>
      </trkpt>
      <trkpt lat="43.69344" lon="6.17186">
        <ele>716.099976</ele>
        <time>2011-10-14T13:10:42Z</time>
      </trkpt>
      <trkpt lat="43.69347" lon="6.17192">
        <ele>716.599976</ele>
        <time>2011-10-14T13:10:51Z</time>
      </trkpt>
      <trkpt lat="43.69349" lon="6.17196">
        <ele>716.599976</ele>
        <time>2011-10-14T13:10:56Z</time>
      </trkpt>
      <trkpt lat="43.6935" lon="6.17201">
        <ele>716.799988</ele>
        <time>2011-10-14T13:11:01Z</time>
      </trkpt>
      <trkpt lat="43.69352" lon="6.17207">
        <ele>717.299988</ele>
        <time>2011-10-14T13:11:06Z</time>
      </trkpt>
      <trkpt lat="43.69354" lon="6.17211">
        <ele>717.700012</ele>
        <time>2011-10-14T13:11:11Z</time>
      </trkpt>
      <trkpt lat="43.69357" lon="6.17214">
        <ele>718.200012</ele>
        <time>2011-10-14T13:11:16Z</time>
      </trkpt>
      <trkpt lat="43.69358" lon="6.17215">
        <ele>718.200012</ele>
        <time>2011-10-14T13:11:21Z</time>
      </trkpt>
      <trkpt lat="43.69359" lon="6.17213">
        <ele>719.299988</ele>
        <time>2011-10-14T13:11:26Z</time>
      </trkpt>
      <trkpt lat="43.69362" lon="6.17211">
        <ele>719.5</ele>
        <time>2011-10-14T13:11:31Z</time>
      </trkpt>
      <trkpt lat="43.69363" lon="6.1721">
        <ele>719.400024</ele>
        <time>2011-10-14T13:11:36Z</time>
      </trkpt>
      <trkpt lat="43.69365" lon="6.17206">
        <ele>720.200012</ele>
        <time>2011-10-14T13:11:41Z</time>
      </trkpt>
      <trkpt lat="43.69367" lon="6.17203">
        <ele>721.099976</ele>
        <time>2011-10-14T13:11:46Z</time>
      </trkpt>
      <trkpt lat="43.69367" lon="6.17202">
        <ele>721.099976</ele>
        <time>2011-10-14T13:11:47Z</time>
      </trkpt>
      <trkpt lat="43.69372" lon="6.17199">
        <ele>722.400024</ele>
        <time>2011-10-14T13:11:56Z</time>
      </trkpt>
      <trkpt lat="43.69375" lon="6.17198">
        <ele>723</ele>
        <time>2011-10-14T13:12:01Z</time>
      </trkpt>
      <trkpt lat="43.69379" lon="6.17196">
        <ele>723.700012</ele>
        <time>2011-10-14T13:12:06Z</time>
      </trkpt>
      <trkpt lat="43.69382" lon="6.17195">
        <ele>724.599976</ele>
        <time>2011-10-14T13:12:11Z</time>
      </trkpt>
      <trkpt lat="43.69385" lon="6.17194">
        <ele>725.200012</ele>
        <time>2011-10-14T13:12:16Z</time>
      </trkpt>
      <trkpt lat="43.69389" lon="6.17193">
        <ele>725.900024</ele>
        <time>2011-10-14T13:12:21Z</time>
      </trkpt>
      <trkpt lat="43.69392" lon="6.17191">
        <ele>726.599976</ele>
        <time>2011-10-14T13:12:26Z</time>
      </trkpt>
      <trkpt lat="43.69396" lon="6.17189">
        <ele>727</ele>
        <time>2011-10-14T13:12:31Z</time>
      </trkpt>
      <trkpt lat="43.694" lon="6.17187">
        <ele>727.900024</ele>
        <time>2011-10-14T13:12:36Z</time>
      </trkpt>
      <trkpt lat="43.69403" lon="6.17184">
        <ele>728.299988</ele>
        <time>2011-10-14T13:12:41Z</time>
      </trkpt>
      <trkpt lat="43.69405" lon="6.17181">
        <ele>728.700012</ele>
        <time>2011-10-14T13:12:46Z</time>
      </trkpt>
      <trkpt lat="43.69409" lon="6.17181">
        <ele>729.200012</ele>
        <time>2011-10-14T13:12:51Z</time>
      </trkpt>
      <trkpt lat="43.69409" lon="6.1718">
        <ele>729.299988</ele>
        <time>2011-10-14T13:12:52Z</time>
      </trkpt>
      <trkpt lat="43.69416" lon="6.17179">
        <ele>730.400024</ele>
        <time>2011-10-14T13:13:01Z</time>
      </trkpt>
      <trkpt lat="43.69417" lon="6.17178">
        <ele>730.400024</ele>
        <time>2011-10-14T13:13:06Z</time>
      </trkpt>
      <trkpt lat="43.6942" lon="6.17177">
        <ele>731</ele>
        <time>2011-10-14T13:13:11Z</time>
      </trkpt>
      <trkpt lat="43.69424" lon="6.17177">
        <ele>731.400024</ele>
        <time>2011-10-14T13:13:16Z</time>
      </trkpt>
      <trkpt lat="43.69427" lon="6.17176">
        <ele>732</ele>
        <time>2011-10-14T13:13:21Z</time>
      </trkpt>
      <trkpt lat="43.69431" lon="6.17175">
        <ele>732.5</ele>
        <time>2011-10-14T13:13:26Z</time>
      </trkpt>
      <trkpt lat="43.69435" lon="6.17174">
        <ele>732.400024</ele>
        <time>2011-10-14T13:13:31Z</time>
      </trkpt>
      <trkpt lat="43.69438" lon="6.17174">
        <ele>733.200012</ele>
        <time>2011-10-14T13:13:36Z</time>
      </trkpt>
      <trkpt lat="43.69441" lon="6.17176">
        <ele>733.900024</ele>
        <time>2011-10-14T13:13:41Z</time>
      </trkpt>
      <trkpt lat="43.69444" lon="6.17179">
        <ele>734.400024</ele>
        <time>2011-10-14T13:13:46Z</time>
      </trkpt>
      <trkpt lat="43.69448" lon="6.17182">
        <ele>735.200012</ele>
        <time>2011-10-14T13:13:51Z</time>
      </trkpt>
      <trkpt lat="43.6945" lon="6.17184">
        <ele>735.5</ele>
        <time>2011-10-14T13:13:56Z</time>
      </trkpt>
      <trkpt lat="43.69451" lon="6.17184">
        <ele>735.799988</ele>
        <time>2011-10-14T13:13:57Z</time>
      </trkpt>
      <trkpt lat="43.69456" lon="6.17192">
        <ele>736.400024</ele>
        <time>2011-10-14T13:14:06Z</time>
      </trkpt>
      <trkpt lat="43.6946" lon="6.17195">
        <ele>737.5</ele>
        <time>2011-10-14T13:14:11Z</time>
      </trkpt>
      <trkpt lat="43.69462" lon="6.17198">
        <ele>737.799988</ele>
        <time>2011-10-14T13:14:16Z</time>
      </trkpt>
      <trkpt lat="43.69466" lon="6.17203">
        <ele>738.299988</ele>
        <time>2011-10-14T13:14:21Z</time>
      </trkpt>
      <trkpt lat="43.69468" lon="6.17207">
        <ele>739</ele>
        <time>2011-10-14T13:14:26Z</time>
      </trkpt>
      <trkpt lat="43.6947" lon="6.17212">
        <ele>739.700012</ele>
        <time>2011-10-14T13:14:31Z</time>
      </trkpt>
      <trkpt lat="43.69471" lon="6.17218">
        <ele>740.099976</ele>
        <time>2011-10-14T13:14:36Z</time>
      </trkpt>
      <trkpt lat="43.69471" lon="6.17222">
        <ele>740.400024</ele>
        <time>2011-10-14T13:14:41Z</time>
      </trkpt>
      <trkpt lat="43.69472" lon="6.17227">
        <ele>740.700012</ele>
        <time>2011-10-14T13:14:46Z</time>
      </trkpt>
      <trkpt lat="43.69472" lon="6.17231">
        <ele>741.5</ele>
        <time>2011-10-14T13:14:51Z</time>
      </trkpt>
      <trkpt lat="43.69474" lon="6.17235">
        <ele>741.799988</ele>
        <time>2011-10-14T13:14:56Z</time>
      </trkpt>
      <trkpt lat="43.69476" lon="6.1724">
        <ele>743.099976</ele>
        <time>2011-10-14T13:15:01Z</time>
      </trkpt>
      <trkpt lat="43.69476" lon="6.17241">
        <ele>743.299988</ele>
        <time>2011-10-14T13:15:02Z</time>
      </trkpt>
      <trkpt lat="43.69475" lon="6.17251">
        <ele>744.099976</ele>
        <time>2011-10-14T13:15:11Z</time>
      </trkpt>
      <trkpt lat="43.69474" lon="6.17256">
        <ele>744.400024</ele>
        <time>2011-10-14T13:15:16Z</time>
      </trkpt>
      <trkpt lat="43.69474" lon="6.1726">
        <ele>744.599976</ele>
        <time>2011-10-14T13:15:21Z</time>
      </trkpt>
      <trkpt lat="43.69474" lon="6.17265">
        <ele>745</ele>
        <time>2011-10-14T13:15:26Z</time>
      </trkpt>
      <trkpt lat="43.69473" lon="6.1727">
        <ele>745.5</ele>
        <time>2011-10-14T13:15:31Z</time>
      </trkpt>
      <trkpt lat="43.69472" lon="6.17275">
        <ele>746</ele>
        <time>2011-10-14T13:15:36Z</time>
      </trkpt>
      <trkpt lat="43.69472" lon="6.17279">
        <ele>746.5</ele>
        <time>2011-10-14T13:15:41Z</time>
      </trkpt>
      <trkpt lat="43.69473" lon="6.17284">
        <ele>746.799988</ele>
        <time>2011-10-14T13:15:46Z</time>
      </trkpt>
      <trkpt lat="43.69474" lon="6.17289">
        <ele>747.200012</ele>
        <time>2011-10-14T13:15:51Z</time>
      </trkpt>
      <trkpt lat="43.69475" lon="6.17293">
        <ele>748.299988</ele>
        <time>2011-10-14T13:15:56Z</time>
      </trkpt>
      <trkpt lat="43.69476" lon="6.17298">
        <ele>748.5</ele>
        <time>2011-10-14T13:16:01Z</time>
      </trkpt>
      <trkpt lat="43.69477" lon="6.17302">
        <ele>749.099976</ele>
        <time>2011-10-14T13:16:06Z</time>
      </trkpt>
      <trkpt lat="43.69477" lon="6.17303">
        <ele>749.299988</ele>
        <time>2011-10-14T13:16:07Z</time>
      </trkpt>
      <trkpt lat="43.69477" lon="6.17312">
        <ele>750.099976</ele>
        <time>2011-10-14T13:16:16Z</time>
      </trkpt>
      <trkpt lat="43.69477" lon="6.17317">
        <ele>750.400024</ele>
        <time>2011-10-14T13:16:21Z</time>
      </trkpt>
      <trkpt lat="43.69478" lon="6.17321">
        <ele>750.900024</ele>
        <time>2011-10-14T13:16:26Z</time>
      </trkpt>
      <trkpt lat="43.69479" lon="6.17326">
        <ele>751.400024</ele>
        <time>2011-10-14T13:16:31Z</time>
      </trkpt>
      <trkpt lat="43.69481" lon="6.17329">
        <ele>752</ele>
        <time>2011-10-14T13:16:36Z</time>
      </trkpt>
      <trkpt lat="43.69483" lon="6.17332">
        <ele>752.599976</ele>
        <time>2011-10-14T13:16:41Z</time>
      </trkpt>
      <trkpt lat="43.69484" lon="6.17334">
        <ele>753.299988</ele>
        <time>2011-10-14T13:16:46Z</time>
      </trkpt>
      <trkpt lat="43.69487" lon="6.17337">
        <ele>753.799988</ele>
        <time>2011-10-14T13:16:51Z</time>
      </trkpt>
      <trkpt lat="43.69489" lon="6.17339">
        <ele>754.700012</ele>
        <time>2011-10-14T13:16:56Z</time>
      </trkpt>
      <trkpt lat="43.69492" lon="6.17343">
        <ele>755</ele>
        <time>2011-10-14T13:17:01Z</time>
      </trkpt>
      <trkpt lat="43.69494" lon="6.17347">
        <ele>755.400024</ele>
        <time>2011-10-14T13:17:06Z</time>
      </trkpt>
      <trkpt lat="43.69495" lon="6.17349">
        <ele>756.299988</ele>
        <time>2011-10-14T13:17:11Z</time>
      </trkpt>
      <trkpt lat="43.69496" lon="6.1735">
        <ele>756.5</ele>
        <time>2011-10-14T13:17:12Z</time>
      </trkpt>
      <trkpt lat="43.695" lon="6.17356">
        <ele>757.799988</ele>
        <time>2011-10-14T13:17:21Z</time>
      </trkpt>
      <trkpt lat="43.69502" lon="6.1736">
        <ele>758.200012</ele>
        <time>2011-10-14T13:17:26Z</time>
      </trkpt>
      <trkpt lat="43.69504" lon="6.17364">
        <ele>758.700012</ele>
        <time>2011-10-14T13:17:31Z</time>
      </trkpt>
      <trkpt lat="43.69505" lon="6.17366">
        <ele>759.099976</ele>
        <time>2011-10-14T13:17:36Z</time>
      </trkpt>
      <trkpt lat="43.69505" lon="6.17368">
        <ele>759.700012</ele>
        <time>2011-10-14T13:17:41Z</time>
      </trkpt>
      <trkpt lat="43.69506" lon="6.1737">
        <ele>760</ele>
        <time>2011-10-14T13:17:46Z</time>
      </trkpt>
      <trkpt lat="43.69507" lon="6.17372">
        <ele>760</ele>
        <time>2011-10-14T13:17:51Z</time>
      </trkpt>
      <trkpt lat="43.69509" lon="6.17374">
        <ele>760.400024</ele>
        <time>2011-10-14T13:17:56Z</time>
      </trkpt>
      <trkpt lat="43.69512" lon="6.17376">
        <ele>760</ele>
        <time>2011-10-14T13:18:01Z</time>
      </trkpt>
      <trkpt lat="43.69513" lon="6.1738">
        <ele>760</ele>
        <time>2011-10-14T13:18:06Z</time>
      </trkpt>
      <trkpt lat="43.69516" lon="6.17384">
        <ele>760.5</ele>
        <time>2011-10-14T13:18:11Z</time>
      </trkpt>
      <trkpt lat="43.69519" lon="6.17388">
        <ele>761.099976</ele>
        <time>2011-10-14T13:18:16Z</time>
      </trkpt>
      <trkpt lat="43.69519" lon="6.17388">
        <ele>761.099976</ele>
        <time>2011-10-14T13:18:17Z</time>
      </trkpt>
      <trkpt lat="43.69523" lon="6.17395">
        <ele>762.299988</ele>
        <time>2011-10-14T13:18:26Z</time>
      </trkpt>
      <trkpt lat="43.69525" lon="6.17398">
        <ele>762.700012</ele>
        <time>2011-10-14T13:18:31Z</time>
      </trkpt>
      <trkpt lat="43.69527" lon="6.17401">
        <ele>763.400024</ele>
        <time>2011-10-14T13:18:36Z</time>
      </trkpt>
      <trkpt lat="43.6953" lon="6.17404">
        <ele>764.200012</ele>
        <time>2011-10-14T13:18:41Z</time>
      </trkpt>
      <trkpt lat="43.69532" lon="6.17407">
        <ele>764.900024</ele>
        <time>2011-10-14T13:18:46Z</time>
      </trkpt>
      <trkpt lat="43.69534" lon="6.17408">
        <ele>764.799988</ele>
        <time>2011-10-14T13:18:51Z</time>
      </trkpt>
      <trkpt lat="43.69534" lon="6.17409">
        <ele>765.299988</ele>
        <time>2011-10-14T13:18:56Z</time>
      </trkpt>
      <trkpt lat="43.69534" lon="6.17409">
        <ele>766</ele>
        <time>2011-10-14T13:19:01Z</time>
      </trkpt>
      <trkpt lat="43.69534" lon="6.17409">
        <ele>765.700012</ele>
        <time>2011-10-14T13:19:06Z</time>
      </trkpt>
      <trkpt lat="43.69534" lon="6.17409">
        <ele>765.5</ele>
        <time>2011-10-14T13:19:11Z</time>
      </trkpt>
      <trkpt lat="43.69534" lon="6.1741">
        <ele>765.299988</ele>
        <time>2011-10-14T13:19:16Z</time>
      </trkpt>
      <trkpt lat="43.69534" lon="6.1741">
        <ele>765.400024</ele>
        <time>2011-10-14T13:19:21Z</time>
      </trkpt>
      <trkpt lat="43.69534" lon="6.1741">
        <ele>765.299988</ele>
        <time>2011-10-14T13:19:22Z</time>
      </trkpt>
      <trkpt lat="43.69534" lon="6.17412">
        <ele>765.799988</ele>
        <time>2011-10-14T13:19:31Z</time>
      </trkpt>
      <trkpt lat="43.69534" lon="6.17413">
        <ele>765.700012</ele>
        <time>2011-10-14T13:19:36Z</time>
      </trkpt>
      <trkpt lat="43.69534" lon="6.17414">
        <ele>765.299988</ele>
        <time>2011-10-14T13:19:41Z</time>
      </trkpt>
      <trkpt lat="43.69534" lon="6.17413">
        <ele>765.700012</ele>
        <time>2011-10-14T13:19:46Z</time>
      </trkpt>
      <trkpt lat="43.69533" lon="6.17414">
        <ele>765.599976</ele>
        <time>2011-10-14T13:19:51Z</time>
      </trkpt>
      <trkpt lat="43.69533" lon="6.17414">
        <ele>765.200012</ele>
        <time>2011-10-14T13:19:56Z</time>
      </trkpt>
      <trkpt lat="43.69533" lon="6.17413">
        <ele>765.599976</ele>
        <time>2011-10-14T13:20:01Z</time>
      </trkpt>
      <trkpt lat="43.69533" lon="6.17412">
        <ele>765.299988</ele>
        <time>2011-10-14T13:20:06Z</time>
      </trkpt>
      <trkpt lat="43.69533" lon="6.17412">
        <ele>765.200012</ele>
        <time>2011-10-14T13:20:11Z</time>
      </trkpt>
      <trkpt lat="43.69533" lon="6.17412">
        <ele>765.299988</ele>
        <time>2011-10-14T13:20:16Z</time>
      </trkpt>
      <trkpt lat="43.69532" lon="6.17412">
        <ele>765.599976</ele>
        <time>2011-10-14T13:20:21Z</time>
      </trkpt>
      <trkpt lat="43.69532" lon="6.17412">
        <ele>765.599976</ele>
        <time>2011-10-14T13:20:26Z</time>
      </trkpt>
      <trkpt lat="43.69532" lon="6.17412">
        <ele>765.400024</ele>
        <time>2011-10-14T13:20:27Z</time>
      </trkpt>
      <trkpt lat="43.69533" lon="6.17412">
        <ele>765.099976</ele>
        <time>2011-10-14T13:20:36Z</time>
      </trkpt>
      <trkpt lat="43.69533" lon="6.17413">
        <ele>765</ele>
        <time>2011-10-14T13:20:41Z</time>
      </trkpt>
      <trkpt lat="43.69532" lon="6.17413">
        <ele>765.099976</ele>
        <time>2011-10-14T13:20:46Z</time>
      </trkpt>
      <trkpt lat="43.69533" lon="6.17413">
        <ele>765.200012</ele>
        <time>2011-10-14T13:20:51Z</time>
      </trkpt>
      <trkpt lat="43.69533" lon="6.17414">
        <ele>765.400024</ele>
        <time>2011-10-14T13:20:56Z</time>
      </trkpt>
      <trkpt lat="43.69533" lon="6.17413">
        <ele>765.5</ele>
        <time>2011-10-14T13:21:01Z</time>
      </trkpt>
      <trkpt lat="43.69532" lon="6.17414">
        <ele>765</ele>
        <time>2011-10-14T13:21:06Z</time>
      </trkpt>
      <trkpt lat="43.69533" lon="6.17414">
        <ele>764.900024</ele>
        <time>2011-10-14T13:21:11Z</time>
      </trkpt>
      <trkpt lat="43.69532" lon="6.17413">
        <ele>765.099976</ele>
        <time>2011-10-14T13:21:16Z</time>
      </trkpt>
      <trkpt lat="43.69532" lon="6.17413">
        <ele>765.299988</ele>
        <time>2011-10-14T13:21:21Z</time>
      </trkpt>
      <trkpt lat="43.69531" lon="6.17412">
        <ele>765.299988</ele>
        <time>2011-10-14T13:21:26Z</time>
      </trkpt>
      <trkpt lat="43.69532" lon="6.17412">
        <ele>765.200012</ele>
        <time>2011-10-14T13:21:31Z</time>
      </trkpt>
      <trkpt lat="43.69533" lon="6.17411">
        <ele>765.099976</ele>
        <time>2011-10-14T13:21:32Z</time>
      </trkpt>
      <trkpt lat="43.69535" lon="6.17412">
        <ele>765.400024</ele>
        <time>2011-10-14T13:21:41Z</time>
      </trkpt>
      <trkpt lat="43.69536" lon="6.17413">
        <ele>765.5</ele>
        <time>2011-10-14T13:21:46Z</time>
      </trkpt>
      <trkpt lat="43.69536" lon="6.17412">
        <ele>765.400024</ele>
        <time>2011-10-14T13:21:51Z</time>
      </trkpt>
      <trkpt lat="43.69536" lon="6.17413">
        <ele>765.299988</ele>
        <time>2011-10-14T13:21:56Z</time>
      </trkpt>
      <trkpt lat="43.69536" lon="6.17413">
        <ele>765.200012</ele>
        <time>2011-10-14T13:22:01Z</time>
      </trkpt>
      <trkpt lat="43.69536" lon="6.17413">
        <ele>765.799988</ele>
        <time>2011-10-14T13:22:06Z</time>
      </trkpt>
      <trkpt lat="43.69537" lon="6.17413">
        <ele>766.299988</ele>
        <time>2011-10-14T13:22:11Z</time>
      </trkpt>
      <trkpt lat="43.69537" lon="6.17413">
        <ele>766.099976</ele>
        <time>2011-10-14T13:22:16Z</time>
      </trkpt>
      <trkpt lat="43.69537" lon="6.17413">
        <ele>766.200012</ele>
        <time>2011-10-14T13:22:21Z</time>
      </trkpt>
      <trkpt lat="43.69537" lon="6.17413">
        <ele>765.799988</ele>
        <time>2011-10-14T13:22:26Z</time>
      </trkpt>
      <trkpt lat="43.69536" lon="6.17413">
        <ele>766.200012</ele>
        <time>2011-10-14T13:22:31Z</time>
      </trkpt>
      <trkpt lat="43.69537" lon="6.17413">
        <ele>766.099976</ele>
        <time>2011-10-14T13:22:36Z</time>
      </trkpt>
      <trkpt lat="43.69537" lon="6.17413">
        <ele>766.200012</ele>
        <time>2011-10-14T13:22:37Z</time>
      </trkpt>
      <trkpt lat="43.69539" lon="6.17414">
        <ele>766.200012</ele>
        <time>2011-10-14T13:22:46Z</time>
      </trkpt>
      <trkpt lat="43.6954" lon="6.17414">
        <ele>766.5</ele>
        <time>2011-10-14T13:22:51Z</time>
      </trkpt>
      <trkpt lat="43.69541" lon="6.17414">
        <ele>766.599976</ele>
        <time>2011-10-14T13:22:56Z</time>
      </trkpt>
      <trkpt lat="43.69543" lon="6.17415">
        <ele>766.900024</ele>
        <time>2011-10-14T13:23:01Z</time>
      </trkpt>
      <trkpt lat="43.69544" lon="6.17415">
        <ele>767.200012</ele>
        <time>2011-10-14T13:23:06Z</time>
      </trkpt>
      <trkpt lat="43.69547" lon="6.17416">
        <ele>767.5</ele>
        <time>2011-10-14T13:23:11Z</time>
      </trkpt>
      <trkpt lat="43.69548" lon="6.17417">
        <ele>767.700012</ele>
        <time>2011-10-14T13:23:16Z</time>
      </trkpt>
      <trkpt lat="43.69549" lon="6.17418">
        <ele>768.099976</ele>
        <time>2011-10-14T13:23:21Z</time>
      </trkpt>
      <trkpt lat="43.69549" lon="6.17418">
        <ele>767.900024</ele>
        <time>2011-10-14T13:23:26Z</time>
      </trkpt>
      <trkpt lat="43.69549" lon="6.17418">
        <ele>766.900024</ele>
        <time>2011-10-14T13:23:31Z</time>
      </trkpt>
      <trkpt lat="43.69549" lon="6.17417">
        <ele>766.700012</ele>
        <time>2011-10-14T13:23:36Z</time>
      </trkpt>
      <trkpt lat="43.69549" lon="6.17417">
        <ele>766.700012</ele>
        <time>2011-10-14T13:23:41Z</time>
      </trkpt>
      <trkpt lat="43.69549" lon="6.17417">
        <ele>766.700012</ele>
        <time>2011-10-14T13:23:42Z</time>
      </trkpt>
      <trkpt lat="43.69548" lon="6.17418">
        <ele>766.799988</ele>
        <time>2011-10-14T13:23:51Z</time>
      </trkpt>
      <trkpt lat="43.69548" lon="6.17417">
        <ele>766.400024</ele>
        <time>2011-10-14T13:23:56Z</time>
      </trkpt>
      <trkpt lat="43.69548" lon="6.17418">
        <ele>766.400024</ele>
        <time>2011-10-14T13:24:01Z</time>
      </trkpt>
      <trkpt lat="43.69548" lon="6.17419">
        <ele>766.5</ele>
        <time>2011-10-14T13:24:06Z</time>
      </trkpt>
      <trkpt lat="43.6955" lon="6.17422">
        <ele>766.400024</ele>
        <time>2011-10-14T13:24:11Z</time>
      </trkpt>
      <trkpt lat="43.69551" lon="6.17424">
        <ele>766.599976</ele>
        <time>2011-10-14T13:24:16Z</time>
      </trkpt>
      <trkpt lat="43.69551" lon="6.17428">
        <ele>766.900024</ele>
        <time>2011-10-14T13:24:21Z</time>
      </trkpt>
      <trkpt lat="43.69551" lon="6.17431">
        <ele>767.700012</ele>
        <time>2011-10-14T13:24:26Z</time>
      </trkpt>
      <trkpt lat="43.69552" lon="6.17435">
        <ele>768.200012</ele>
        <time>2011-10-14T13:24:31Z</time>
      </trkpt>
      <trkpt lat="43.69554" lon="6.17438">
        <ele>768.400024</ele>
        <time>2011-10-14T13:24:36Z</time>
      </trkpt>
      <trkpt lat="43.69555" lon="6.17442">
        <ele>768.700012</ele>
        <time>2011-10-14T13:24:41Z</time>
      </trkpt>
      <trkpt lat="43.69554" lon="6.17446">
        <ele>769.099976</ele>
        <time>2011-10-14T13:24:46Z</time>
      </trkpt>
      <trkpt lat="43.69553" lon="6.17446">
        <ele>769.099976</ele>
        <time>2011-10-14T13:24:47Z</time>
      </trkpt>
      <trkpt lat="43.69552" lon="6.17455">
        <ele>769.700012</ele>
        <time>2011-10-14T13:24:56Z</time>
      </trkpt>
      <trkpt lat="43.69551" lon="6.17459">
        <ele>769.900024</ele>
        <time>2011-10-14T13:25:01Z</time>
      </trkpt>
      <trkpt lat="43.6955" lon="6.17464">
        <ele>770.400024</ele>
        <time>2011-10-14T13:25:06Z</time>
      </trkpt>
      <trkpt lat="43.6955" lon="6.17469">
        <ele>770.299988</ele>
        <time>2011-10-14T13:25:11Z</time>
      </trkpt>
      <trkpt lat="43.69549" lon="6.17475">
        <ele>770.700012</ele>
        <time>2011-10-14T13:25:16Z</time>
      </trkpt>
      <trkpt lat="43.69549" lon="6.1748">
        <ele>770.900024</ele>
        <time>2011-10-14T13:25:21Z</time>
      </trkpt>
      <trkpt lat="43.69551" lon="6.17485">
        <ele>771.299988</ele>
        <time>2011-10-14T13:25:26Z</time>
      </trkpt>
      <trkpt lat="43.69553" lon="6.17488">
        <ele>771.900024</ele>
        <time>2011-10-14T13:25:31Z</time>
      </trkpt>
      <trkpt lat="43.69556" lon="6.17493">
        <ele>772.400024</ele>
        <time>2011-10-14T13:25:36Z</time>
      </trkpt>
      <trkpt lat="43.69558" lon="6.17497">
        <ele>772.900024</ele>
        <time>2011-10-14T13:25:41Z</time>
      </trkpt>
      <trkpt lat="43.6956" lon="6.175">
        <ele>773.400024</ele>
        <time>2011-10-14T13:25:46Z</time>
      </trkpt>
      <trkpt lat="43.69562" lon="6.17503">
        <ele>773.5</ele>
        <time>2011-10-14T13:25:51Z</time>
      </trkpt>
      <trkpt lat="43.69562" lon="6.17503">
        <ele>773.700012</ele>
        <time>2011-10-14T13:25:52Z</time>
      </trkpt>
      <trkpt lat="43.69566" lon="6.17507">
        <ele>774.700012</ele>
        <time>2011-10-14T13:26:01Z</time>
      </trkpt>
      <trkpt lat="43.69567" lon="6.17508">
        <ele>774.599976</ele>
        <time>2011-10-14T13:26:06Z</time>
      </trkpt>
      <trkpt lat="43.69567" lon="6.17508">
        <ele>775</ele>
        <time>2011-10-14T13:26:11Z</time>
      </trkpt>
      <trkpt lat="43.69567" lon="6.17508">
        <ele>774.799988</ele>
        <time>2011-10-14T13:26:16Z</time>
      </trkpt>
      <trkpt lat="43.69567" lon="6.17508">
        <ele>774.799988</ele>
        <time>2011-10-14T13:26:21Z</time>
      </trkpt>
      <trkpt lat="43.69566" lon="6.17508">
        <ele>774.400024</ele>
        <time>2011-10-14T13:26:26Z</time>
      </trkpt>
      <trkpt lat="43.69566" lon="6.17509">
        <ele>774.799988</ele>
        <time>2011-10-14T13:26:31Z</time>
      </trkpt>
      <trkpt lat="43.69566" lon="6.17509">
        <ele>774.599976</ele>
        <time>2011-10-14T13:26:36Z</time>
      </trkpt>
      <trkpt lat="43.69566" lon="6.17509">
        <ele>774.5</ele>
        <time>2011-10-14T13:26:41Z</time>
      </trkpt>
      <trkpt lat="43.69566" lon="6.1751">
        <ele>774.599976</ele>
        <time>2011-10-14T13:26:46Z</time>
      </trkpt>
      <trkpt lat="43.69569" lon="6.17514">
        <ele>774.400024</ele>
        <time>2011-10-14T13:26:51Z</time>
      </trkpt>
      <trkpt lat="43.6957" lon="6.17519">
        <ele>774.900024</ele>
        <time>2011-10-14T13:26:56Z</time>
      </trkpt>
      <trkpt lat="43.6957" lon="6.1752">
        <ele>774.900024</ele>
        <time>2011-10-14T13:26:57Z</time>
      </trkpt>
      <trkpt lat="43.6957" lon="6.17529">
        <ele>776.200012</ele>
        <time>2011-10-14T13:27:06Z</time>
      </trkpt>
      <trkpt lat="43.69569" lon="6.17534">
        <ele>776.5</ele>
        <time>2011-10-14T13:27:11Z</time>
      </trkpt>
      <trkpt lat="43.6957" lon="6.1754">
        <ele>776.799988</ele>
        <time>2011-10-14T13:27:16Z</time>
      </trkpt>
      <trkpt lat="43.69569" lon="6.17545">
        <ele>777.299988</ele>
        <time>2011-10-14T13:27:21Z</time>
      </trkpt>
      <trkpt lat="43.69569" lon="6.1755">
        <ele>777.799988</ele>
        <time>2011-10-14T13:27:26Z</time>
      </trkpt>
      <trkpt lat="43.69568" lon="6.17554">
        <ele>778</ele>
        <time>2011-10-14T13:27:31Z</time>
      </trkpt>
      <trkpt lat="43.69567" lon="6.17559">
        <ele>778.599976</ele>
        <time>2011-10-14T13:27:36Z</time>
      </trkpt>
      <trkpt lat="43.69567" lon="6.17564">
        <ele>778.900024</ele>
        <time>2011-10-14T13:27:41Z</time>
      </trkpt>
      <trkpt lat="43.69567" lon="6.17568">
        <ele>779.299988</ele>
        <time>2011-10-14T13:27:46Z</time>
      </trkpt>
      <trkpt lat="43.69567" lon="6.17573">
        <ele>780</ele>
        <time>2011-10-14T13:27:51Z</time>
      </trkpt>
      <trkpt lat="43.69567" lon="6.17578">
        <ele>780.299988</ele>
        <time>2011-10-14T13:27:56Z</time>
      </trkpt>
      <trkpt lat="43.69568" lon="6.17583">
        <ele>780.400024</ele>
        <time>2011-10-14T13:28:01Z</time>
      </trkpt>
      <trkpt lat="43.69568" lon="6.17584">
        <ele>780.5</ele>
        <time>2011-10-14T13:28:02Z</time>
      </trkpt>
      <trkpt lat="43.69568" lon="6.17593">
        <ele>781.5</ele>
        <time>2011-10-14T13:28:11Z</time>
      </trkpt>
      <trkpt lat="43.69567" lon="6.17598">
        <ele>781.900024</ele>
        <time>2011-10-14T13:28:16Z</time>
      </trkpt>
      <trkpt lat="43.69566" lon="6.17603">
        <ele>782.700012</ele>
        <time>2011-10-14T13:28:21Z</time>
      </trkpt>
      <trkpt lat="43.69565" lon="6.17607">
        <ele>783.099976</ele>
        <time>2011-10-14T13:28:26Z</time>
      </trkpt>
      <trkpt lat="43.69565" lon="6.17612">
        <ele>783</ele>
        <time>2011-10-14T13:28:31Z</time>
      </trkpt>
      <trkpt lat="43.69564" lon="6.17617">
        <ele>783.700012</ele>
        <time>2011-10-14T13:28:36Z</time>
      </trkpt>
      <trkpt lat="43.69565" lon="6.17622">
        <ele>784.099976</ele>
        <time>2011-10-14T13:28:41Z</time>
      </trkpt>
      <trkpt lat="43.69564" lon="6.17627">
        <ele>784.700012</ele>
        <time>2011-10-14T13:28:46Z</time>
      </trkpt>
      <trkpt lat="43.69562" lon="6.17631">
        <ele>784.900024</ele>
        <time>2011-10-14T13:28:51Z</time>
      </trkpt>
      <trkpt lat="43.69559" lon="6.17635">
        <ele>785.099976</ele>
        <time>2011-10-14T13:28:56Z</time>
      </trkpt>
      <trkpt lat="43.69558" lon="6.17641">
        <ele>785.299988</ele>
        <time>2011-10-14T13:29:01Z</time>
      </trkpt>
      <trkpt lat="43.69557" lon="6.17646">
        <ele>785.5</ele>
        <time>2011-10-14T13:29:06Z</time>
      </trkpt>
      <trkpt lat="43.69556" lon="6.17647">
        <ele>785.700012</ele>
        <time>2011-10-14T13:29:07Z</time>
      </trkpt>
      <trkpt lat="43.69553" lon="6.17656">
        <ele>786.700012</ele>
        <time>2011-10-14T13:29:16Z</time>
      </trkpt>
      <trkpt lat="43.69552" lon="6.1766">
        <ele>787</ele>
        <time>2011-10-14T13:29:21Z</time>
      </trkpt>
      <trkpt lat="43.69551" lon="6.17665">
        <ele>787.200012</ele>
        <time>2011-10-14T13:29:26Z</time>
      </trkpt>
      <trkpt lat="43.69549" lon="6.1767">
        <ele>787.400024</ele>
        <time>2011-10-14T13:29:31Z</time>
      </trkpt>
      <trkpt lat="43.69548" lon="6.17676">
        <ele>787.900024</ele>
        <time>2011-10-14T13:29:36Z</time>
      </trkpt>
      <trkpt lat="43.69547" lon="6.17681">
        <ele>788.200012</ele>
        <time>2011-10-14T13:29:41Z</time>
      </trkpt>
      <trkpt lat="43.69547" lon="6.17687">
        <ele>788.700012</ele>
        <time>2011-10-14T13:29:46Z</time>
      </trkpt>
      <trkpt lat="43.69547" lon="6.17692">
        <ele>789.099976</ele>
        <time>2011-10-14T13:29:51Z</time>
      </trkpt>
      <trkpt lat="43.69547" lon="6.17698">
        <ele>789.200012</ele>
        <time>2011-10-14T13:29:56Z</time>
      </trkpt>
      <trkpt lat="43.69546" lon="6.17703">
        <ele>789.299988</ele>
        <time>2011-10-14T13:30:01Z</time>
      </trkpt>
      <trkpt lat="43.69545" lon="6.1771">
        <ele>789.599976</ele>
        <time>2011-10-14T13:30:06Z</time>
      </trkpt>
      <trkpt lat="43.69544" lon="6.17715">
        <ele>790.200012</ele>
        <time>2011-10-14T13:30:11Z</time>
      </trkpt>
      <trkpt lat="43.69543" lon="6.17716">
        <ele>790.200012</ele>
        <time>2011-10-14T13:30:12Z</time>
      </trkpt>
      <trkpt lat="43.69539" lon="6.17724">
        <ele>790.200012</ele>
        <time>2011-10-14T13:30:21Z</time>
      </trkpt>
      <trkpt lat="43.69535" lon="6.17727">
        <ele>790</ele>
        <time>2011-10-14T13:30:26Z</time>
      </trkpt>
      <trkpt lat="43.69532" lon="6.1773">
        <ele>790.400024</ele>
        <time>2011-10-14T13:30:31Z</time>
      </trkpt>
      <trkpt lat="43.69528" lon="6.17733">
        <ele>790.599976</ele>
        <time>2011-10-14T13:30:36Z</time>
      </trkpt>
      <trkpt lat="43.69524" lon="6.17736">
        <ele>790.799988</ele>
        <time>2011-10-14T13:30:41Z</time>
      </trkpt>
      <trkpt lat="43.6952" lon="6.17738">
        <ele>791.5</ele>
        <time>2011-10-14T13:30:46Z</time>
      </trkpt>
      <trkpt lat="43.69516" lon="6.1774">
        <ele>791.5</ele>
        <time>2011-10-14T13:30:51Z</time>
      </trkpt>
      <trkpt lat="43.69512" lon="6.17744">
        <ele>791.299988</ele>
        <time>2011-10-14T13:30:56Z</time>
      </trkpt>
      <trkpt lat="43.69509" lon="6.17748">
        <ele>791.5</ele>
        <time>2011-10-14T13:31:01Z</time>
      </trkpt>
      <trkpt lat="43.69506" lon="6.17752">
        <ele>792.200012</ele>
        <time>2011-10-14T13:31:06Z</time>
      </trkpt>
      <trkpt lat="43.69502" lon="6.17756">
        <ele>791.900024</ele>
        <time>2011-10-14T13:31:11Z</time>
      </trkpt>
      <trkpt lat="43.695" lon="6.1776">
        <ele>792.299988</ele>
        <time>2011-10-14T13:31:16Z</time>
      </trkpt>
      <trkpt lat="43.69499" lon="6.17761">
        <ele>792.200012</ele>
        <time>2011-10-14T13:31:17Z</time>
      </trkpt>
      <trkpt lat="43.69495" lon="6.1777">
        <ele>792.599976</ele>
        <time>2011-10-14T13:31:26Z</time>
      </trkpt>
      <trkpt lat="43.69492" lon="6.17773">
        <ele>792.799988</ele>
        <time>2011-10-14T13:31:31Z</time>
      </trkpt>
      <trkpt lat="43.69488" lon="6.17777">
        <ele>793</ele>
        <time>2011-10-14T13:31:36Z</time>
      </trkpt>
      <trkpt lat="43.69485" lon="6.17781">
        <ele>793.700012</ele>
        <time>2011-10-14T13:31:41Z</time>
      </trkpt>
      <trkpt lat="43.69481" lon="6.17784">
        <ele>793.900024</ele>
        <time>2011-10-14T13:31:46Z</time>
      </trkpt>
      <trkpt lat="43.69478" lon="6.17787">
        <ele>794.200012</ele>
        <time>2011-10-14T13:31:51Z</time>
      </trkpt>
      <trkpt lat="43.69474" lon="6.1779">
        <ele>794.299988</ele>
        <time>2011-10-14T13:31:56Z</time>
      </trkpt>
      <trkpt lat="43.6947" lon="6.17793">
        <ele>794.599976</ele>
        <time>2011-10-14T13:32:01Z</time>
      </trkpt>
      <trkpt lat="43.69466" lon="6.17796">
        <ele>795.099976</ele>
        <time>2011-10-14T13:32:06Z</time>
      </trkpt>
      <trkpt lat="43.69466" lon="6.17801">
        <ele>795.5</ele>
        <time>2011-10-14T13:32:11Z</time>
      </trkpt>
      <trkpt lat="43.69467" lon="6.17806">
        <ele>795.700012</ele>
        <time>2011-10-14T13:32:16Z</time>
      </trkpt>
      <trkpt lat="43.69467" lon="6.17812">
        <ele>795.900024</ele>
        <time>2011-10-14T13:32:21Z</time>
      </trkpt>
      <trkpt lat="43.69466" lon="6.17813">
        <ele>795.900024</ele>
        <time>2011-10-14T13:32:22Z</time>
      </trkpt>
      <trkpt lat="43.69461" lon="6.17821">
        <ele>796.599976</ele>
        <time>2011-10-14T13:32:31Z</time>
      </trkpt>
      <trkpt lat="43.69459" lon="6.17825">
        <ele>796.799988</ele>
        <time>2011-10-14T13:32:36Z</time>
      </trkpt>
      <trkpt lat="43.69456" lon="6.17828">
        <ele>797</ele>
        <time>2011-10-14T13:32:41Z</time>
      </trkpt>
      <trkpt lat="43.69456" lon="6.1783">
        <ele>797.299988</ele>
        <time>2011-10-14T13:32:46Z</time>
      </trkpt>
      <trkpt lat="43.69455" lon="6.17831">
        <ele>797.200012</ele>
        <time>2011-10-14T13:32:51Z</time>
      </trkpt>
      <trkpt lat="43.69454" lon="6.17832">
        <ele>797.5</ele>
        <time>2011-10-14T13:32:56Z</time>
      </trkpt>
      <trkpt lat="43.69454" lon="6.17833">
        <ele>797.599976</ele>
        <time>2011-10-14T13:33:01Z</time>
      </trkpt>
      <trkpt lat="43.69454" lon="6.17832">
        <ele>797.299988</ele>
        <time>2011-10-14T13:33:06Z</time>
      </trkpt>
      <trkpt lat="43.69454" lon="6.17832">
        <ele>797.299988</ele>
        <time>2011-10-14T13:33:11Z</time>
      </trkpt>
      <trkpt lat="43.69453" lon="6.17833">
        <ele>797.200012</ele>
        <time>2011-10-14T13:33:16Z</time>
      </trkpt>
      <trkpt lat="43.69453" lon="6.17833">
        <ele>797.200012</ele>
        <time>2011-10-14T13:33:21Z</time>
      </trkpt>
      <trkpt lat="43.69453" lon="6.17835">
        <ele>797.200012</ele>
        <time>2011-10-14T13:33:26Z</time>
      </trkpt>
      <trkpt lat="43.69453" lon="6.17835">
        <ele>797.099976</ele>
        <time>2011-10-14T13:33:27Z</time>
      </trkpt>
      <trkpt lat="43.69453" lon="6.17835">
        <ele>797.599976</ele>
        <time>2011-10-14T13:33:36Z</time>
      </trkpt>
      <trkpt lat="43.69453" lon="6.17835">
        <ele>797.5</ele>
        <time>2011-10-14T13:33:41Z</time>
      </trkpt>
      <trkpt lat="43.69453" lon="6.17835">
        <ele>797.400024</ele>
        <time>2011-10-14T13:33:46Z</time>
      </trkpt>
      <trkpt lat="43.69453" lon="6.17834">
        <ele>797.599976</ele>
        <time>2011-10-14T13:33:51Z</time>
      </trkpt>
      <trkpt lat="43.69453" lon="6.17833">
        <ele>797.5</ele>
        <time>2011-10-14T13:33:56Z</time>
      </trkpt>
      <trkpt lat="43.69453" lon="6.17833">
        <ele>797.5</ele>
        <time>2011-10-14T13:34:01Z</time>
      </trkpt>
      <trkpt lat="43.69453" lon="6.17832">
        <ele>797.400024</ele>
        <time>2011-10-14T13:34:06Z</time>
      </trkpt>
      <trkpt lat="43.69454" lon="6.17831">
        <ele>797.200012</ele>
        <time>2011-10-14T13:34:11Z</time>
      </trkpt>
      <trkpt lat="43.69454" lon="6.17831">
        <ele>797.299988</ele>
        <time>2011-10-14T13:34:16Z</time>
      </trkpt>
      <trkpt lat="43.69454" lon="6.17831">
        <ele>797.599976</ele>
        <time>2011-10-14T13:34:21Z</time>
      </trkpt>
      <trkpt lat="43.69454" lon="6.17831">
        <ele>797.5</ele>
        <time>2011-10-14T13:34:26Z</time>
      </trkpt>
      <trkpt lat="43.69454" lon="6.17833">
        <ele>797.299988</ele>
        <time>2011-10-14T13:34:31Z</time>
      </trkpt>
      <trkpt lat="43.69454" lon="6.17833">
        <ele>797.299988</ele>
        <time>2011-10-14T13:34:32Z</time>
      </trkpt>
      <trkpt lat="43.69453" lon="6.17833">
        <ele>797.200012</ele>
        <time>2011-10-14T13:34:41Z</time>
      </trkpt>
      <trkpt lat="43.69453" lon="6.17832">
        <ele>797.400024</ele>
        <time>2011-10-14T13:34:46Z</time>
      </trkpt>
      <trkpt lat="43.69452" lon="6.17832">
        <ele>797.099976</ele>
        <time>2011-10-14T13:34:51Z</time>
      </trkpt>
      <trkpt lat="43.69452" lon="6.17832">
        <ele>797.299988</ele>
        <time>2011-10-14T13:34:56Z</time>
      </trkpt>
      <trkpt lat="43.69452" lon="6.17831">
        <ele>797.299988</ele>
        <time>2011-10-14T13:35:01Z</time>
      </trkpt>
      <trkpt lat="43.69451" lon="6.17831">
        <ele>797</ele>
        <time>2011-10-14T13:35:06Z</time>
      </trkpt>
      <trkpt lat="43.6945" lon="6.17831">
        <ele>797.200012</ele>
        <time>2011-10-14T13:35:11Z</time>
      </trkpt>
      <trkpt lat="43.6945" lon="6.17832">
        <ele>797.400024</ele>
        <time>2011-10-14T13:35:16Z</time>
      </trkpt>
      <trkpt lat="43.69448" lon="6.17835">
        <ele>797.599976</ele>
        <time>2011-10-14T13:35:21Z</time>
      </trkpt>
      <trkpt lat="43.69446" lon="6.17838">
        <ele>797.400024</ele>
        <time>2011-10-14T13:35:26Z</time>
      </trkpt>
      <trkpt lat="43.69444" lon="6.17842">
        <ele>798.099976</ele>
        <time>2011-10-14T13:35:31Z</time>
      </trkpt>
      <trkpt lat="43.69441" lon="6.17846">
        <ele>798.900024</ele>
        <time>2011-10-14T13:35:36Z</time>
      </trkpt>
      <trkpt lat="43.69441" lon="6.17847">
        <ele>799</ele>
        <time>2011-10-14T13:35:37Z</time>
      </trkpt>
      <trkpt lat="43.69436" lon="6.17855">
        <ele>799</ele>
        <time>2011-10-14T13:35:46Z</time>
      </trkpt>
      <trkpt lat="43.69434" lon="6.17859">
        <ele>799.400024</ele>
        <time>2011-10-14T13:35:51Z</time>
      </trkpt>
      <trkpt lat="43.69431" lon="6.17863">
        <ele>799.599976</ele>
        <time>2011-10-14T13:35:56Z</time>
      </trkpt>
      <trkpt lat="43.69429" lon="6.17867">
        <ele>800.200012</ele>
        <time>2011-10-14T13:36:01Z</time>
      </trkpt>
      <trkpt lat="43.69427" lon="6.1787">
        <ele>800.299988</ele>
        <time>2011-10-14T13:36:06Z</time>
      </trkpt>
      <trkpt lat="43.69424" lon="6.17873">
        <ele>801</ele>
        <time>2011-10-14T13:36:11Z</time>
      </trkpt>
      <trkpt lat="43.69421" lon="6.17877">
        <ele>801.200012</ele>
        <time>2011-10-14T13:36:16Z</time>
      </trkpt>
      <trkpt lat="43.69417" lon="6.17879">
        <ele>802.299988</ele>
        <time>2011-10-14T13:36:21Z</time>
      </trkpt>
      <trkpt lat="43.69414" lon="6.17881">
        <ele>802.200012</ele>
        <time>2011-10-14T13:36:26Z</time>
      </trkpt>
      <trkpt lat="43.69411" lon="6.17883">
        <ele>803.200012</ele>
        <time>2011-10-14T13:36:31Z</time>
      </trkpt>
      <trkpt lat="43.69408" lon="6.17887">
        <ele>803.400024</ele>
        <time>2011-10-14T13:36:36Z</time>
      </trkpt>
      <trkpt lat="43.69404" lon="6.1789">
        <ele>803.599976</ele>
        <time>2011-10-14T13:36:41Z</time>
      </trkpt>
      <trkpt lat="43.69404" lon="6.17891">
        <ele>803.799988</ele>
        <time>2011-10-14T13:36:42Z</time>
      </trkpt>
      <trkpt lat="43.69398" lon="6.17897">
        <ele>804.799988</ele>
        <time>2011-10-14T13:36:51Z</time>
      </trkpt>
      <trkpt lat="43.69395" lon="6.179">
        <ele>805.099976</ele>
        <time>2011-10-14T13:36:56Z</time>
      </trkpt>
      <trkpt lat="43.69391" lon="6.17903">
        <ele>805.5</ele>
        <time>2011-10-14T13:37:01Z</time>
      </trkpt>
      <trkpt lat="43.69387" lon="6.17905">
        <ele>806.400024</ele>
        <time>2011-10-14T13:37:06Z</time>
      </trkpt>
      <trkpt lat="43.69382" lon="6.17906">
        <ele>806.799988</ele>
        <time>2011-10-14T13:37:11Z</time>
      </trkpt>
      <trkpt lat="43.69377" lon="6.17908">
        <ele>807.599976</ele>
        <time>2011-10-14T13:37:16Z</time>
      </trkpt>
      <trkpt lat="43.69374" lon="6.1791">
        <ele>808.200012</ele>
        <time>2011-10-14T13:37:21Z</time>
      </trkpt>
      <trkpt lat="43.69371" lon="6.17912">
        <ele>808.700012</ele>
        <time>2011-10-14T13:37:26Z</time>
      </trkpt>
      <trkpt lat="43.69368" lon="6.17916">
        <ele>809.200012</ele>
        <time>2011-10-14T13:37:31Z</time>
      </trkpt>
      <trkpt lat="43.69366" lon="6.1792">
        <ele>809.700012</ele>
        <time>2011-10-14T13:37:36Z</time>
      </trkpt>
      <trkpt lat="43.69364" lon="6.17924">
        <ele>810.200012</ele>
        <time>2011-10-14T13:37:41Z</time>
      </trkpt>
      <trkpt lat="43.69361" lon="6.17927">
        <ele>810.599976</ele>
        <time>2011-10-14T13:37:46Z</time>
      </trkpt>
      <trkpt lat="43.69361" lon="6.17928">
        <ele>810.900024</ele>
        <time>2011-10-14T13:37:47Z</time>
      </trkpt>
      <trkpt lat="43.69358" lon="6.17936">
        <ele>811.700012</ele>
        <time>2011-10-14T13:37:56Z</time>
      </trkpt>
      <trkpt lat="43.69354" lon="6.17938">
        <ele>812.799988</ele>
        <time>2011-10-14T13:38:01Z</time>
      </trkpt>
      <trkpt lat="43.6935" lon="6.17939">
        <ele>812.900024</ele>
        <time>2011-10-14T13:38:06Z</time>
      </trkpt>
      <trkpt lat="43.69345" lon="6.17941">
        <ele>813.099976</ele>
        <time>2011-10-14T13:38:11Z</time>
      </trkpt>
      <trkpt lat="43.69341" lon="6.17942">
        <ele>813.5</ele>
        <time>2011-10-14T13:38:16Z</time>
      </trkpt>
      <trkpt lat="43.69337" lon="6.17944">
        <ele>814.200012</ele>
        <time>2011-10-14T13:38:21Z</time>
      </trkpt>
      <trkpt lat="43.69332" lon="6.17946">
        <ele>814.299988</ele>
        <time>2011-10-14T13:38:26Z</time>
      </trkpt>
      <trkpt lat="43.69328" lon="6.17949">
        <ele>815.200012</ele>
        <time>2011-10-14T13:38:31Z</time>
      </trkpt>
      <trkpt lat="43.69324" lon="6.17951">
        <ele>815</ele>
        <time>2011-10-14T13:38:36Z</time>
      </trkpt>
      <trkpt lat="43.6932" lon="6.17953">
        <ele>815.599976</ele>
        <time>2011-10-14T13:38:41Z</time>
      </trkpt>
      <trkpt lat="43.69317" lon="6.17956">
        <ele>816</ele>
        <time>2011-10-14T13:38:46Z</time>
      </trkpt>
      <trkpt lat="43.69315" lon="6.17961">
        <ele>816.099976</ele>
        <time>2011-10-14T13:38:51Z</time>
      </trkpt>
      <trkpt lat="43.69314" lon="6.17962">
        <ele>816.099976</ele>
        <time>2011-10-14T13:38:52Z</time>
      </trkpt>
      <trkpt lat="43.69316" lon="6.17971">
        <ele>816.599976</ele>
        <time>2011-10-14T13:39:01Z</time>
      </trkpt>
      <trkpt lat="43.69317" lon="6.17976">
        <ele>816.900024</ele>
        <time>2011-10-14T13:39:06Z</time>
      </trkpt>
      <trkpt lat="43.69318" lon="6.1798">
        <ele>816.700012</ele>
        <time>2011-10-14T13:39:11Z</time>
      </trkpt>
      <trkpt lat="43.6932" lon="6.17984">
        <ele>816.799988</ele>
        <time>2011-10-14T13:39:16Z</time>
      </trkpt>
      <trkpt lat="43.69322" lon="6.17988">
        <ele>816.900024</ele>
        <time>2011-10-14T13:39:21Z</time>
      </trkpt>
      <trkpt lat="43.69321" lon="6.17992">
        <ele>817.5</ele>
        <time>2011-10-14T13:39:26Z</time>
      </trkpt>
      <trkpt lat="43.6932" lon="6.17997">
        <ele>817.599976</ele>
        <time>2011-10-14T13:39:31Z</time>
      </trkpt>
      <trkpt lat="43.69318" lon="6.18001">
        <ele>818.299988</ele>
        <time>2011-10-14T13:39:36Z</time>
      </trkpt>
      <trkpt lat="43.69315" lon="6.18005">
        <ele>818.5</ele>
        <time>2011-10-14T13:39:41Z</time>
      </trkpt>
      <trkpt lat="43.69312" lon="6.18009">
        <ele>818.900024</ele>
        <time>2011-10-14T13:39:46Z</time>
      </trkpt>
      <trkpt lat="43.6931" lon="6.18013">
        <ele>819.5</ele>
        <time>2011-10-14T13:39:51Z</time>
      </trkpt>
      <trkpt lat="43.69309" lon="6.18018">
        <ele>819.799988</ele>
        <time>2011-10-14T13:39:56Z</time>
      </trkpt>
      <trkpt lat="43.69309" lon="6.18019">
        <ele>819.700012</ele>
        <time>2011-10-14T13:39:57Z</time>
      </trkpt>
      <trkpt lat="43.69308" lon="6.18029">
        <ele>820.900024</ele>
        <time>2011-10-14T13:40:06Z</time>
      </trkpt>
      <trkpt lat="43.69308" lon="6.18036">
        <ele>820.900024</ele>
        <time>2011-10-14T13:40:11Z</time>
      </trkpt>
      <trkpt lat="43.69305" lon="6.18041">
        <ele>822.099976</ele>
        <time>2011-10-14T13:40:16Z</time>
      </trkpt>
      <trkpt lat="43.69302" lon="6.18047">
        <ele>822.400024</ele>
        <time>2011-10-14T13:40:21Z</time>
      </trkpt>
      <trkpt lat="43.69299" lon="6.18051">
        <ele>822.700012</ele>
        <time>2011-10-14T13:40:26Z</time>
      </trkpt>
      <trkpt lat="43.69297" lon="6.18056">
        <ele>823.400024</ele>
        <time>2011-10-14T13:40:31Z</time>
      </trkpt>
      <trkpt lat="43.69295" lon="6.1806">
        <ele>823.700012</ele>
        <time>2011-10-14T13:40:36Z</time>
      </trkpt>
      <trkpt lat="43.69293" lon="6.18065">
        <ele>824.599976</ele>
        <time>2011-10-14T13:40:41Z</time>
      </trkpt>
      <trkpt lat="43.69291" lon="6.18069">
        <ele>825.200012</ele>
        <time>2011-10-14T13:40:46Z</time>
      </trkpt>
      <trkpt lat="43.69288" lon="6.18073">
        <ele>825.700012</ele>
        <time>2011-10-14T13:40:51Z</time>
      </trkpt>
      <trkpt lat="43.69285" lon="6.18077">
        <ele>826</ele>
        <time>2011-10-14T13:40:56Z</time>
      </trkpt>
      <trkpt lat="43.69282" lon="6.1808">
        <ele>826.299988</ele>
        <time>2011-10-14T13:41:01Z</time>
      </trkpt>
      <trkpt lat="43.69281" lon="6.18081">
        <ele>826.099976</ele>
        <time>2011-10-14T13:41:02Z</time>
      </trkpt>
      <trkpt lat="43.69277" lon="6.18089">
        <ele>826.799988</ele>
        <time>2011-10-14T13:41:11Z</time>
      </trkpt>
      <trkpt lat="43.69275" lon="6.18092">
        <ele>827.400024</ele>
        <time>2011-10-14T13:41:16Z</time>
      </trkpt>
      <trkpt lat="43.69274" lon="6.18096">
        <ele>828.200012</ele>
        <time>2011-10-14T13:41:21Z</time>
      </trkpt>
      <trkpt lat="43.69271" lon="6.181">
        <ele>828.700012</ele>
        <time>2011-10-14T13:41:26Z</time>
      </trkpt>
      <trkpt lat="43.6927" lon="6.18104">
        <ele>829</ele>
        <time>2011-10-14T13:41:31Z</time>
      </trkpt>
      <trkpt lat="43.69267" lon="6.18108">
        <ele>829.400024</ele>
        <time>2011-10-14T13:41:36Z</time>
      </trkpt>
      <trkpt lat="43.69266" lon="6.18112">
        <ele>830.099976</ele>
        <time>2011-10-14T13:41:41Z</time>
      </trkpt>
      <trkpt lat="43.69264" lon="6.18116">
        <ele>830.900024</ele>
        <time>2011-10-14T13:41:46Z</time>
      </trkpt>
      <trkpt lat="43.69262" lon="6.1812">
        <ele>831.400024</ele>
        <time>2011-10-14T13:41:51Z</time>
      </trkpt>
      <trkpt lat="43.69261" lon="6.18125">
        <ele>831.799988</ele>
        <time>2011-10-14T13:41:56Z</time>
      </trkpt>
      <trkpt lat="43.6926" lon="6.18129">
        <ele>832.400024</ele>
        <time>2011-10-14T13:42:01Z</time>
      </trkpt>
      <trkpt lat="43.69259" lon="6.18133">
        <ele>833.099976</ele>
        <time>2011-10-14T13:42:06Z</time>
      </trkpt>
      <trkpt lat="43.69259" lon="6.18134">
        <ele>833.299988</ele>
        <time>2011-10-14T13:42:07Z</time>
      </trkpt>
      <trkpt lat="43.69255" lon="6.18142">
        <ele>834.5</ele>
        <time>2011-10-14T13:42:16Z</time>
      </trkpt>
      <trkpt lat="43.69253" lon="6.18147">
        <ele>835.200012</ele>
        <time>2011-10-14T13:42:21Z</time>
      </trkpt>
      <trkpt lat="43.6925" lon="6.18151">
        <ele>835.799988</ele>
        <time>2011-10-14T13:42:26Z</time>
      </trkpt>
      <trkpt lat="43.69247" lon="6.18156">
        <ele>836.299988</ele>
        <time>2011-10-14T13:42:31Z</time>
      </trkpt>
      <trkpt lat="43.69245" lon="6.1816">
        <ele>836.700012</ele>
        <time>2011-10-14T13:42:36Z</time>
      </trkpt>
      <trkpt lat="43.69242" lon="6.18164">
        <ele>837.5</ele>
        <time>2011-10-14T13:42:41Z</time>
      </trkpt>
      <trkpt lat="43.6924" lon="6.18168">
        <ele>838.200012</ele>
        <time>2011-10-14T13:42:46Z</time>
      </trkpt>
      <trkpt lat="43.69238" lon="6.18173">
        <ele>838.299988</ele>
        <time>2011-10-14T13:42:51Z</time>
      </trkpt>
      <trkpt lat="43.69236" lon="6.18177">
        <ele>838.599976</ele>
        <time>2011-10-14T13:42:56Z</time>
      </trkpt>
      <trkpt lat="43.69233" lon="6.18181">
        <ele>838.900024</ele>
        <time>2011-10-14T13:43:01Z</time>
      </trkpt>
      <trkpt lat="43.69232" lon="6.18185">
        <ele>839.5</ele>
        <time>2011-10-14T13:43:06Z</time>
      </trkpt>
      <trkpt lat="43.6923" lon="6.1819">
        <ele>839.599976</ele>
        <time>2011-10-14T13:43:11Z</time>
      </trkpt>
      <trkpt lat="43.6923" lon="6.18191">
        <ele>839.599976</ele>
        <time>2011-10-14T13:43:12Z</time>
      </trkpt>
      <trkpt lat="43.69226" lon="6.182">
        <ele>841.200012</ele>
        <time>2011-10-14T13:43:21Z</time>
      </trkpt>
      <trkpt lat="43.69223" lon="6.18204">
        <ele>841.400024</ele>
        <time>2011-10-14T13:43:26Z</time>
      </trkpt>
      <trkpt lat="43.6922" lon="6.18207">
        <ele>842</ele>
        <time>2011-10-14T13:43:31Z</time>
      </trkpt>
      <trkpt lat="43.69216" lon="6.18209">
        <ele>842.599976</ele>
        <time>2011-10-14T13:43:36Z</time>
      </trkpt>
      <trkpt lat="43.69212" lon="6.18211">
        <ele>842.5</ele>
        <time>2011-10-14T13:43:41Z</time>
      </trkpt>
      <trkpt lat="43.69209" lon="6.18214">
        <ele>842.799988</ele>
        <time>2011-10-14T13:43:46Z</time>
      </trkpt>
      <trkpt lat="43.69207" lon="6.18218">
        <ele>843</ele>
        <time>2011-10-14T13:43:51Z</time>
      </trkpt>
      <trkpt lat="43.69206" lon="6.18223">
        <ele>843.900024</ele>
        <time>2011-10-14T13:43:56Z</time>
      </trkpt>
      <trkpt lat="43.69205" lon="6.18228">
        <ele>844.599976</ele>
        <time>2011-10-14T13:44:01Z</time>
      </trkpt>
      <trkpt lat="43.69203" lon="6.18233">
        <ele>845.099976</ele>
        <time>2011-10-14T13:44:06Z</time>
      </trkpt>
      <trkpt lat="43.692" lon="6.18238">
        <ele>845.400024</ele>
        <time>2011-10-14T13:44:11Z</time>
      </trkpt>
      <trkpt lat="43.69197" lon="6.18241">
        <ele>845.900024</ele>
        <time>2011-10-14T13:44:16Z</time>
      </trkpt>
      <trkpt lat="43.69196" lon="6.18242">
        <ele>845.799988</ele>
        <time>2011-10-14T13:44:17Z</time>
      </trkpt>
      <trkpt lat="43.69188" lon="6.18245">
        <ele>846.200012</ele>
        <time>2011-10-14T13:44:26Z</time>
      </trkpt>
      <trkpt lat="43.69184" lon="6.18246">
        <ele>846.5</ele>
        <time>2011-10-14T13:44:31Z</time>
      </trkpt>
      <trkpt lat="43.69181" lon="6.18248">
        <ele>847</ele>
        <time>2011-10-14T13:44:36Z</time>
      </trkpt>
      <trkpt lat="43.69179" lon="6.18248">
        <ele>847.299988</ele>
        <time>2011-10-14T13:44:41Z</time>
      </trkpt>
      <trkpt lat="43.69176" lon="6.1825">
        <ele>847.599976</ele>
        <time>2011-10-14T13:44:46Z</time>
      </trkpt>
      <trkpt lat="43.69174" lon="6.18252">
        <ele>847.700012</ele>
        <time>2011-10-14T13:44:51Z</time>
      </trkpt>
      <trkpt lat="43.69173" lon="6.18252">
        <ele>847.400024</ele>
        <time>2011-10-14T13:44:56Z</time>
      </trkpt>
      <trkpt lat="43.69171" lon="6.18253">
        <ele>847.700012</ele>
        <time>2011-10-14T13:45:01Z</time>
      </trkpt>
      <trkpt lat="43.6917" lon="6.18252">
        <ele>847.599976</ele>
        <time>2011-10-14T13:45:06Z</time>
      </trkpt>
      <trkpt lat="43.6917" lon="6.18251">
        <ele>847.700012</ele>
        <time>2011-10-14T13:45:11Z</time>
      </trkpt>
      <trkpt lat="43.69169" lon="6.18251">
        <ele>847.799988</ele>
        <time>2011-10-14T13:45:16Z</time>
      </trkpt>
      <trkpt lat="43.69169" lon="6.1825">
        <ele>848</ele>
        <time>2011-10-14T13:45:21Z</time>
      </trkpt>
      <trkpt lat="43.69169" lon="6.18249">
        <ele>848</ele>
        <time>2011-10-14T13:45:22Z</time>
      </trkpt>
      <trkpt lat="43.6917" lon="6.18249">
        <ele>848.200012</ele>
        <time>2011-10-14T13:45:31Z</time>
      </trkpt>
      <trkpt lat="43.69171" lon="6.18249">
        <ele>847.799988</ele>
        <time>2011-10-14T13:45:36Z</time>
      </trkpt>
      <trkpt lat="43.6917" lon="6.18252">
        <ele>847.799988</ele>
        <time>2011-10-14T13:45:41Z</time>
      </trkpt>
      <trkpt lat="43.69167" lon="6.18256">
        <ele>848.5</ele>
        <time>2011-10-14T13:45:46Z</time>
      </trkpt>
      <trkpt lat="43.69165" lon="6.18261">
        <ele>848.700012</ele>
        <time>2011-10-14T13:45:51Z</time>
      </trkpt>
      <trkpt lat="43.69162" lon="6.18265">
        <ele>848.799988</ele>
        <time>2011-10-14T13:45:56Z</time>
      </trkpt>
      <trkpt lat="43.69159" lon="6.18268">
        <ele>849</ele>
        <time>2011-10-14T13:46:01Z</time>
      </trkpt>
      <trkpt lat="43.69157" lon="6.18271">
        <ele>849.099976</ele>
        <time>2011-10-14T13:46:06Z</time>
      </trkpt>
      <trkpt lat="43.69154" lon="6.18274">
        <ele>849</ele>
        <time>2011-10-14T13:46:11Z</time>
      </trkpt>
      <trkpt lat="43.69152" lon="6.18278">
        <ele>849.400024</ele>
        <time>2011-10-14T13:46:16Z</time>
      </trkpt>
      <trkpt lat="43.69149" lon="6.18282">
        <ele>849.900024</ele>
        <time>2011-10-14T13:46:21Z</time>
      </trkpt>
      <trkpt lat="43.69147" lon="6.18287">
        <ele>850.400024</ele>
        <time>2011-10-14T13:46:26Z</time>
      </trkpt>
      <trkpt lat="43.69146" lon="6.18287">
        <ele>850.599976</ele>
        <time>2011-10-14T13:46:27Z</time>
      </trkpt>
      <trkpt lat="43.69143" lon="6.18296">
        <ele>851.599976</ele>
        <time>2011-10-14T13:46:36Z</time>
      </trkpt>
      <trkpt lat="43.69141" lon="6.18299">
        <ele>852.200012</ele>
        <time>2011-10-14T13:46:41Z</time>
      </trkpt>
      <trkpt lat="43.69137" lon="6.18302">
        <ele>851.799988</ele>
        <time>2011-10-14T13:46:46Z</time>
      </trkpt>
      <trkpt lat="43.69133" lon="6.18305">
        <ele>852.799988</ele>
        <time>2011-10-14T13:46:51Z</time>
      </trkpt>
      <trkpt lat="43.6913" lon="6.18308">
        <ele>853.5</ele>
        <time>2011-10-14T13:46:56Z</time>
      </trkpt>
      <trkpt lat="43.69126" lon="6.18311">
        <ele>854.599976</ele>
        <time>2011-10-14T13:47:01Z</time>
      </trkpt>
      <trkpt lat="43.69123" lon="6.18313">
        <ele>854.599976</ele>
        <time>2011-10-14T13:47:06Z</time>
      </trkpt>
      <trkpt lat="43.69121" lon="6.18316">
        <ele>855.200012</ele>
        <time>2011-10-14T13:47:11Z</time>
      </trkpt>
      <trkpt lat="43.69118" lon="6.18319">
        <ele>855.799988</ele>
        <time>2011-10-14T13:47:16Z</time>
      </trkpt>
      <trkpt lat="43.69116" lon="6.18322">
        <ele>856.299988</ele>
        <time>2011-10-14T13:47:21Z</time>
      </trkpt>
      <trkpt lat="43.69113" lon="6.18326">
        <ele>856.700012</ele>
        <time>2011-10-14T13:47:26Z</time>
      </trkpt>
      <trkpt lat="43.6911" lon="6.18329">
        <ele>857.200012</ele>
        <time>2011-10-14T13:47:31Z</time>
      </trkpt>
      <trkpt lat="43.69109" lon="6.1833">
        <ele>857.200012</ele>
        <time>2011-10-14T13:47:32Z</time>
      </trkpt>
      <trkpt lat="43.69102" lon="6.18333">
        <ele>858.400024</ele>
        <time>2011-10-14T13:47:41Z</time>
      </trkpt>
      <trkpt lat="43.69099" lon="6.18335">
        <ele>859</ele>
        <time>2011-10-14T13:47:46Z</time>
      </trkpt>
      <trkpt lat="43.69095" lon="6.18336">
        <ele>859.599976</ele>
        <time>2011-10-14T13:47:51Z</time>
      </trkpt>
      <trkpt lat="43.69091" lon="6.18338">
        <ele>860.200012</ele>
        <time>2011-10-14T13:47:56Z</time>
      </trkpt>
      <trkpt lat="43.69087" lon="6.1834">
        <ele>861</ele>
        <time>2011-10-14T13:48:01Z</time>
      </trkpt>
      <trkpt lat="43.69084" lon="6.18343">
        <ele>861.700012</ele>
        <time>2011-10-14T13:48:06Z</time>
      </trkpt>
      <trkpt lat="43.69082" lon="6.18347">
        <ele>862.599976</ele>
        <time>2011-10-14T13:48:11Z</time>
      </trkpt>
      <trkpt lat="43.69081" lon="6.1835">
        <ele>863</ele>
        <time>2011-10-14T13:48:16Z</time>
      </trkpt>
      <trkpt lat="43.69079" lon="6.18352">
        <ele>863.599976</ele>
        <time>2011-10-14T13:48:21Z</time>
      </trkpt>
      <trkpt lat="43.69076" lon="6.18354">
        <ele>863.900024</ele>
        <time>2011-10-14T13:48:26Z</time>
      </trkpt>
      <trkpt lat="43.69072" lon="6.18355">
        <ele>864.599976</ele>
        <time>2011-10-14T13:48:31Z</time>
      </trkpt>
      <trkpt lat="43.69069" lon="6.18357">
        <ele>865.299988</ele>
        <time>2011-10-14T13:48:36Z</time>
      </trkpt>
      <trkpt lat="43.69069" lon="6.18357">
        <ele>865.400024</ele>
        <time>2011-10-14T13:48:37Z</time>
      </trkpt>
      <trkpt lat="43.69064" lon="6.18362">
        <ele>866.700012</ele>
        <time>2011-10-14T13:48:46Z</time>
      </trkpt>
      <trkpt lat="43.69062" lon="6.18366">
        <ele>867.299988</ele>
        <time>2011-10-14T13:48:51Z</time>
      </trkpt>
      <trkpt lat="43.69059" lon="6.18369">
        <ele>868.200012</ele>
        <time>2011-10-14T13:48:56Z</time>
      </trkpt>
      <trkpt lat="43.69057" lon="6.18372">
        <ele>868.799988</ele>
        <time>2011-10-14T13:49:01Z</time>
      </trkpt>
      <trkpt lat="43.69055" lon="6.18376">
        <ele>869.099976</ele>
        <time>2011-10-14T13:49:06Z</time>
      </trkpt>
      <trkpt lat="43.69053" lon="6.18379">
        <ele>870</ele>
        <time>2011-10-14T13:49:11Z</time>
      </trkpt>
      <trkpt lat="43.69051" lon="6.18383">
        <ele>870.900024</ele>
        <time>2011-10-14T13:49:16Z</time>
      </trkpt>
      <trkpt lat="43.69048" lon="6.18387">
        <ele>871.299988</ele>
        <time>2011-10-14T13:49:21Z</time>
      </trkpt>
      <trkpt lat="43.69046" lon="6.18391">
        <ele>871.799988</ele>
        <time>2011-10-14T13:49:26Z</time>
      </trkpt>
      <trkpt lat="43.69045" lon="6.18395">
        <ele>872.599976</ele>
        <time>2011-10-14T13:49:31Z</time>
      </trkpt>
      <trkpt lat="43.69044" lon="6.184">
        <ele>873.099976</ele>
        <time>2011-10-14T13:49:36Z</time>
      </trkpt>
      <trkpt lat="43.69042" lon="6.18404">
        <ele>873.900024</ele>
        <time>2011-10-14T13:49:41Z</time>
      </trkpt>
      <trkpt lat="43.69042" lon="6.18405">
        <ele>874</ele>
        <time>2011-10-14T13:49:42Z</time>
      </trkpt>
      <trkpt lat="43.69039" lon="6.18412">
        <ele>875.200012</ele>
        <time>2011-10-14T13:49:51Z</time>
      </trkpt>
      <trkpt lat="43.69036" lon="6.18416">
        <ele>875.700012</ele>
        <time>2011-10-14T13:49:56Z</time>
      </trkpt>
      <trkpt lat="43.69035" lon="6.18419">
        <ele>876.599976</ele>
        <time>2011-10-14T13:50:01Z</time>
      </trkpt>
      <trkpt lat="43.69032" lon="6.18423">
        <ele>877</ele>
        <time>2011-10-14T13:50:06Z</time>
      </trkpt>
      <trkpt lat="43.69029" lon="6.18426">
        <ele>877.799988</ele>
        <time>2011-10-14T13:50:11Z</time>
      </trkpt>
      <trkpt lat="43.69026" lon="6.18429">
        <ele>878.599976</ele>
        <time>2011-10-14T13:50:16Z</time>
      </trkpt>
      <trkpt lat="43.69025" lon="6.18433">
        <ele>879.099976</ele>
        <time>2011-10-14T13:50:21Z</time>
      </trkpt>
      <trkpt lat="43.69023" lon="6.18437">
        <ele>879.799988</ele>
        <time>2011-10-14T13:50:26Z</time>
      </trkpt>
      <trkpt lat="43.69022" lon="6.18441">
        <ele>880.200012</ele>
        <time>2011-10-14T13:50:31Z</time>
      </trkpt>
      <trkpt lat="43.69019" lon="6.18444">
        <ele>880.900024</ele>
        <time>2011-10-14T13:50:36Z</time>
      </trkpt>
      <trkpt lat="43.69016" lon="6.18447">
        <ele>881.5</ele>
        <time>2011-10-14T13:50:41Z</time>
      </trkpt>
      <trkpt lat="43.69014" lon="6.18451">
        <ele>882.200012</ele>
        <time>2011-10-14T13:50:46Z</time>
      </trkpt>
      <trkpt lat="43.69014" lon="6.18452">
        <ele>882.400024</ele>
        <time>2011-10-14T13:50:47Z</time>
      </trkpt>
      <trkpt lat="43.69014" lon="6.18458">
        <ele>883</ele>
        <time>2011-10-14T13:50:56Z</time>
      </trkpt>
      <trkpt lat="43.6901" lon="6.1846">
        <ele>883.400024</ele>
        <time>2011-10-14T13:51:01Z</time>
      </trkpt>
      <trkpt lat="43.69008" lon="6.18461">
        <ele>883.400024</ele>
        <time>2011-10-14T13:51:06Z</time>
      </trkpt>
      <trkpt lat="43.69007" lon="6.18463">
        <ele>883.700012</ele>
        <time>2011-10-14T13:51:11Z</time>
      </trkpt>
      <trkpt lat="43.69006" lon="6.18467">
        <ele>884.299988</ele>
        <time>2011-10-14T13:51:16Z</time>
      </trkpt>
      <trkpt lat="43.69004" lon="6.18472">
        <ele>885</ele>
        <time>2011-10-14T13:51:21Z</time>
      </trkpt>
      <trkpt lat="43.69001" lon="6.18475">
        <ele>885.299988</ele>
        <time>2011-10-14T13:51:26Z</time>
      </trkpt>
      <trkpt lat="43.68999" lon="6.18477">
        <ele>885.299988</ele>
        <time>2011-10-14T13:51:31Z</time>
      </trkpt>
      <trkpt lat="43.68999" lon="6.18478">
        <ele>885.299988</ele>
        <time>2011-10-14T13:51:36Z</time>
      </trkpt>
      <trkpt lat="43.68998" lon="6.1848">
        <ele>885.200012</ele>
        <time>2011-10-14T13:51:41Z</time>
      </trkpt>
      <trkpt lat="43.68999" lon="6.18481">
        <ele>885.299988</ele>
        <time>2011-10-14T13:51:46Z</time>
      </trkpt>
      <trkpt lat="43.68999" lon="6.18482">
        <ele>885</ele>
        <time>2011-10-14T13:51:51Z</time>
      </trkpt>
      <trkpt lat="43.68999" lon="6.18482">
        <ele>885.099976</ele>
        <time>2011-10-14T13:51:52Z</time>
      </trkpt>
      <trkpt lat="43.68997" lon="6.18478">
        <ele>885.099976</ele>
        <time>2011-10-14T13:52:01Z</time>
      </trkpt>
      <trkpt lat="43.68997" lon="6.18477">
        <ele>884.900024</ele>
        <time>2011-10-14T13:52:06Z</time>
      </trkpt>
      <trkpt lat="43.68997" lon="6.18478">
        <ele>885.299988</ele>
        <time>2011-10-14T13:52:11Z</time>
      </trkpt>
      <trkpt lat="43.68998" lon="6.18478">
        <ele>885.400024</ele>
        <time>2011-10-14T13:52:16Z</time>
      </trkpt>
      <trkpt lat="43.68997" lon="6.18477">
        <ele>885.200012</ele>
        <time>2011-10-14T13:52:21Z</time>
      </trkpt>
      <trkpt lat="43.68997" lon="6.18474">
        <ele>885.200012</ele>
        <time>2011-10-14T13:52:26Z</time>
      </trkpt>
      <trkpt lat="43.68996" lon="6.18472">
        <ele>885.099976</ele>
        <time>2011-10-14T13:52:31Z</time>
      </trkpt>
      <trkpt lat="43.68997" lon="6.18469">
        <ele>884.700012</ele>
        <time>2011-10-14T13:52:36Z</time>
      </trkpt>
      <trkpt lat="43.69" lon="6.1847">
        <ele>884.599976</ele>
        <time>2011-10-14T13:52:41Z</time>
      </trkpt>
      <trkpt lat="43.69001" lon="6.1847">
        <ele>884.099976</ele>
        <time>2011-10-14T13:52:46Z</time>
      </trkpt>
      <trkpt lat="43.69001" lon="6.1847">
        <ele>884.299988</ele>
        <time>2011-10-14T13:52:51Z</time>
      </trkpt>
      <trkpt lat="43.69001" lon="6.1847">
        <ele>884.700012</ele>
        <time>2011-10-14T13:52:56Z</time>
      </trkpt>
      <trkpt lat="43.69001" lon="6.1847">
        <ele>884.799988</ele>
        <time>2011-10-14T13:52:57Z</time>
      </trkpt>
      <trkpt lat="43.69001" lon="6.18469">
        <ele>884.700012</ele>
        <time>2011-10-14T13:53:06Z</time>
      </trkpt>
      <trkpt lat="43.69" lon="6.18469">
        <ele>884.799988</ele>
        <time>2011-10-14T13:53:11Z</time>
      </trkpt>
      <trkpt lat="43.69" lon="6.1847">
        <ele>884.5</ele>
        <time>2011-10-14T13:53:16Z</time>
      </trkpt>
      <trkpt lat="43.69001" lon="6.18471">
        <ele>884.299988</ele>
        <time>2011-10-14T13:53:21Z</time>
      </trkpt>
      <trkpt lat="43.69002" lon="6.18472">
        <ele>884.400024</ele>
        <time>2011-10-14T13:53:26Z</time>
      </trkpt>
      <trkpt lat="43.69003" lon="6.18472">
        <ele>884.5</ele>
        <time>2011-10-14T13:53:31Z</time>
      </trkpt>
      <trkpt lat="43.69004" lon="6.18472">
        <ele>884.900024</ele>
        <time>2011-10-14T13:53:36Z</time>
      </trkpt>
      <trkpt lat="43.69004" lon="6.18473">
        <ele>884.799988</ele>
        <time>2011-10-14T13:53:41Z</time>
      </trkpt>
      <trkpt lat="43.69003" lon="6.18471">
        <ele>884.700012</ele>
        <time>2011-10-14T13:53:46Z</time>
      </trkpt>
      <trkpt lat="43.69003" lon="6.18472">
        <ele>884.700012</ele>
        <time>2011-10-14T13:53:51Z</time>
      </trkpt>
      <trkpt lat="43.69003" lon="6.18473">
        <ele>884.599976</ele>
        <time>2011-10-14T13:53:56Z</time>
      </trkpt>
      <trkpt lat="43.69004" lon="6.18474">
        <ele>884.799988</ele>
        <time>2011-10-14T13:54:01Z</time>
      </trkpt>
      <trkpt lat="43.69004" lon="6.18474">
        <ele>884.799988</ele>
        <time>2011-10-14T13:54:02Z</time>
      </trkpt>
      <trkpt lat="43.69004" lon="6.18475">
        <ele>885.099976</ele>
        <time>2011-10-14T13:54:11Z</time>
      </trkpt>
      <trkpt lat="43.69003" lon="6.18475">
        <ele>885.099976</ele>
        <time>2011-10-14T13:54:16Z</time>
      </trkpt>
      <trkpt lat="43.69004" lon="6.18475">
        <ele>885</ele>
        <time>2011-10-14T13:54:21Z</time>
      </trkpt>
      <trkpt lat="43.69005" lon="6.18476">
        <ele>885.200012</ele>
        <time>2011-10-14T13:54:26Z</time>
      </trkpt>
      <trkpt lat="43.69005" lon="6.18474">
        <ele>885.099976</ele>
        <time>2011-10-14T13:54:31Z</time>
      </trkpt>
      <trkpt lat="43.69005" lon="6.18471">
        <ele>884.700012</ele>
        <time>2011-10-14T13:54:36Z</time>
      </trkpt>
      <trkpt lat="43.69007" lon="6.18468">
        <ele>884.599976</ele>
        <time>2011-10-14T13:54:41Z</time>
      </trkpt>
      <trkpt lat="43.69008" lon="6.18468">
        <ele>885.099976</ele>
        <time>2011-10-14T13:54:46Z</time>
      </trkpt>
      <trkpt lat="43.6901" lon="6.18469">
        <ele>885.400024</ele>
        <time>2011-10-14T13:54:51Z</time>
      </trkpt>
      <trkpt lat="43.69012" lon="6.18472">
        <ele>885.400024</ele>
        <time>2011-10-14T13:54:56Z</time>
      </trkpt>
      <trkpt lat="43.69013" lon="6.18477">
        <ele>885.900024</ele>
        <time>2011-10-14T13:55:01Z</time>
      </trkpt>
      <trkpt lat="43.69013" lon="6.1848">
        <ele>886.200012</ele>
        <time>2011-10-14T13:55:06Z</time>
      </trkpt>
      <trkpt lat="43.69013" lon="6.18481">
        <ele>886.099976</ele>
        <time>2011-10-14T13:55:07Z</time>
      </trkpt>
      <trkpt lat="43.69012" lon="6.18488">
        <ele>887.599976</ele>
        <time>2011-10-14T13:55:16Z</time>
      </trkpt>
      <trkpt lat="43.69011" lon="6.18493">
        <ele>888.400024</ele>
        <time>2011-10-14T13:55:21Z</time>
      </trkpt>
      <trkpt lat="43.69008" lon="6.18496">
        <ele>888.5</ele>
        <time>2011-10-14T13:55:26Z</time>
      </trkpt>
      <trkpt lat="43.69006" lon="6.18499">
        <ele>888.5</ele>
        <time>2011-10-14T13:55:31Z</time>
      </trkpt>
      <trkpt lat="43.69004" lon="6.18502">
        <ele>889.200012</ele>
        <time>2011-10-14T13:55:36Z</time>
      </trkpt>
      <trkpt lat="43.69003" lon="6.18507">
        <ele>890</ele>
        <time>2011-10-14T13:55:41Z</time>
      </trkpt>
      <trkpt lat="43.69002" lon="6.1851">
        <ele>890.5</ele>
        <time>2011-10-14T13:55:46Z</time>
      </trkpt>
      <trkpt lat="43.69001" lon="6.18514">
        <ele>890.5</ele>
        <time>2011-10-14T13:55:51Z</time>
      </trkpt>
      <trkpt lat="43.69002" lon="6.18515">
        <ele>891.299988</ele>
        <time>2011-10-14T13:55:56Z</time>
      </trkpt>
      <trkpt lat="43.69002" lon="6.18517">
        <ele>891.799988</ele>
        <time>2011-10-14T13:56:01Z</time>
      </trkpt>
      <trkpt lat="43.69002" lon="6.18518">
        <ele>892.099976</ele>
        <time>2011-10-14T13:56:06Z</time>
      </trkpt>
      <trkpt lat="43.69005" lon="6.1852">
        <ele>892.099976</ele>
        <time>2011-10-14T13:56:11Z</time>
      </trkpt>
      <trkpt lat="43.69005" lon="6.18521">
        <ele>892.299988</ele>
        <time>2011-10-14T13:56:12Z</time>
      </trkpt>
      <trkpt lat="43.69009" lon="6.18525">
        <ele>893.400024</ele>
        <time>2011-10-14T13:56:21Z</time>
      </trkpt>
      <trkpt lat="43.69012" lon="6.18527">
        <ele>892.799988</ele>
        <time>2011-10-14T13:56:26Z</time>
      </trkpt>
      <trkpt lat="43.69016" lon="6.18529">
        <ele>892.700012</ele>
        <time>2011-10-14T13:56:31Z</time>
      </trkpt>
      <trkpt lat="43.69018" lon="6.1853">
        <ele>893.299988</ele>
        <time>2011-10-14T13:56:36Z</time>
      </trkpt>
      <trkpt lat="43.69019" lon="6.18531">
        <ele>893.5</ele>
        <time>2011-10-14T13:56:41Z</time>
      </trkpt>
      <trkpt lat="43.69024" lon="6.18533">
        <ele>893.5</ele>
        <time>2011-10-14T13:56:46Z</time>
      </trkpt>
      <trkpt lat="43.69027" lon="6.18537">
        <ele>893.700012</ele>
        <time>2011-10-14T13:56:51Z</time>
      </trkpt>
      <trkpt lat="43.69026" lon="6.18542">
        <ele>894.400024</ele>
        <time>2011-10-14T13:56:56Z</time>
      </trkpt>
      <trkpt lat="43.69027" lon="6.18547">
        <ele>894.900024</ele>
        <time>2011-10-14T13:57:01Z</time>
      </trkpt>
      <trkpt lat="43.69027" lon="6.1855">
        <ele>895.900024</ele>
        <time>2011-10-14T13:57:06Z</time>
      </trkpt>
      <trkpt lat="43.69027" lon="6.18554">
        <ele>896.700012</ele>
        <time>2011-10-14T13:57:11Z</time>
      </trkpt>
      <trkpt lat="43.69027" lon="6.18558">
        <ele>897.099976</ele>
        <time>2011-10-14T13:57:16Z</time>
      </trkpt>
      <trkpt lat="43.69027" lon="6.18559">
        <ele>897.099976</ele>
        <time>2011-10-14T13:57:17Z</time>
      </trkpt>
      <trkpt lat="43.69029" lon="6.18565">
        <ele>898.299988</ele>
        <time>2011-10-14T13:57:26Z</time>
      </trkpt>
      <trkpt lat="43.69029" lon="6.18568">
        <ele>899.099976</ele>
        <time>2011-10-14T13:57:31Z</time>
      </trkpt>
      <trkpt lat="43.6903" lon="6.18572">
        <ele>900.099976</ele>
        <time>2011-10-14T13:57:36Z</time>
      </trkpt>
      <trkpt lat="43.69029" lon="6.18576">
        <ele>900.299988</ele>
        <time>2011-10-14T13:57:41Z</time>
      </trkpt>
      <trkpt lat="43.69027" lon="6.1858">
        <ele>901</ele>
        <time>2011-10-14T13:57:46Z</time>
      </trkpt>
      <trkpt lat="43.69027" lon="6.18583">
        <ele>901.799988</ele>
        <time>2011-10-14T13:57:51Z</time>
      </trkpt>
      <trkpt lat="43.69028" lon="6.18587">
        <ele>902.299988</ele>
        <time>2011-10-14T13:57:56Z</time>
      </trkpt>
      <trkpt lat="43.69029" lon="6.1859">
        <ele>903</ele>
        <time>2011-10-14T13:58:01Z</time>
      </trkpt>
      <trkpt lat="43.69031" lon="6.18592">
        <ele>903.400024</ele>
        <time>2011-10-14T13:58:06Z</time>
      </trkpt>
      <trkpt lat="43.69035" lon="6.18595">
        <ele>904</ele>
        <time>2011-10-14T13:58:11Z</time>
      </trkpt>
      <trkpt lat="43.69036" lon="6.18598">
        <ele>904.400024</ele>
        <time>2011-10-14T13:58:16Z</time>
      </trkpt>
      <trkpt lat="43.69038" lon="6.18599">
        <ele>904.900024</ele>
        <time>2011-10-14T13:58:21Z</time>
      </trkpt>
      <trkpt lat="43.69038" lon="6.186">
        <ele>905</ele>
        <time>2011-10-14T13:58:22Z</time>
      </trkpt>
      <trkpt lat="43.69041" lon="6.18604">
        <ele>906.099976</ele>
        <time>2011-10-14T13:58:31Z</time>
      </trkpt>
      <trkpt lat="43.69042" lon="6.18606">
        <ele>906.799988</ele>
        <time>2011-10-14T13:58:36Z</time>
      </trkpt>
      <trkpt lat="43.69043" lon="6.1861">
        <ele>907.799988</ele>
        <time>2011-10-14T13:58:41Z</time>
      </trkpt>
      <trkpt lat="43.69043" lon="6.18614">
        <ele>908.099976</ele>
        <time>2011-10-14T13:58:46Z</time>
      </trkpt>
      <trkpt lat="43.69044" lon="6.18617">
        <ele>908.700012</ele>
        <time>2011-10-14T13:58:51Z</time>
      </trkpt>
      <trkpt lat="43.69046" lon="6.18621">
        <ele>909.099976</ele>
        <time>2011-10-14T13:58:56Z</time>
      </trkpt>
      <trkpt lat="43.69047" lon="6.18624">
        <ele>909.799988</ele>
        <time>2011-10-14T13:59:01Z</time>
      </trkpt>
      <trkpt lat="43.69048" lon="6.18628">
        <ele>910.5</ele>
        <time>2011-10-14T13:59:06Z</time>
      </trkpt>
      <trkpt lat="43.6905" lon="6.18632">
        <ele>910.700012</ele>
        <time>2011-10-14T13:59:11Z</time>
      </trkpt>
      <trkpt lat="43.69051" lon="6.18636">
        <ele>911.599976</ele>
        <time>2011-10-14T13:59:16Z</time>
      </trkpt>
      <trkpt lat="43.69052" lon="6.1864">
        <ele>912.599976</ele>
        <time>2011-10-14T13:59:21Z</time>
      </trkpt>
      <trkpt lat="43.69049" lon="6.18644">
        <ele>913.400024</ele>
        <time>2011-10-14T13:59:26Z</time>
      </trkpt>
      <trkpt lat="43.69049" lon="6.18645">
        <ele>913.599976</ele>
        <time>2011-10-14T13:59:27Z</time>
      </trkpt>
      <trkpt lat="43.69051" lon="6.18651">
        <ele>914.099976</ele>
        <time>2011-10-14T13:59:36Z</time>
      </trkpt>
      <trkpt lat="43.69053" lon="6.18654">
        <ele>914.900024</ele>
        <time>2011-10-14T13:59:41Z</time>
      </trkpt>
      <trkpt lat="43.69055" lon="6.18658">
        <ele>915.200012</ele>
        <time>2011-10-14T13:59:46Z</time>
      </trkpt>
      <trkpt lat="43.69056" lon="6.18661">
        <ele>915.5</ele>
        <time>2011-10-14T13:59:51Z</time>
      </trkpt>
      <trkpt lat="43.69059" lon="6.18665">
        <ele>915.799988</ele>
        <time>2011-10-14T13:59:56Z</time>
      </trkpt>
      <trkpt lat="43.6906" lon="6.1867">
        <ele>916.200012</ele>
        <time>2011-10-14T14:00:01Z</time>
      </trkpt>
      <trkpt lat="43.69062" lon="6.18675">
        <ele>916.5</ele>
        <time>2011-10-14T14:00:06Z</time>
      </trkpt>
      <trkpt lat="43.69064" lon="6.1868">
        <ele>917.299988</ele>
        <time>2011-10-14T14:00:11Z</time>
      </trkpt>
      <trkpt lat="43.69067" lon="6.18684">
        <ele>917.599976</ele>
        <time>2011-10-14T14:00:16Z</time>
      </trkpt>
      <trkpt lat="43.69069" lon="6.18687">
        <ele>917.599976</ele>
        <time>2011-10-14T14:00:21Z</time>
      </trkpt>
      <trkpt lat="43.6907" lon="6.18689">
        <ele>918.099976</ele>
        <time>2011-10-14T14:00:26Z</time>
      </trkpt>
      <trkpt lat="43.69071" lon="6.18691">
        <ele>918</ele>
        <time>2011-10-14T14:00:31Z</time>
      </trkpt>
      <trkpt lat="43.69071" lon="6.18692">
        <ele>917.900024</ele>
        <time>2011-10-14T14:00:32Z</time>
      </trkpt>
      <trkpt lat="43.69072" lon="6.18693">
        <ele>918</ele>
        <time>2011-10-14T14:00:41Z</time>
      </trkpt>
      <trkpt lat="43.69073" lon="6.18694">
        <ele>918</ele>
        <time>2011-10-14T14:00:46Z</time>
      </trkpt>
      <trkpt lat="43.69076" lon="6.18697">
        <ele>918</ele>
        <time>2011-10-14T14:00:51Z</time>
      </trkpt>
      <trkpt lat="43.69077" lon="6.187">
        <ele>918</ele>
        <time>2011-10-14T14:00:56Z</time>
      </trkpt>
      <trkpt lat="43.69082" lon="6.18704">
        <ele>918.099976</ele>
        <time>2011-10-14T14:01:01Z</time>
      </trkpt>
      <trkpt lat="43.69082" lon="6.18706">
        <ele>918.5</ele>
        <time>2011-10-14T14:01:06Z</time>
      </trkpt>
      <trkpt lat="43.69081" lon="6.18705">
        <ele>918.599976</ele>
        <time>2011-10-14T14:01:11Z</time>
      </trkpt>
      <trkpt lat="43.69079" lon="6.18706">
        <ele>918.599976</ele>
        <time>2011-10-14T14:01:16Z</time>
      </trkpt>
      <trkpt lat="43.6908" lon="6.18708">
        <ele>918.5</ele>
        <time>2011-10-14T14:01:21Z</time>
      </trkpt>
      <trkpt lat="43.69081" lon="6.18707">
        <ele>918.200012</ele>
        <time>2011-10-14T14:01:26Z</time>
      </trkpt>
      <trkpt lat="43.69081" lon="6.18708">
        <ele>918.299988</ele>
        <time>2011-10-14T14:01:31Z</time>
      </trkpt>
      <trkpt lat="43.6908" lon="6.18708">
        <ele>918.200012</ele>
        <time>2011-10-14T14:01:36Z</time>
      </trkpt>
      <trkpt lat="43.69079" lon="6.18708">
        <ele>918.400024</ele>
        <time>2011-10-14T14:01:37Z</time>
      </trkpt>
      <trkpt lat="43.69077" lon="6.18708">
        <ele>918.599976</ele>
        <time>2011-10-14T14:01:46Z</time>
      </trkpt>
      <trkpt lat="43.69077" lon="6.18708">
        <ele>918.700012</ele>
        <time>2011-10-14T14:01:51Z</time>
      </trkpt>
      <trkpt lat="43.69077" lon="6.18708">
        <ele>918.900024</ele>
        <time>2011-10-14T14:01:56Z</time>
      </trkpt>
      <trkpt lat="43.69077" lon="6.18707">
        <ele>918.400024</ele>
        <time>2011-10-14T14:02:01Z</time>
      </trkpt>
      <trkpt lat="43.69077" lon="6.18707">
        <ele>918.299988</ele>
        <time>2011-10-14T14:02:06Z</time>
      </trkpt>
      <trkpt lat="43.69077" lon="6.18707">
        <ele>918</ele>
        <time>2011-10-14T14:02:11Z</time>
      </trkpt>
      <trkpt lat="43.69076" lon="6.18707">
        <ele>918.200012</ele>
        <time>2011-10-14T14:02:16Z</time>
      </trkpt>
      <trkpt lat="43.69077" lon="6.18707">
        <ele>918.299988</ele>
        <time>2011-10-14T14:02:21Z</time>
      </trkpt>
      <trkpt lat="43.69077" lon="6.18707">
        <ele>918</ele>
        <time>2011-10-14T14:02:26Z</time>
      </trkpt>
      <trkpt lat="43.69078" lon="6.18707">
        <ele>918.200012</ele>
        <time>2011-10-14T14:02:31Z</time>
      </trkpt>
      <trkpt lat="43.69079" lon="6.18708">
        <ele>918.099976</ele>
        <time>2011-10-14T14:02:36Z</time>
      </trkpt>
      <trkpt lat="43.69079" lon="6.18709">
        <ele>918</ele>
        <time>2011-10-14T14:02:41Z</time>
      </trkpt>
      <trkpt lat="43.69078" lon="6.18709">
        <ele>917.900024</ele>
        <time>2011-10-14T14:02:42Z</time>
      </trkpt>
      <trkpt lat="43.69076" lon="6.18704">
        <ele>917.099976</ele>
        <time>2011-10-14T14:02:51Z</time>
      </trkpt>
      <trkpt lat="43.69073" lon="6.18701">
        <ele>917.599976</ele>
        <time>2011-10-14T14:02:56Z</time>
      </trkpt>
      <trkpt lat="43.69074" lon="6.18699">
        <ele>917.5</ele>
        <time>2011-10-14T14:03:01Z</time>
      </trkpt>
      <trkpt lat="43.69075" lon="6.18701">
        <ele>917.200012</ele>
        <time>2011-10-14T14:03:06Z</time>
      </trkpt>
      <trkpt lat="43.69076" lon="6.18702">
        <ele>917</ele>
        <time>2011-10-14T14:03:11Z</time>
      </trkpt>
      <trkpt lat="43.69077" lon="6.18703">
        <ele>917.299988</ele>
        <time>2011-10-14T14:03:16Z</time>
      </trkpt>
      <trkpt lat="43.69077" lon="6.18704">
        <ele>917.099976</ele>
        <time>2011-10-14T14:03:21Z</time>
      </trkpt>
      <trkpt lat="43.69077" lon="6.18704">
        <ele>917.5</ele>
        <time>2011-10-14T14:03:26Z</time>
      </trkpt>
      <trkpt lat="43.69078" lon="6.18705">
        <ele>917.099976</ele>
        <time>2011-10-14T14:03:31Z</time>
      </trkpt>
      <trkpt lat="43.69077" lon="6.18705">
        <ele>917.200012</ele>
        <time>2011-10-14T14:03:36Z</time>
      </trkpt>
      <trkpt lat="43.69078" lon="6.18707">
        <ele>917.400024</ele>
        <time>2011-10-14T14:03:41Z</time>
      </trkpt>
      <trkpt lat="43.69077" lon="6.18707">
        <ele>917.5</ele>
        <time>2011-10-14T14:03:46Z</time>
      </trkpt>
      <trkpt lat="43.69077" lon="6.18707">
        <ele>917.599976</ele>
        <time>2011-10-14T14:03:47Z</time>
      </trkpt>
      <trkpt lat="43.69078" lon="6.18705">
        <ele>917.700012</ele>
        <time>2011-10-14T14:03:56Z</time>
      </trkpt>
      <trkpt lat="43.69077" lon="6.18705">
        <ele>917.400024</ele>
        <time>2011-10-14T14:04:01Z</time>
      </trkpt>
      <trkpt lat="43.69076" lon="6.18705">
        <ele>917.5</ele>
        <time>2011-10-14T14:04:06Z</time>
      </trkpt>
      <trkpt lat="43.69075" lon="6.18705">
        <ele>917.599976</ele>
        <time>2011-10-14T14:04:11Z</time>
      </trkpt>
      <trkpt lat="43.69073" lon="6.18705">
        <ele>917.700012</ele>
        <time>2011-10-14T14:04:16Z</time>
      </trkpt>
      <trkpt lat="43.69072" lon="6.18705">
        <ele>917.5</ele>
        <time>2011-10-14T14:04:21Z</time>
      </trkpt>
      <trkpt lat="43.69072" lon="6.18706">
        <ele>917.5</ele>
        <time>2011-10-14T14:04:26Z</time>
      </trkpt>
      <trkpt lat="43.69071" lon="6.18706">
        <ele>917.599976</ele>
        <time>2011-10-14T14:04:31Z</time>
      </trkpt>
      <trkpt lat="43.69071" lon="6.18706">
        <ele>917.599976</ele>
        <time>2011-10-14T14:04:36Z</time>
      </trkpt>
      <trkpt lat="43.69072" lon="6.18707">
        <ele>917.700012</ele>
        <time>2011-10-14T14:04:41Z</time>
      </trkpt>
      <trkpt lat="43.69072" lon="6.18708">
        <ele>917.799988</ele>
        <time>2011-10-14T14:04:46Z</time>
      </trkpt>
      <trkpt lat="43.69073" lon="6.18709">
        <ele>917.799988</ele>
        <time>2011-10-14T14:04:51Z</time>
      </trkpt>
      <trkpt lat="43.69074" lon="6.18709">
        <ele>917.799988</ele>
        <time>2011-10-14T14:04:52Z</time>
      </trkpt>
      <trkpt lat="43.69075" lon="6.1871">
        <ele>917.400024</ele>
        <time>2011-10-14T14:05:01Z</time>
      </trkpt>
      <trkpt lat="43.69074" lon="6.18709">
        <ele>917.599976</ele>
        <time>2011-10-14T14:05:06Z</time>
      </trkpt>
      <trkpt lat="43.69072" lon="6.18707">
        <ele>918.099976</ele>
        <time>2011-10-14T14:05:11Z</time>
      </trkpt>
      <trkpt lat="43.69069" lon="6.18708">
        <ele>917.900024</ele>
        <time>2011-10-14T14:05:16Z</time>
      </trkpt>
      <trkpt lat="43.69066" lon="6.18709">
        <ele>917.5</ele>
        <time>2011-10-14T14:05:21Z</time>
      </trkpt>
      <trkpt lat="43.69066" lon="6.1871">
        <ele>917.599976</ele>
        <time>2011-10-14T14:05:26Z</time>
      </trkpt>
      <trkpt lat="43.69067" lon="6.18708">
        <ele>917.700012</ele>
        <time>2011-10-14T14:05:31Z</time>
      </trkpt>
      <trkpt lat="43.69068" lon="6.18708">
        <ele>917.5</ele>
        <time>2011-10-14T14:05:36Z</time>
      </trkpt>
      <trkpt lat="43.69069" lon="6.18708">
        <ele>917.700012</ele>
        <time>2011-10-14T14:05:41Z</time>
      </trkpt>
      <trkpt lat="43.69071" lon="6.18708">
        <ele>917.599976</ele>
        <time>2011-10-14T14:05:46Z</time>
      </trkpt>
      <trkpt lat="43.69072" lon="6.1871">
        <ele>917.200012</ele>
        <time>2011-10-14T14:05:51Z</time>
      </trkpt>
      <trkpt lat="43.69073" lon="6.18711">
        <ele>917</ele>
        <time>2011-10-14T14:05:56Z</time>
      </trkpt>
      <trkpt lat="43.69073" lon="6.18712">
        <ele>917.200012</ele>
        <time>2011-10-14T14:05:57Z</time>
      </trkpt>
      <trkpt lat="43.69072" lon="6.18713">
        <ele>917.799988</ele>
        <time>2011-10-14T14:06:06Z</time>
      </trkpt>
      <trkpt lat="43.69072" lon="6.18712">
        <ele>918.200012</ele>
        <time>2011-10-14T14:06:11Z</time>
      </trkpt>
      <trkpt lat="43.69072" lon="6.1871">
        <ele>918</ele>
        <time>2011-10-14T14:06:16Z</time>
      </trkpt>
      <trkpt lat="43.69071" lon="6.18709">
        <ele>917.599976</ele>
        <time>2011-10-14T14:06:21Z</time>
      </trkpt>
      <trkpt lat="43.69073" lon="6.18709">
        <ele>917.599976</ele>
        <time>2011-10-14T14:06:26Z</time>
      </trkpt>
      <trkpt lat="43.69074" lon="6.18708">
        <ele>917.799988</ele>
        <time>2011-10-14T14:06:31Z</time>
      </trkpt>
      <trkpt lat="43.69074" lon="6.18709">
        <ele>917.799988</ele>
        <time>2011-10-14T14:06:36Z</time>
      </trkpt>
      <trkpt lat="43.69074" lon="6.1871">
        <ele>918.099976</ele>
        <time>2011-10-14T14:06:41Z</time>
      </trkpt>
      <trkpt lat="43.69074" lon="6.18711">
        <ele>917.900024</ele>
        <time>2011-10-14T14:06:46Z</time>
      </trkpt>
      <trkpt lat="43.69073" lon="6.1871">
        <ele>917</ele>
        <time>2011-10-14T14:06:52Z</time>
      </trkpt>
      <trkpt lat="43.69073" lon="6.18711">
        <ele>917.799988</ele>
        <time>2011-10-14T14:06:57Z</time>
      </trkpt>
      <trkpt lat="43.69073" lon="6.18711">
        <ele>917.799988</ele>
        <time>2011-10-14T14:06:58Z</time>
      </trkpt>
      <trkpt lat="43.69074" lon="6.18714">
        <ele>918.200012</ele>
        <time>2011-10-14T14:07:07Z</time>
      </trkpt>
      <trkpt lat="43.69073" lon="6.18717">
        <ele>918.700012</ele>
        <time>2011-10-14T14:07:12Z</time>
      </trkpt>
      <trkpt lat="43.69073" lon="6.1872">
        <ele>919</ele>
        <time>2011-10-14T14:07:17Z</time>
      </trkpt>
      <trkpt lat="43.69072" lon="6.18724">
        <ele>919.799988</ele>
        <time>2011-10-14T14:07:22Z</time>
      </trkpt>
      <trkpt lat="43.69073" lon="6.18729">
        <ele>919.599976</ele>
        <time>2011-10-14T14:07:27Z</time>
      </trkpt>
      <trkpt lat="43.69074" lon="6.18734">
        <ele>920</ele>
        <time>2011-10-14T14:07:32Z</time>
      </trkpt>
      <trkpt lat="43.69073" lon="6.18738">
        <ele>920.099976</ele>
        <time>2011-10-14T14:07:37Z</time>
      </trkpt>
      <trkpt lat="43.69071" lon="6.18741">
        <ele>919.900024</ele>
        <time>2011-10-14T14:07:42Z</time>
      </trkpt>
      <trkpt lat="43.6907" lon="6.18745">
        <ele>920.400024</ele>
        <time>2011-10-14T14:07:47Z</time>
      </trkpt>
      <trkpt lat="43.69069" lon="6.1875">
        <ele>920.799988</ele>
        <time>2011-10-14T14:07:52Z</time>
      </trkpt>
      <trkpt lat="43.69067" lon="6.18755">
        <ele>921.400024</ele>
        <time>2011-10-14T14:07:57Z</time>
      </trkpt>
      <trkpt lat="43.69062" lon="6.18756">
        <ele>921.799988</ele>
        <time>2011-10-14T14:08:02Z</time>
      </trkpt>
      <trkpt lat="43.69061" lon="6.18757">
        <ele>921.900024</ele>
        <time>2011-10-14T14:08:03Z</time>
      </trkpt>
      <trkpt lat="43.6905" lon="6.18758">
        <ele>922.799988</ele>
        <time>2011-10-14T14:08:12Z</time>
      </trkpt>
      <trkpt lat="43.69045" lon="6.18759">
        <ele>922.900024</ele>
        <time>2011-10-14T14:08:17Z</time>
      </trkpt>
      <trkpt lat="43.6904" lon="6.18761">
        <ele>922.900024</ele>
        <time>2011-10-14T14:08:22Z</time>
      </trkpt>
      <trkpt lat="43.69036" lon="6.18763">
        <ele>922.900024</ele>
        <time>2011-10-14T14:08:27Z</time>
      </trkpt>
      <trkpt lat="43.69033" lon="6.18766">
        <ele>923.200012</ele>
        <time>2011-10-14T14:08:32Z</time>
      </trkpt>
      <trkpt lat="43.6903" lon="6.18769">
        <ele>923.099976</ele>
        <time>2011-10-14T14:08:37Z</time>
      </trkpt>
      <trkpt lat="43.69029" lon="6.18772">
        <ele>923</ele>
        <time>2011-10-14T14:08:42Z</time>
      </trkpt>
      <trkpt lat="43.69027" lon="6.18777">
        <ele>923.400024</ele>
        <time>2011-10-14T14:08:47Z</time>
      </trkpt>
      <trkpt lat="43.69025" lon="6.18782">
        <ele>923.299988</ele>
        <time>2011-10-14T14:08:52Z</time>
      </trkpt>
      <trkpt lat="43.6902" lon="6.18788">
        <ele>923</ele>
        <time>2011-10-14T14:08:57Z</time>
      </trkpt>
      <trkpt lat="43.69019" lon="6.18794">
        <ele>923</ele>
        <time>2011-10-14T14:09:02Z</time>
      </trkpt>
      <trkpt lat="43.69016" lon="6.18799">
        <ele>923.299988</ele>
        <time>2011-10-14T14:09:07Z</time>
      </trkpt>
      <trkpt lat="43.69015" lon="6.188">
        <ele>923.5</ele>
        <time>2011-10-14T14:09:08Z</time>
      </trkpt>
      <trkpt lat="43.69007" lon="6.18809">
        <ele>923.400024</ele>
        <time>2011-10-14T14:09:17Z</time>
      </trkpt>
      <trkpt lat="43.69002" lon="6.18813">
        <ele>923.799988</ele>
        <time>2011-10-14T14:09:22Z</time>
      </trkpt>
      <trkpt lat="43.68997" lon="6.18817">
        <ele>923.900024</ele>
        <time>2011-10-14T14:09:27Z</time>
      </trkpt>
      <trkpt lat="43.68993" lon="6.1882">
        <ele>924.299988</ele>
        <time>2011-10-14T14:09:32Z</time>
      </trkpt>
      <trkpt lat="43.68992" lon="6.18826">
        <ele>924.200012</ele>
        <time>2011-10-14T14:09:37Z</time>
      </trkpt>
      <trkpt lat="43.68985" lon="6.18829">
        <ele>924.599976</ele>
        <time>2011-10-14T14:09:42Z</time>
      </trkpt>
      <trkpt lat="43.6898" lon="6.18829">
        <ele>924.900024</ele>
        <time>2011-10-14T14:09:47Z</time>
      </trkpt>
      <trkpt lat="43.68977" lon="6.18831">
        <ele>925</ele>
        <time>2011-10-14T14:09:52Z</time>
      </trkpt>
      <trkpt lat="43.68972" lon="6.18833">
        <ele>925.599976</ele>
        <time>2011-10-14T14:09:57Z</time>
      </trkpt>
      <trkpt lat="43.68967" lon="6.18834">
        <ele>925.900024</ele>
        <time>2011-10-14T14:10:02Z</time>
      </trkpt>
      <trkpt lat="43.68962" lon="6.18835">
        <ele>926.299988</ele>
        <time>2011-10-14T14:10:07Z</time>
      </trkpt>
      <trkpt lat="43.68959" lon="6.18834">
        <ele>926.400024</ele>
        <time>2011-10-14T14:10:12Z</time>
      </trkpt>
      <trkpt lat="43.68958" lon="6.18834">
        <ele>926.400024</ele>
        <time>2011-10-14T14:10:13Z</time>
      </trkpt>
      <trkpt lat="43.68952" lon="6.18835">
        <ele>926.400024</ele>
        <time>2011-10-14T14:10:22Z</time>
      </trkpt>
      <trkpt lat="43.68947" lon="6.18835">
        <ele>926.400024</ele>
        <time>2011-10-14T14:10:27Z</time>
      </trkpt>
      <trkpt lat="43.68948" lon="6.18838">
        <ele>926.099976</ele>
        <time>2011-10-14T14:10:32Z</time>
      </trkpt>
      <trkpt lat="43.68943" lon="6.18838">
        <ele>926.299988</ele>
        <time>2011-10-14T14:10:37Z</time>
      </trkpt>
      <trkpt lat="43.68937" lon="6.18838">
        <ele>926.099976</ele>
        <time>2011-10-14T14:10:42Z</time>
      </trkpt>
      <trkpt lat="43.68931" lon="6.18837">
        <ele>926.200012</ele>
        <time>2011-10-14T14:10:47Z</time>
      </trkpt>
      <trkpt lat="43.68925" lon="6.18837">
        <ele>926.5</ele>
        <time>2011-10-14T14:10:52Z</time>
      </trkpt>
      <trkpt lat="43.68919" lon="6.18839">
        <ele>926.299988</ele>
        <time>2011-10-14T14:10:57Z</time>
      </trkpt>
      <trkpt lat="43.68915" lon="6.18842">
        <ele>926.200012</ele>
        <time>2011-10-14T14:11:02Z</time>
      </trkpt>
      <trkpt lat="43.68911" lon="6.18844">
        <ele>925.900024</ele>
        <time>2011-10-14T14:11:07Z</time>
      </trkpt>
      <trkpt lat="43.68907" lon="6.18849">
        <ele>925.700012</ele>
        <time>2011-10-14T14:11:12Z</time>
      </trkpt>
      <trkpt lat="43.68904" lon="6.18855">
        <ele>926.099976</ele>
        <time>2011-10-14T14:11:17Z</time>
      </trkpt>
      <trkpt lat="43.68905" lon="6.18855">
        <ele>926.299988</ele>
        <time>2011-10-14T14:11:18Z</time>
      </trkpt>
      <trkpt lat="43.68902" lon="6.18865">
        <ele>925.700012</ele>
        <time>2011-10-14T14:11:27Z</time>
      </trkpt>
      <trkpt lat="43.68897" lon="6.18866">
        <ele>925.700012</ele>
        <time>2011-10-14T14:11:32Z</time>
      </trkpt>
      <trkpt lat="43.68896" lon="6.18866">
        <ele>925.599976</ele>
        <time>2011-10-14T14:11:37Z</time>
      </trkpt>
      <trkpt lat="43.68893" lon="6.18868">
        <ele>925.700012</ele>
        <time>2011-10-14T14:11:42Z</time>
      </trkpt>
      <trkpt lat="43.6889" lon="6.18874">
        <ele>925.5</ele>
        <time>2011-10-14T14:11:47Z</time>
      </trkpt>
      <trkpt lat="43.68886" lon="6.18877">
        <ele>925.299988</ele>
        <time>2011-10-14T14:11:52Z</time>
      </trkpt>
      <trkpt lat="43.68884" lon="6.1888">
        <ele>924.700012</ele>
        <time>2011-10-14T14:11:57Z</time>
      </trkpt>
      <trkpt lat="43.68883" lon="6.18882">
        <ele>925</ele>
        <time>2011-10-14T14:12:02Z</time>
      </trkpt>
      <trkpt lat="43.68879" lon="6.18885">
        <ele>924.400024</ele>
        <time>2011-10-14T14:12:07Z</time>
      </trkpt>
      <trkpt lat="43.68874" lon="6.18889">
        <ele>924</ele>
        <time>2011-10-14T14:12:12Z</time>
      </trkpt>
      <trkpt lat="43.68867" lon="6.18895">
        <ele>924.099976</ele>
        <time>2011-10-14T14:12:17Z</time>
      </trkpt>
      <trkpt lat="43.68866" lon="6.18898">
        <ele>923.5</ele>
        <time>2011-10-14T14:12:22Z</time>
      </trkpt>
      <trkpt lat="43.68867" lon="6.189">
        <ele>923.400024</ele>
        <time>2011-10-14T14:12:23Z</time>
      </trkpt>
      <trkpt lat="43.68862" lon="6.18904">
        <ele>923.200012</ele>
        <time>2011-10-14T14:12:32Z</time>
      </trkpt>
      <trkpt lat="43.6886" lon="6.18909">
        <ele>923.099976</ele>
        <time>2011-10-14T14:12:37Z</time>
      </trkpt>
      <trkpt lat="43.68853" lon="6.18912">
        <ele>922</ele>
        <time>2011-10-14T14:12:43Z</time>
      </trkpt>
      <trkpt lat="43.68849" lon="6.18913">
        <ele>922.299988</ele>
        <time>2011-10-14T14:12:48Z</time>
      </trkpt>
      <trkpt lat="43.68848" lon="6.18918">
        <ele>921.900024</ele>
        <time>2011-10-14T14:12:53Z</time>
      </trkpt>
      <trkpt lat="43.68847" lon="6.18919">
        <ele>922</ele>
        <time>2011-10-14T14:12:58Z</time>
      </trkpt>
      <trkpt lat="43.68843" lon="6.18923">
        <ele>921.5</ele>
        <time>2011-10-14T14:13:03Z</time>
      </trkpt>
      <trkpt lat="43.68839" lon="6.18928">
        <ele>920.5</ele>
        <time>2011-10-14T14:13:08Z</time>
      </trkpt>
      <trkpt lat="43.68835" lon="6.18933">
        <ele>920.400024</ele>
        <time>2011-10-14T14:13:13Z</time>
      </trkpt>
      <trkpt lat="43.68831" lon="6.18937">
        <ele>920.599976</ele>
        <time>2011-10-14T14:13:18Z</time>
      </trkpt>
      <trkpt lat="43.68827" lon="6.1894">
        <ele>921.200012</ele>
        <time>2011-10-14T14:13:23Z</time>
      </trkpt>
      <trkpt lat="43.68826" lon="6.18942">
        <ele>921.200012</ele>
        <time>2011-10-14T14:13:24Z</time>
      </trkpt>
      <trkpt lat="43.68822" lon="6.18946">
        <ele>921.099976</ele>
        <time>2011-10-14T14:13:33Z</time>
      </trkpt>
      <trkpt lat="43.6882" lon="6.18949">
        <ele>920.400024</ele>
        <time>2011-10-14T14:13:38Z</time>
      </trkpt>
      <trkpt lat="43.68815" lon="6.18953">
        <ele>919.900024</ele>
        <time>2011-10-14T14:13:43Z</time>
      </trkpt>
      <trkpt lat="43.6881" lon="6.18956">
        <ele>920</ele>
        <time>2011-10-14T14:13:48Z</time>
      </trkpt>
      <trkpt lat="43.68804" lon="6.18958">
        <ele>919.700012</ele>
        <time>2011-10-14T14:13:53Z</time>
      </trkpt>
      <trkpt lat="43.68802" lon="6.18964">
        <ele>919.200012</ele>
        <time>2011-10-14T14:13:58Z</time>
      </trkpt>
      <trkpt lat="43.68799" lon="6.18966">
        <ele>918.900024</ele>
        <time>2011-10-14T14:14:03Z</time>
      </trkpt>
      <trkpt lat="43.68794" lon="6.1897">
        <ele>918.400024</ele>
        <time>2011-10-14T14:14:08Z</time>
      </trkpt>
      <trkpt lat="43.68795" lon="6.18975">
        <ele>918</ele>
        <time>2011-10-14T14:14:13Z</time>
      </trkpt>
      <trkpt lat="43.68795" lon="6.1898">
        <ele>917.599976</ele>
        <time>2011-10-14T14:14:18Z</time>
      </trkpt>
      <trkpt lat="43.68793" lon="6.18985">
        <ele>916.900024</ele>
        <time>2011-10-14T14:14:23Z</time>
      </trkpt>
      <trkpt lat="43.6879" lon="6.1899">
        <ele>916.599976</ele>
        <time>2011-10-14T14:14:28Z</time>
      </trkpt>
      <trkpt lat="43.6879" lon="6.1899">
        <ele>916.299988</ele>
        <time>2011-10-14T14:14:29Z</time>
      </trkpt>
      <trkpt lat="43.68783" lon="6.18996">
        <ele>915.799988</ele>
        <time>2011-10-14T14:14:38Z</time>
      </trkpt>
      <trkpt lat="43.68779" lon="6.18999">
        <ele>915.900024</ele>
        <time>2011-10-14T14:14:43Z</time>
      </trkpt>
      <trkpt lat="43.68774" lon="6.19002">
        <ele>915.700012</ele>
        <time>2011-10-14T14:14:48Z</time>
      </trkpt>
      <trkpt lat="43.68766" lon="6.19003">
        <ele>914.799988</ele>
        <time>2011-10-14T14:14:53Z</time>
      </trkpt>
      <trkpt lat="43.68761" lon="6.19008">
        <ele>914.799988</ele>
        <time>2011-10-14T14:14:58Z</time>
      </trkpt>
      <trkpt lat="43.68757" lon="6.19012">
        <ele>914.299988</ele>
        <time>2011-10-14T14:15:03Z</time>
      </trkpt>
      <trkpt lat="43.68753" lon="6.19015">
        <ele>913.799988</ele>
        <time>2011-10-14T14:15:08Z</time>
      </trkpt>
      <trkpt lat="43.68748" lon="6.19017">
        <ele>914</ele>
        <time>2011-10-14T14:15:13Z</time>
      </trkpt>
      <trkpt lat="43.68744" lon="6.19021">
        <ele>913.5</ele>
        <time>2011-10-14T14:15:18Z</time>
      </trkpt>
      <trkpt lat="43.68739" lon="6.19022">
        <ele>913.299988</ele>
        <time>2011-10-14T14:15:23Z</time>
      </trkpt>
      <trkpt lat="43.68737" lon="6.19025">
        <ele>913.099976</ele>
        <time>2011-10-14T14:15:28Z</time>
      </trkpt>
      <trkpt lat="43.68732" lon="6.19025">
        <ele>912.5</ele>
        <time>2011-10-14T14:15:33Z</time>
      </trkpt>
      <trkpt lat="43.68732" lon="6.19026">
        <ele>912.5</ele>
        <time>2011-10-14T14:15:34Z</time>
      </trkpt>
      <trkpt lat="43.68725" lon="6.1903">
        <ele>912.5</ele>
        <time>2011-10-14T14:15:43Z</time>
      </trkpt>
      <trkpt lat="43.68723" lon="6.19034">
        <ele>912.099976</ele>
        <time>2011-10-14T14:15:48Z</time>
      </trkpt>
      <trkpt lat="43.68723" lon="6.19038">
        <ele>911.599976</ele>
        <time>2011-10-14T14:15:53Z</time>
      </trkpt>
      <trkpt lat="43.68721" lon="6.19039">
        <ele>911.700012</ele>
        <time>2011-10-14T14:15:58Z</time>
      </trkpt>
      <trkpt lat="43.68716" lon="6.19042">
        <ele>911.900024</ele>
        <time>2011-10-14T14:16:03Z</time>
      </trkpt>
      <trkpt lat="43.6871" lon="6.19043">
        <ele>911.599976</ele>
        <time>2011-10-14T14:16:08Z</time>
      </trkpt>
      <trkpt lat="43.68709" lon="6.19042">
        <ele>911.5</ele>
        <time>2011-10-14T14:16:13Z</time>
      </trkpt>
      <trkpt lat="43.68706" lon="6.19042">
        <ele>911.5</ele>
        <time>2011-10-14T14:16:18Z</time>
      </trkpt>
      <trkpt lat="43.68704" lon="6.19042">
        <ele>911.799988</ele>
        <time>2011-10-14T14:16:23Z</time>
      </trkpt>
      <trkpt lat="43.68702" lon="6.19043">
        <ele>911.900024</ele>
        <time>2011-10-14T14:16:28Z</time>
      </trkpt>
      <trkpt lat="43.68698" lon="6.19044">
        <ele>911.799988</ele>
        <time>2011-10-14T14:16:33Z</time>
      </trkpt>
      <trkpt lat="43.68696" lon="6.19047">
        <ele>911.299988</ele>
        <time>2011-10-14T14:16:38Z</time>
      </trkpt>
      <trkpt lat="43.68696" lon="6.19047">
        <ele>911.5</ele>
        <time>2011-10-14T14:16:39Z</time>
      </trkpt>
      <trkpt lat="43.68687" lon="6.19052">
        <ele>911.5</ele>
        <time>2011-10-14T14:16:48Z</time>
      </trkpt>
      <trkpt lat="43.68685" lon="6.19053">
        <ele>911.299988</ele>
        <time>2011-10-14T14:16:53Z</time>
      </trkpt>
      <trkpt lat="43.68683" lon="6.19056">
        <ele>911.599976</ele>
        <time>2011-10-14T14:16:58Z</time>
      </trkpt>
      <trkpt lat="43.68679" lon="6.19058">
        <ele>911.400024</ele>
        <time>2011-10-14T14:17:03Z</time>
      </trkpt>
      <trkpt lat="43.68674" lon="6.1906">
        <ele>911.5</ele>
        <time>2011-10-14T14:17:08Z</time>
      </trkpt>
      <trkpt lat="43.68674" lon="6.19062">
        <ele>911.700012</ele>
        <time>2011-10-14T14:17:13Z</time>
      </trkpt>
      <trkpt lat="43.68673" lon="6.19063">
        <ele>911.900024</ele>
        <time>2011-10-14T14:17:18Z</time>
      </trkpt>
      <trkpt lat="43.68672" lon="6.19064">
        <ele>911.799988</ele>
        <time>2011-10-14T14:17:23Z</time>
      </trkpt>
      <trkpt lat="43.68671" lon="6.19064">
        <ele>911.900024</ele>
        <time>2011-10-14T14:17:28Z</time>
      </trkpt>
      <trkpt lat="43.68669" lon="6.19066">
        <ele>911.5</ele>
        <time>2011-10-14T14:17:33Z</time>
      </trkpt>
      <trkpt lat="43.6867" lon="6.19066">
        <ele>911.799988</ele>
        <time>2011-10-14T14:17:38Z</time>
      </trkpt>
      <trkpt lat="43.68668" lon="6.19068">
        <ele>912.200012</ele>
        <time>2011-10-14T14:17:43Z</time>
      </trkpt>
      <trkpt lat="43.68669" lon="6.19068">
        <ele>912.099976</ele>
        <time>2011-10-14T14:17:44Z</time>
      </trkpt>
      <trkpt lat="43.68672" lon="6.19068">
        <ele>911.700012</ele>
        <time>2011-10-14T14:17:53Z</time>
      </trkpt>
      <trkpt lat="43.6867" lon="6.19066">
        <ele>911.900024</ele>
        <time>2011-10-14T14:17:58Z</time>
      </trkpt>
      <trkpt lat="43.68671" lon="6.19066">
        <ele>912</ele>
        <time>2011-10-14T14:18:03Z</time>
      </trkpt>
      <trkpt lat="43.68671" lon="6.19066">
        <ele>912.200012</ele>
        <time>2011-10-14T14:18:08Z</time>
      </trkpt>
      <trkpt lat="43.6867" lon="6.19066">
        <ele>912</ele>
        <time>2011-10-14T14:18:13Z</time>
      </trkpt>
      <trkpt lat="43.68671" lon="6.19068">
        <ele>911.700012</ele>
        <time>2011-10-14T14:18:18Z</time>
      </trkpt>
      <trkpt lat="43.68671" lon="6.19069">
        <ele>911.700012</ele>
        <time>2011-10-14T14:18:23Z</time>
      </trkpt>
      <trkpt lat="43.68669" lon="6.19068">
        <ele>912</ele>
        <time>2011-10-14T14:18:28Z</time>
      </trkpt>
      <trkpt lat="43.68668" lon="6.19062">
        <ele>912</ele>
        <time>2011-10-14T14:18:33Z</time>
      </trkpt>
      <trkpt lat="43.6867" lon="6.19064">
        <ele>911.799988</ele>
        <time>2011-10-14T14:18:38Z</time>
      </trkpt>
      <trkpt lat="43.6867" lon="6.19065">
        <ele>911.799988</ele>
        <time>2011-10-14T14:18:43Z</time>
      </trkpt>
      <trkpt lat="43.68667" lon="6.19065">
        <ele>912</ele>
        <time>2011-10-14T14:18:48Z</time>
      </trkpt>
      <trkpt lat="43.68666" lon="6.19065">
        <ele>912</ele>
        <time>2011-10-14T14:18:49Z</time>
      </trkpt>
      <trkpt lat="43.6866" lon="6.19065">
        <ele>912.099976</ele>
        <time>2011-10-14T14:18:58Z</time>
      </trkpt>
      <trkpt lat="43.68655" lon="6.19063">
        <ele>912.5</ele>
        <time>2011-10-14T14:19:03Z</time>
      </trkpt>
      <trkpt lat="43.68653" lon="6.19058">
        <ele>912</ele>
        <time>2011-10-14T14:19:08Z</time>
      </trkpt>
      <trkpt lat="43.68651" lon="6.19054">
        <ele>912.099976</ele>
        <time>2011-10-14T14:19:13Z</time>
      </trkpt>
      <trkpt lat="43.6865" lon="6.19049">
        <ele>911.700012</ele>
        <time>2011-10-14T14:19:18Z</time>
      </trkpt>
      <trkpt lat="43.68646" lon="6.19046">
        <ele>911.5</ele>
        <time>2011-10-14T14:19:23Z</time>
      </trkpt>
      <trkpt lat="43.68643" lon="6.19042">
        <ele>911.299988</ele>
        <time>2011-10-14T14:19:28Z</time>
      </trkpt>
      <trkpt lat="43.68639" lon="6.19041">
        <ele>910.799988</ele>
        <time>2011-10-14T14:19:33Z</time>
      </trkpt>
      <trkpt lat="43.68637" lon="6.19038">
        <ele>910.5</ele>
        <time>2011-10-14T14:19:38Z</time>
      </trkpt>
      <trkpt lat="43.68633" lon="6.19034">
        <ele>910.200012</ele>
        <time>2011-10-14T14:19:43Z</time>
      </trkpt>
      <trkpt lat="43.68632" lon="6.19028">
        <ele>910</ele>
        <time>2011-10-14T14:19:48Z</time>
      </trkpt>
      <trkpt lat="43.68632" lon="6.19021">
        <ele>909.299988</ele>
        <time>2011-10-14T14:19:53Z</time>
      </trkpt>
      <trkpt lat="43.68633" lon="6.1902">
        <ele>909.200012</ele>
        <time>2011-10-14T14:19:54Z</time>
      </trkpt>
      <trkpt lat="43.68632" lon="6.1901">
        <ele>908.400024</ele>
        <time>2011-10-14T14:20:03Z</time>
      </trkpt>
      <trkpt lat="43.68633" lon="6.19004">
        <ele>907.5</ele>
        <time>2011-10-14T14:20:08Z</time>
      </trkpt>
      <trkpt lat="43.68634" lon="6.18997">
        <ele>907</ele>
        <time>2011-10-14T14:20:13Z</time>
      </trkpt>
      <trkpt lat="43.68635" lon="6.18991">
        <ele>906.400024</ele>
        <time>2011-10-14T14:20:18Z</time>
      </trkpt>
      <trkpt lat="43.68634" lon="6.18987">
        <ele>906.099976</ele>
        <time>2011-10-14T14:20:23Z</time>
      </trkpt>
      <trkpt lat="43.68635" lon="6.18986">
        <ele>905.5</ele>
        <time>2011-10-14T14:20:28Z</time>
      </trkpt>
      <trkpt lat="43.68634" lon="6.18985">
        <ele>905</ele>
        <time>2011-10-14T14:20:33Z</time>
      </trkpt>
      <trkpt lat="43.68634" lon="6.18982">
        <ele>904.5</ele>
        <time>2011-10-14T14:20:38Z</time>
      </trkpt>
      <trkpt lat="43.68633" lon="6.1898">
        <ele>904.299988</ele>
        <time>2011-10-14T14:20:43Z</time>
      </trkpt>
      <trkpt lat="43.68632" lon="6.1898">
        <ele>904</ele>
        <time>2011-10-14T14:20:48Z</time>
      </trkpt>
      <trkpt lat="43.68632" lon="6.18977">
        <ele>903.700012</ele>
        <time>2011-10-14T14:20:53Z</time>
      </trkpt>
      <trkpt lat="43.68631" lon="6.18974">
        <ele>903.200012</ele>
        <time>2011-10-14T14:20:58Z</time>
      </trkpt>
      <trkpt lat="43.68631" lon="6.18973">
        <ele>903.200012</ele>
        <time>2011-10-14T14:20:59Z</time>
      </trkpt>
      <trkpt lat="43.68631" lon="6.18965">
        <ele>901.900024</ele>
        <time>2011-10-14T14:21:08Z</time>
      </trkpt>
      <trkpt lat="43.68631" lon="6.18961">
        <ele>901.200012</ele>
        <time>2011-10-14T14:21:13Z</time>
      </trkpt>
      <trkpt lat="43.68632" lon="6.18956">
        <ele>900.900024</ele>
        <time>2011-10-14T14:21:18Z</time>
      </trkpt>
      <trkpt lat="43.68631" lon="6.18953">
        <ele>900.5</ele>
        <time>2011-10-14T14:21:23Z</time>
      </trkpt>
      <trkpt lat="43.68631" lon="6.1895">
        <ele>899.799988</ele>
        <time>2011-10-14T14:21:28Z</time>
      </trkpt>
      <trkpt lat="43.68631" lon="6.18946">
        <ele>898.900024</ele>
        <time>2011-10-14T14:21:33Z</time>
      </trkpt>
      <trkpt lat="43.6863" lon="6.18942">
        <ele>898</ele>
        <time>2011-10-14T14:21:38Z</time>
      </trkpt>
      <trkpt lat="43.68629" lon="6.18939">
        <ele>897.299988</ele>
        <time>2011-10-14T14:21:43Z</time>
      </trkpt>
      <trkpt lat="43.68629" lon="6.18936">
        <ele>896.400024</ele>
        <time>2011-10-14T14:21:48Z</time>
      </trkpt>
      <trkpt lat="43.68628" lon="6.18933">
        <ele>896</ele>
        <time>2011-10-14T14:21:53Z</time>
      </trkpt>
      <trkpt lat="43.68629" lon="6.18929">
        <ele>895.200012</ele>
        <time>2011-10-14T14:21:58Z</time>
      </trkpt>
      <trkpt lat="43.68628" lon="6.18925">
        <ele>895.099976</ele>
        <time>2011-10-14T14:22:03Z</time>
      </trkpt>
      <trkpt lat="43.68628" lon="6.18924">
        <ele>894.900024</ele>
        <time>2011-10-14T14:22:04Z</time>
      </trkpt>
      <trkpt lat="43.68628" lon="6.18916">
        <ele>893.299988</ele>
        <time>2011-10-14T14:22:13Z</time>
      </trkpt>
      <trkpt lat="43.68627" lon="6.18912">
        <ele>892.299988</ele>
        <time>2011-10-14T14:22:18Z</time>
      </trkpt>
      <trkpt lat="43.68627" lon="6.18909">
        <ele>891.400024</ele>
        <time>2011-10-14T14:22:23Z</time>
      </trkpt>
      <trkpt lat="43.68628" lon="6.18904">
        <ele>890.299988</ele>
        <time>2011-10-14T14:22:28Z</time>
      </trkpt>
      <trkpt lat="43.6863" lon="6.18901">
        <ele>889.900024</ele>
        <time>2011-10-14T14:22:33Z</time>
      </trkpt>
      <trkpt lat="43.68631" lon="6.18897">
        <ele>889.200012</ele>
        <time>2011-10-14T14:22:38Z</time>
      </trkpt>
      <trkpt lat="43.68632" lon="6.18893">
        <ele>888.400024</ele>
        <time>2011-10-14T14:22:43Z</time>
      </trkpt>
      <trkpt lat="43.68636" lon="6.18892">
        <ele>887.5</ele>
        <time>2011-10-14T14:22:48Z</time>
      </trkpt>
      <trkpt lat="43.68638" lon="6.18888">
        <ele>886.799988</ele>
        <time>2011-10-14T14:22:53Z</time>
      </trkpt>
      <trkpt lat="43.68638" lon="6.18885">
        <ele>885.799988</ele>
        <time>2011-10-14T14:22:58Z</time>
      </trkpt>
      <trkpt lat="43.68638" lon="6.18883">
        <ele>884.900024</ele>
        <time>2011-10-14T14:23:03Z</time>
      </trkpt>
      <trkpt lat="43.68638" lon="6.18878">
        <ele>883.799988</ele>
        <time>2011-10-14T14:23:08Z</time>
      </trkpt>
      <trkpt lat="43.68639" lon="6.18878">
        <ele>883.700012</ele>
        <time>2011-10-14T14:23:09Z</time>
      </trkpt>
      <trkpt lat="43.68638" lon="6.18872">
        <ele>882.099976</ele>
        <time>2011-10-14T14:23:18Z</time>
      </trkpt>
      <trkpt lat="43.68636" lon="6.1887">
        <ele>881.299988</ele>
        <time>2011-10-14T14:23:23Z</time>
      </trkpt>
      <trkpt lat="43.68636" lon="6.18865">
        <ele>880.400024</ele>
        <time>2011-10-14T14:23:28Z</time>
      </trkpt>
      <trkpt lat="43.68636" lon="6.18861">
        <ele>878.799988</ele>
        <time>2011-10-14T14:23:33Z</time>
      </trkpt>
      <trkpt lat="43.68637" lon="6.18857">
        <ele>877.599976</ele>
        <time>2011-10-14T14:23:38Z</time>
      </trkpt>
      <trkpt lat="43.68638" lon="6.18853">
        <ele>876.599976</ele>
        <time>2011-10-14T14:23:43Z</time>
      </trkpt>
      <trkpt lat="43.68639" lon="6.1885">
        <ele>876.700012</ele>
        <time>2011-10-14T14:23:48Z</time>
      </trkpt>
      <trkpt lat="43.68639" lon="6.18847">
        <ele>875.900024</ele>
        <time>2011-10-14T14:23:53Z</time>
      </trkpt>
      <trkpt lat="43.68639" lon="6.18841">
        <ele>875.400024</ele>
        <time>2011-10-14T14:23:58Z</time>
      </trkpt>
      <trkpt lat="43.68639" lon="6.18837">
        <ele>874.200012</ele>
        <time>2011-10-14T14:24:03Z</time>
      </trkpt>
      <trkpt lat="43.68638" lon="6.18834">
        <ele>872.700012</ele>
        <time>2011-10-14T14:24:08Z</time>
      </trkpt>
      <trkpt lat="43.68636" lon="6.18831">
        <ele>872.099976</ele>
        <time>2011-10-14T14:24:13Z</time>
      </trkpt>
      <trkpt lat="43.68636" lon="6.18831">
        <ele>871.900024</ele>
        <time>2011-10-14T14:24:14Z</time>
      </trkpt>
      <trkpt lat="43.68636" lon="6.18823">
        <ele>869.900024</ele>
        <time>2011-10-14T14:24:23Z</time>
      </trkpt>
      <trkpt lat="43.68637" lon="6.18819">
        <ele>869</ele>
        <time>2011-10-14T14:24:28Z</time>
      </trkpt>
      <trkpt lat="43.68639" lon="6.18816">
        <ele>867.700012</ele>
        <time>2011-10-14T14:24:33Z</time>
      </trkpt>
      <trkpt lat="43.6864" lon="6.18812">
        <ele>866.599976</ele>
        <time>2011-10-14T14:24:38Z</time>
      </trkpt>
      <trkpt lat="43.6864" lon="6.1881">
        <ele>865.700012</ele>
        <time>2011-10-14T14:24:43Z</time>
      </trkpt>
      <trkpt lat="43.6864" lon="6.18807">
        <ele>864.400024</ele>
        <time>2011-10-14T14:24:48Z</time>
      </trkpt>
      <trkpt lat="43.68639" lon="6.18804">
        <ele>863.299988</ele>
        <time>2011-10-14T14:24:53Z</time>
      </trkpt>
      <trkpt lat="43.68637" lon="6.18801">
        <ele>862.200012</ele>
        <time>2011-10-14T14:24:58Z</time>
      </trkpt>
      <trkpt lat="43.68638" lon="6.18796">
        <ele>861.200012</ele>
        <time>2011-10-14T14:25:03Z</time>
      </trkpt>
      <trkpt lat="43.68639" lon="6.1879">
        <ele>860.400024</ele>
        <time>2011-10-14T14:25:08Z</time>
      </trkpt>
      <trkpt lat="43.6864" lon="6.18785">
        <ele>859.5</ele>
        <time>2011-10-14T14:25:13Z</time>
      </trkpt>
      <trkpt lat="43.68641" lon="6.18781">
        <ele>858</ele>
        <time>2011-10-14T14:25:18Z</time>
      </trkpt>
      <trkpt lat="43.68641" lon="6.1878">
        <ele>857.799988</ele>
        <time>2011-10-14T14:25:19Z</time>
      </trkpt>
      <trkpt lat="43.68645" lon="6.18773">
        <ele>856</ele>
        <time>2011-10-14T14:25:28Z</time>
      </trkpt>
      <trkpt lat="43.68644" lon="6.1877">
        <ele>854.700012</ele>
        <time>2011-10-14T14:25:33Z</time>
      </trkpt>
      <trkpt lat="43.68643" lon="6.18767">
        <ele>853.400024</ele>
        <time>2011-10-14T14:25:38Z</time>
      </trkpt>
      <trkpt lat="43.6864" lon="6.18763">
        <ele>852.299988</ele>
        <time>2011-10-14T14:25:43Z</time>
      </trkpt>
      <trkpt lat="43.68639" lon="6.18759">
        <ele>850.900024</ele>
        <time>2011-10-14T14:25:48Z</time>
      </trkpt>
      <trkpt lat="43.68638" lon="6.18758">
        <ele>849.599976</ele>
        <time>2011-10-14T14:25:53Z</time>
      </trkpt>
      <trkpt lat="43.68636" lon="6.18755">
        <ele>849.200012</ele>
        <time>2011-10-14T14:25:58Z</time>
      </trkpt>
      <trkpt lat="43.68635" lon="6.18751">
        <ele>848.599976</ele>
        <time>2011-10-14T14:26:03Z</time>
      </trkpt>
      <trkpt lat="43.68636" lon="6.18743">
        <ele>847.400024</ele>
        <time>2011-10-14T14:26:08Z</time>
      </trkpt>
      <trkpt lat="43.68635" lon="6.18737">
        <ele>846.400024</ele>
        <time>2011-10-14T14:26:13Z</time>
      </trkpt>
      <trkpt lat="43.68633" lon="6.18736">
        <ele>845.200012</ele>
        <time>2011-10-14T14:26:18Z</time>
      </trkpt>
      <trkpt lat="43.68629" lon="6.18733">
        <ele>844.5</ele>
        <time>2011-10-14T14:26:23Z</time>
      </trkpt>
      <trkpt lat="43.68628" lon="6.18732">
        <ele>844.400024</ele>
        <time>2011-10-14T14:26:24Z</time>
      </trkpt>
      <trkpt lat="43.68625" lon="6.18725">
        <ele>842.5</ele>
        <time>2011-10-14T14:26:33Z</time>
      </trkpt>
      <trkpt lat="43.68625" lon="6.18719">
        <ele>841.299988</ele>
        <time>2011-10-14T14:26:38Z</time>
      </trkpt>
      <trkpt lat="43.68626" lon="6.18714">
        <ele>840.099976</ele>
        <time>2011-10-14T14:26:43Z</time>
      </trkpt>
      <trkpt lat="43.68626" lon="6.18708">
        <ele>838.900024</ele>
        <time>2011-10-14T14:26:48Z</time>
      </trkpt>
      <trkpt lat="43.68626" lon="6.18705">
        <ele>837.599976</ele>
        <time>2011-10-14T14:26:53Z</time>
      </trkpt>
      <trkpt lat="43.68628" lon="6.187">
        <ele>836.700012</ele>
        <time>2011-10-14T14:26:58Z</time>
      </trkpt>
      <trkpt lat="43.68627" lon="6.18694">
        <ele>835.599976</ele>
        <time>2011-10-14T14:27:03Z</time>
      </trkpt>
      <trkpt lat="43.68626" lon="6.18689">
        <ele>834</ele>
        <time>2011-10-14T14:27:08Z</time>
      </trkpt>
      <trkpt lat="43.68626" lon="6.18684">
        <ele>832.599976</ele>
        <time>2011-10-14T14:27:13Z</time>
      </trkpt>
      <trkpt lat="43.68626" lon="6.18678">
        <ele>831.700012</ele>
        <time>2011-10-14T14:27:18Z</time>
      </trkpt>
      <trkpt lat="43.68624" lon="6.18672">
        <ele>830.099976</ele>
        <time>2011-10-14T14:27:23Z</time>
      </trkpt>
      <trkpt lat="43.68624" lon="6.18665">
        <ele>829.099976</ele>
        <time>2011-10-14T14:27:28Z</time>
      </trkpt>
      <trkpt lat="43.68624" lon="6.18665">
        <ele>828.599976</ele>
        <time>2011-10-14T14:27:29Z</time>
      </trkpt>
      <trkpt lat="43.68619" lon="6.18656">
        <ele>826.099976</ele>
        <time>2011-10-14T14:27:38Z</time>
      </trkpt>
      <trkpt lat="43.68619" lon="6.18649">
        <ele>824.799988</ele>
        <time>2011-10-14T14:27:43Z</time>
      </trkpt>
      <trkpt lat="43.68617" lon="6.18642">
        <ele>823.400024</ele>
        <time>2011-10-14T14:27:48Z</time>
      </trkpt>
      <trkpt lat="43.68616" lon="6.18638">
        <ele>822.5</ele>
        <time>2011-10-14T14:27:53Z</time>
      </trkpt>
      <trkpt lat="43.68612" lon="6.18635">
        <ele>821.900024</ele>
        <time>2011-10-14T14:27:58Z</time>
      </trkpt>
      <trkpt lat="43.6861" lon="6.18633">
        <ele>821.5</ele>
        <time>2011-10-14T14:28:03Z</time>
      </trkpt>
      <trkpt lat="43.68609" lon="6.1863">
        <ele>821.700012</ele>
        <time>2011-10-14T14:28:08Z</time>
      </trkpt>
      <trkpt lat="43.68608" lon="6.18625">
        <ele>821.200012</ele>
        <time>2011-10-14T14:28:13Z</time>
      </trkpt>
      <trkpt lat="43.68606" lon="6.18622">
        <ele>821.900024</ele>
        <time>2011-10-14T14:28:18Z</time>
      </trkpt>
      <trkpt lat="43.68604" lon="6.1862">
        <ele>821.900024</ele>
        <time>2011-10-14T14:28:23Z</time>
      </trkpt>
      <trkpt lat="43.68601" lon="6.1862">
        <ele>821.700012</ele>
        <time>2011-10-14T14:28:28Z</time>
      </trkpt>
      <trkpt lat="43.68601" lon="6.18621">
        <ele>821.900024</ele>
        <time>2011-10-14T14:28:33Z</time>
      </trkpt>
      <trkpt lat="43.68601" lon="6.18622">
        <ele>821.799988</ele>
        <time>2011-10-14T14:28:34Z</time>
      </trkpt>
      <trkpt lat="43.686" lon="6.18623">
        <ele>822.200012</ele>
        <time>2011-10-14T14:28:43Z</time>
      </trkpt>
      <trkpt lat="43.686" lon="6.1862">
        <ele>821.799988</ele>
        <time>2011-10-14T14:28:48Z</time>
      </trkpt>
      <trkpt lat="43.686" lon="6.1862">
        <ele>821.900024</ele>
        <time>2011-10-14T14:28:53Z</time>
      </trkpt>
      <trkpt lat="43.68599" lon="6.18622">
        <ele>821.799988</ele>
        <time>2011-10-14T14:28:58Z</time>
      </trkpt>
      <trkpt lat="43.68599" lon="6.18622">
        <ele>821.700012</ele>
        <time>2011-10-14T14:29:03Z</time>
      </trkpt>
      <trkpt lat="43.68598" lon="6.18621">
        <ele>821.900024</ele>
        <time>2011-10-14T14:29:08Z</time>
      </trkpt>
      <trkpt lat="43.68598" lon="6.18621">
        <ele>821.799988</ele>
        <time>2011-10-14T14:29:13Z</time>
      </trkpt>
      <trkpt lat="43.68598" lon="6.18621">
        <ele>821.799988</ele>
        <time>2011-10-14T14:29:18Z</time>
      </trkpt>
      <trkpt lat="43.686" lon="6.18621">
        <ele>821.900024</ele>
        <time>2011-10-14T14:29:23Z</time>
      </trkpt>
      <trkpt lat="43.686" lon="6.18622">
        <ele>822</ele>
        <time>2011-10-14T14:29:28Z</time>
      </trkpt>
      <trkpt lat="43.68599" lon="6.18623">
        <ele>821.700012</ele>
        <time>2011-10-14T14:29:33Z</time>
      </trkpt>
      <trkpt lat="43.68597" lon="6.18623">
        <ele>821.700012</ele>
        <time>2011-10-14T14:29:38Z</time>
      </trkpt>
      <trkpt lat="43.68597" lon="6.18622">
        <ele>821.700012</ele>
        <time>2011-10-14T14:29:39Z</time>
      </trkpt>
      <trkpt lat="43.68595" lon="6.18618">
        <ele>821.299988</ele>
        <time>2011-10-14T14:29:48Z</time>
      </trkpt>
      <trkpt lat="43.68592" lon="6.18619">
        <ele>821.099976</ele>
        <time>2011-10-14T14:29:53Z</time>
      </trkpt>
      <trkpt lat="43.68588" lon="6.1862">
        <ele>821</ele>
        <time>2011-10-14T14:29:58Z</time>
      </trkpt>
      <trkpt lat="43.68585" lon="6.1862">
        <ele>821.299988</ele>
        <time>2011-10-14T14:30:03Z</time>
      </trkpt>
      <trkpt lat="43.68584" lon="6.1862">
        <ele>821.400024</ele>
        <time>2011-10-14T14:30:08Z</time>
      </trkpt>
      <trkpt lat="43.6858" lon="6.18618">
        <ele>821.099976</ele>
        <time>2011-10-14T14:30:13Z</time>
      </trkpt>
      <trkpt lat="43.68576" lon="6.18618">
        <ele>820.599976</ele>
        <time>2011-10-14T14:30:18Z</time>
      </trkpt>
      <trkpt lat="43.68574" lon="6.18616">
        <ele>820.700012</ele>
        <time>2011-10-14T14:30:23Z</time>
      </trkpt>
      <trkpt lat="43.68573" lon="6.18616">
        <ele>820.700012</ele>
        <time>2011-10-14T14:30:28Z</time>
      </trkpt>
      <trkpt lat="43.68572" lon="6.18614">
        <ele>821.099976</ele>
        <time>2011-10-14T14:30:33Z</time>
      </trkpt>
      <trkpt lat="43.6857" lon="6.18608">
        <ele>820.700012</ele>
        <time>2011-10-14T14:30:38Z</time>
      </trkpt>
      <trkpt lat="43.6857" lon="6.18606">
        <ele>820.5</ele>
        <time>2011-10-14T14:30:43Z</time>
      </trkpt>
      <trkpt lat="43.68571" lon="6.18606">
        <ele>820.5</ele>
        <time>2011-10-14T14:30:44Z</time>
      </trkpt>
      <trkpt lat="43.68571" lon="6.18602">
        <ele>820.299988</ele>
        <time>2011-10-14T14:30:53Z</time>
      </trkpt>
      <trkpt lat="43.6857" lon="6.18599">
        <ele>820.299988</ele>
        <time>2011-10-14T14:30:58Z</time>
      </trkpt>
      <trkpt lat="43.68569" lon="6.186">
        <ele>819.900024</ele>
        <time>2011-10-14T14:31:03Z</time>
      </trkpt>
      <trkpt lat="43.68569" lon="6.18599">
        <ele>819.900024</ele>
        <time>2011-10-14T14:31:08Z</time>
      </trkpt>
      <trkpt lat="43.68568" lon="6.18598">
        <ele>819.799988</ele>
        <time>2011-10-14T14:31:13Z</time>
      </trkpt>
      <trkpt lat="43.68568" lon="6.18595">
        <ele>820</ele>
        <time>2011-10-14T14:31:18Z</time>
      </trkpt>
      <trkpt lat="43.68568" lon="6.18597">
        <ele>819.799988</ele>
        <time>2011-10-14T14:31:23Z</time>
      </trkpt>
      <trkpt lat="43.68567" lon="6.18599">
        <ele>820.099976</ele>
        <time>2011-10-14T14:31:28Z</time>
      </trkpt>
      <trkpt lat="43.6857" lon="6.18598">
        <ele>820</ele>
        <time>2011-10-14T14:31:33Z</time>
      </trkpt>
      <trkpt lat="43.68573" lon="6.18595">
        <ele>819.900024</ele>
        <time>2011-10-14T14:31:38Z</time>
      </trkpt>
      <trkpt lat="43.68576" lon="6.18593">
        <ele>819.799988</ele>
        <time>2011-10-14T14:31:43Z</time>
      </trkpt>
      <trkpt lat="43.68582" lon="6.18589">
        <ele>819.799988</ele>
        <time>2011-10-14T14:31:48Z</time>
      </trkpt>
      <trkpt lat="43.68581" lon="6.18589">
        <ele>819.900024</ele>
        <time>2011-10-14T14:31:49Z</time>
      </trkpt>
      <trkpt lat="43.68579" lon="6.18592">
        <ele>820.299988</ele>
        <time>2011-10-14T14:31:58Z</time>
      </trkpt>
      <trkpt lat="43.68579" lon="6.18595">
        <ele>820.200012</ele>
        <time>2011-10-14T14:32:03Z</time>
      </trkpt>
      <trkpt lat="43.68579" lon="6.18596">
        <ele>819.900024</ele>
        <time>2011-10-14T14:32:08Z</time>
      </trkpt>
      <trkpt lat="43.68578" lon="6.18595">
        <ele>820.200012</ele>
        <time>2011-10-14T14:32:13Z</time>
      </trkpt>
      <trkpt lat="43.68575" lon="6.18595">
        <ele>820.099976</ele>
        <time>2011-10-14T14:32:18Z</time>
      </trkpt>
      <trkpt lat="43.68574" lon="6.18598">
        <ele>819.700012</ele>
        <time>2011-10-14T14:32:23Z</time>
      </trkpt>
      <trkpt lat="43.68573" lon="6.18599">
        <ele>820</ele>
        <time>2011-10-14T14:32:28Z</time>
      </trkpt>
      <trkpt lat="43.68574" lon="6.18601">
        <ele>819.799988</ele>
        <time>2011-10-14T14:32:33Z</time>
      </trkpt>
      <trkpt lat="43.68578" lon="6.18598">
        <ele>820.5</ele>
        <time>2011-10-14T14:32:38Z</time>
      </trkpt>
      <trkpt lat="43.68579" lon="6.18596">
        <ele>820.400024</ele>
        <time>2011-10-14T14:32:43Z</time>
      </trkpt>
      <trkpt lat="43.68579" lon="6.18595">
        <ele>820.200012</ele>
        <time>2011-10-14T14:32:48Z</time>
      </trkpt>
      <trkpt lat="43.6858" lon="6.18593">
        <ele>820.200012</ele>
        <time>2011-10-14T14:32:53Z</time>
      </trkpt>
      <trkpt lat="43.6858" lon="6.18593">
        <ele>820.200012</ele>
        <time>2011-10-14T14:32:54Z</time>
      </trkpt>
      <trkpt lat="43.6858" lon="6.18593">
        <ele>820.400024</ele>
        <time>2011-10-14T14:33:03Z</time>
      </trkpt>
      <trkpt lat="43.68579" lon="6.18594">
        <ele>819.900024</ele>
        <time>2011-10-14T14:33:08Z</time>
      </trkpt>
      <trkpt lat="43.68578" lon="6.18595">
        <ele>820.099976</ele>
        <time>2011-10-14T14:33:13Z</time>
      </trkpt>
      <trkpt lat="43.68578" lon="6.18596">
        <ele>820</ele>
        <time>2011-10-14T14:33:18Z</time>
      </trkpt>
      <trkpt lat="43.68577" lon="6.18596">
        <ele>820</ele>
        <time>2011-10-14T14:33:23Z</time>
      </trkpt>
      <trkpt lat="43.68577" lon="6.18596">
        <ele>820.099976</ele>
        <time>2011-10-14T14:33:28Z</time>
      </trkpt>
      <trkpt lat="43.68579" lon="6.18595">
        <ele>819.900024</ele>
        <time>2011-10-14T14:33:33Z</time>
      </trkpt>
      <trkpt lat="43.68581" lon="6.18592">
        <ele>819.900024</ele>
        <time>2011-10-14T14:33:38Z</time>
      </trkpt>
      <trkpt lat="43.68579" lon="6.18592">
        <ele>819.799988</ele>
        <time>2011-10-14T14:33:43Z</time>
      </trkpt>
      <trkpt lat="43.68576" lon="6.18592">
        <ele>819.700012</ele>
        <time>2011-10-14T14:33:48Z</time>
      </trkpt>
      <trkpt lat="43.68573" lon="6.18592">
        <ele>819.599976</ele>
        <time>2011-10-14T14:33:53Z</time>
      </trkpt>
      <trkpt lat="43.68571" lon="6.1859">
        <ele>819.900024</ele>
        <time>2011-10-14T14:33:58Z</time>
      </trkpt>
      <trkpt lat="43.68571" lon="6.1859">
        <ele>819.799988</ele>
        <time>2011-10-14T14:33:59Z</time>
      </trkpt>
      <trkpt lat="43.68571" lon="6.18591">
        <ele>819.700012</ele>
        <time>2011-10-14T14:34:08Z</time>
      </trkpt>
      <trkpt lat="43.68571" lon="6.18591">
        <ele>819.700012</ele>
        <time>2011-10-14T14:34:13Z</time>
      </trkpt>
      <trkpt lat="43.68571" lon="6.18591">
        <ele>819.599976</ele>
        <time>2011-10-14T14:34:18Z</time>
      </trkpt>
      <trkpt lat="43.68571" lon="6.18592">
        <ele>819.400024</ele>
        <time>2011-10-14T14:34:23Z</time>
      </trkpt>
      <trkpt lat="43.68571" lon="6.18592">
        <ele>819.599976</ele>
        <time>2011-10-14T14:34:28Z</time>
      </trkpt>
      <trkpt lat="43.6857" lon="6.18593">
        <ele>819.799988</ele>
        <time>2011-10-14T14:34:33Z</time>
      </trkpt>
      <trkpt lat="43.6857" lon="6.18591">
        <ele>820.099976</ele>
        <time>2011-10-14T14:34:38Z</time>
      </trkpt>
      <trkpt lat="43.68571" lon="6.18589">
        <ele>819.700012</ele>
        <time>2011-10-14T14:34:43Z</time>
      </trkpt>
      <trkpt lat="43.6857" lon="6.18588">
        <ele>819.200012</ele>
        <time>2011-10-14T14:34:48Z</time>
      </trkpt>
      <trkpt lat="43.6857" lon="6.18584">
        <ele>819</ele>
        <time>2011-10-14T14:34:53Z</time>
      </trkpt>
      <trkpt lat="43.68574" lon="6.18582">
        <ele>818.200012</ele>
        <time>2011-10-14T14:34:58Z</time>
      </trkpt>
      <trkpt lat="43.68579" lon="6.18578">
        <ele>817.400024</ele>
        <time>2011-10-14T14:35:03Z</time>
      </trkpt>
      <trkpt lat="43.68579" lon="6.18578">
        <ele>817.299988</ele>
        <time>2011-10-14T14:35:04Z</time>
      </trkpt>
      <trkpt lat="43.68586" lon="6.18573">
        <ele>815.299988</ele>
        <time>2011-10-14T14:35:13Z</time>
      </trkpt>
      <trkpt lat="43.6859" lon="6.18568">
        <ele>814.099976</ele>
        <time>2011-10-14T14:35:18Z</time>
      </trkpt>
      <trkpt lat="43.68593" lon="6.18563">
        <ele>813</ele>
        <time>2011-10-14T14:35:23Z</time>
      </trkpt>
      <trkpt lat="43.68593" lon="6.18559">
        <ele>811.700012</ele>
        <time>2011-10-14T14:35:28Z</time>
      </trkpt>
      <trkpt lat="43.68592" lon="6.18554">
        <ele>810.400024</ele>
        <time>2011-10-14T14:35:33Z</time>
      </trkpt>
      <trkpt lat="43.68591" lon="6.18548">
        <ele>809.299988</ele>
        <time>2011-10-14T14:35:38Z</time>
      </trkpt>
      <trkpt lat="43.68588" lon="6.18546">
        <ele>808.400024</ele>
        <time>2011-10-14T14:35:43Z</time>
      </trkpt>
      <trkpt lat="43.68587" lon="6.18541">
        <ele>806.700012</ele>
        <time>2011-10-14T14:35:48Z</time>
      </trkpt>
      <trkpt lat="43.68584" lon="6.18537">
        <ele>805.799988</ele>
        <time>2011-10-14T14:35:53Z</time>
      </trkpt>
      <trkpt lat="43.6858" lon="6.18535">
        <ele>804.5</ele>
        <time>2011-10-14T14:35:58Z</time>
      </trkpt>
      <trkpt lat="43.68576" lon="6.18532">
        <ele>803.400024</ele>
        <time>2011-10-14T14:36:03Z</time>
      </trkpt>
      <trkpt lat="43.68572" lon="6.18528">
        <ele>802.099976</ele>
        <time>2011-10-14T14:36:08Z</time>
      </trkpt>
      <trkpt lat="43.68572" lon="6.18528">
        <ele>801.900024</ele>
        <time>2011-10-14T14:36:09Z</time>
      </trkpt>
      <trkpt lat="43.68567" lon="6.18517">
        <ele>800.900024</ele>
        <time>2011-10-14T14:36:18Z</time>
      </trkpt>
      <trkpt lat="43.68563" lon="6.18512">
        <ele>801.400024</ele>
        <time>2011-10-14T14:36:23Z</time>
      </trkpt>
      <trkpt lat="43.68559" lon="6.18509">
        <ele>800.599976</ele>
        <time>2011-10-14T14:36:28Z</time>
      </trkpt>
      <trkpt lat="43.68556" lon="6.18504">
        <ele>799.5</ele>
        <time>2011-10-14T14:36:33Z</time>
      </trkpt>
      <trkpt lat="43.68553" lon="6.18499">
        <ele>798.799988</ele>
        <time>2011-10-14T14:36:38Z</time>
      </trkpt>
      <trkpt lat="43.68548" lon="6.18497">
        <ele>798.099976</ele>
        <time>2011-10-14T14:36:43Z</time>
      </trkpt>
      <trkpt lat="43.68544" lon="6.18492">
        <ele>796.700012</ele>
        <time>2011-10-14T14:36:48Z</time>
      </trkpt>
      <trkpt lat="43.68541" lon="6.18487">
        <ele>795.5</ele>
        <time>2011-10-14T14:36:53Z</time>
      </trkpt>
      <trkpt lat="43.6854" lon="6.1848">
        <ele>793.900024</ele>
        <time>2011-10-14T14:36:58Z</time>
      </trkpt>
      <trkpt lat="43.68539" lon="6.18476">
        <ele>792.700012</ele>
        <time>2011-10-14T14:37:03Z</time>
      </trkpt>
      <trkpt lat="43.68536" lon="6.18471">
        <ele>791.599976</ele>
        <time>2011-10-14T14:37:08Z</time>
      </trkpt>
      <trkpt lat="43.68532" lon="6.18467">
        <ele>790.299988</ele>
        <time>2011-10-14T14:37:13Z</time>
      </trkpt>
      <trkpt lat="43.68531" lon="6.18466">
        <ele>790.099976</ele>
        <time>2011-10-14T14:37:14Z</time>
      </trkpt>
      <trkpt lat="43.68526" lon="6.18456">
        <ele>787.799988</ele>
        <time>2011-10-14T14:37:23Z</time>
      </trkpt>
      <trkpt lat="43.68527" lon="6.18448">
        <ele>786.700012</ele>
        <time>2011-10-14T14:37:28Z</time>
      </trkpt>
      <trkpt lat="43.68523" lon="6.18444">
        <ele>785.900024</ele>
        <time>2011-10-14T14:37:33Z</time>
      </trkpt>
      <trkpt lat="43.6852" lon="6.18438">
        <ele>784.900024</ele>
        <time>2011-10-14T14:37:38Z</time>
      </trkpt>
      <trkpt lat="43.68517" lon="6.18432">
        <ele>784.200012</ele>
        <time>2011-10-14T14:37:43Z</time>
      </trkpt>
      <trkpt lat="43.68519" lon="6.18425">
        <ele>783.5</ele>
        <time>2011-10-14T14:37:48Z</time>
      </trkpt>
      <trkpt lat="43.68516" lon="6.18421">
        <ele>782.5</ele>
        <time>2011-10-14T14:37:53Z</time>
      </trkpt>
      <trkpt lat="43.68512" lon="6.18416">
        <ele>781.900024</ele>
        <time>2011-10-14T14:37:58Z</time>
      </trkpt>
      <trkpt lat="43.6851" lon="6.18411">
        <ele>781.299988</ele>
        <time>2011-10-14T14:38:03Z</time>
      </trkpt>
      <trkpt lat="43.68508" lon="6.18405">
        <ele>780</ele>
        <time>2011-10-14T14:38:08Z</time>
      </trkpt>
      <trkpt lat="43.68502" lon="6.18406">
        <ele>779.200012</ele>
        <time>2011-10-14T14:38:13Z</time>
      </trkpt>
      <trkpt lat="43.68501" lon="6.18399">
        <ele>777.799988</ele>
        <time>2011-10-14T14:38:18Z</time>
      </trkpt>
      <trkpt lat="43.685" lon="6.18399">
        <ele>777.599976</ele>
        <time>2011-10-14T14:38:19Z</time>
      </trkpt>
      <trkpt lat="43.68497" lon="6.18388">
        <ele>775.799988</ele>
        <time>2011-10-14T14:38:28Z</time>
      </trkpt>
      <trkpt lat="43.68494" lon="6.18382">
        <ele>775</ele>
        <time>2011-10-14T14:38:33Z</time>
      </trkpt>
      <trkpt lat="43.68493" lon="6.18377">
        <ele>774.099976</ele>
        <time>2011-10-14T14:38:38Z</time>
      </trkpt>
      <trkpt lat="43.68492" lon="6.1837">
        <ele>773.099976</ele>
        <time>2011-10-14T14:38:43Z</time>
      </trkpt>
      <trkpt lat="43.68488" lon="6.18367">
        <ele>772.5</ele>
        <time>2011-10-14T14:38:48Z</time>
      </trkpt>
      <trkpt lat="43.68484" lon="6.18362">
        <ele>771.900024</ele>
        <time>2011-10-14T14:38:53Z</time>
      </trkpt>
      <trkpt lat="43.68481" lon="6.18358">
        <ele>770.799988</ele>
        <time>2011-10-14T14:38:58Z</time>
      </trkpt>
      <trkpt lat="43.68478" lon="6.18352">
        <ele>770.299988</ele>
        <time>2011-10-14T14:39:03Z</time>
      </trkpt>
      <trkpt lat="43.68474" lon="6.18348">
        <ele>768.900024</ele>
        <time>2011-10-14T14:39:08Z</time>
      </trkpt>
      <trkpt lat="43.68471" lon="6.18343">
        <ele>768.200012</ele>
        <time>2011-10-14T14:39:13Z</time>
      </trkpt>
      <trkpt lat="43.68465" lon="6.1834">
        <ele>767.5</ele>
        <time>2011-10-14T14:39:18Z</time>
      </trkpt>
      <trkpt lat="43.6846" lon="6.18337">
        <ele>767.099976</ele>
        <time>2011-10-14T14:39:23Z</time>
      </trkpt>
      <trkpt lat="43.68459" lon="6.18336">
        <ele>767</ele>
        <time>2011-10-14T14:39:24Z</time>
      </trkpt>
      <trkpt lat="43.6845" lon="6.18329">
        <ele>766</ele>
        <time>2011-10-14T14:39:33Z</time>
      </trkpt>
      <trkpt lat="43.68447" lon="6.18326">
        <ele>765.299988</ele>
        <time>2011-10-14T14:39:38Z</time>
      </trkpt>
      <trkpt lat="43.68443" lon="6.18323">
        <ele>764.700012</ele>
        <time>2011-10-14T14:39:43Z</time>
      </trkpt>
      <trkpt lat="43.68441" lon="6.18317">
        <ele>763.700012</ele>
        <time>2011-10-14T14:39:48Z</time>
      </trkpt>
      <trkpt lat="43.68437" lon="6.18315">
        <ele>762.900024</ele>
        <time>2011-10-14T14:39:53Z</time>
      </trkpt>
      <trkpt lat="43.68433" lon="6.18312">
        <ele>761.599976</ele>
        <time>2011-10-14T14:39:58Z</time>
      </trkpt>
      <trkpt lat="43.6843" lon="6.18309">
        <ele>761.099976</ele>
        <time>2011-10-14T14:40:03Z</time>
      </trkpt>
      <trkpt lat="43.68426" lon="6.18306">
        <ele>760</ele>
        <time>2011-10-14T14:40:08Z</time>
      </trkpt>
      <trkpt lat="43.68422" lon="6.18303">
        <ele>758.700012</ele>
        <time>2011-10-14T14:40:13Z</time>
      </trkpt>
      <trkpt lat="43.68419" lon="6.18297">
        <ele>757.799988</ele>
        <time>2011-10-14T14:40:18Z</time>
      </trkpt>
      <trkpt lat="43.68417" lon="6.18293">
        <ele>756.5</ele>
        <time>2011-10-14T14:40:23Z</time>
      </trkpt>
      <trkpt lat="43.68412" lon="6.18289">
        <ele>755.099976</ele>
        <time>2011-10-14T14:40:28Z</time>
      </trkpt>
      <trkpt lat="43.68412" lon="6.18288">
        <ele>754.700012</ele>
        <time>2011-10-14T14:40:29Z</time>
      </trkpt>
      <trkpt lat="43.68406" lon="6.18281">
        <ele>752.700012</ele>
        <time>2011-10-14T14:40:38Z</time>
      </trkpt>
      <trkpt lat="43.68404" lon="6.18276">
        <ele>751.5</ele>
        <time>2011-10-14T14:40:43Z</time>
      </trkpt>
      <trkpt lat="43.68404" lon="6.18267">
        <ele>750.400024</ele>
        <time>2011-10-14T14:40:48Z</time>
      </trkpt>
      <trkpt lat="43.68405" lon="6.18258">
        <ele>749.799988</ele>
        <time>2011-10-14T14:40:53Z</time>
      </trkpt>
      <trkpt lat="43.68407" lon="6.18249">
        <ele>748.900024</ele>
        <time>2011-10-14T14:40:58Z</time>
      </trkpt>
      <trkpt lat="43.68409" lon="6.18241">
        <ele>748.099976</ele>
        <time>2011-10-14T14:41:03Z</time>
      </trkpt>
      <trkpt lat="43.6841" lon="6.18234">
        <ele>747.099976</ele>
        <time>2011-10-14T14:41:08Z</time>
      </trkpt>
      <trkpt lat="43.68411" lon="6.18227">
        <ele>746.299988</ele>
        <time>2011-10-14T14:41:13Z</time>
      </trkpt>
      <trkpt lat="43.68413" lon="6.18221">
        <ele>745.700012</ele>
        <time>2011-10-14T14:41:18Z</time>
      </trkpt>
      <trkpt lat="43.68412" lon="6.18216">
        <ele>744.900024</ele>
        <time>2011-10-14T14:41:23Z</time>
      </trkpt>
      <trkpt lat="43.68412" lon="6.18214">
        <ele>744.099976</ele>
        <time>2011-10-14T14:41:28Z</time>
      </trkpt>
      <trkpt lat="43.6841" lon="6.1821">
        <ele>742.799988</ele>
        <time>2011-10-14T14:41:33Z</time>
      </trkpt>
      <trkpt lat="43.68409" lon="6.18209">
        <ele>742.599976</ele>
        <time>2011-10-14T14:41:34Z</time>
      </trkpt>
      <trkpt lat="43.68406" lon="6.18201">
        <ele>741</ele>
        <time>2011-10-14T14:41:43Z</time>
      </trkpt>
      <trkpt lat="43.68401" lon="6.18199">
        <ele>740.5</ele>
        <time>2011-10-14T14:41:48Z</time>
      </trkpt>
      <trkpt lat="43.684" lon="6.1819">
        <ele>739.299988</ele>
        <time>2011-10-14T14:41:53Z</time>
      </trkpt>
      <trkpt lat="43.684" lon="6.18182">
        <ele>738.5</ele>
        <time>2011-10-14T14:41:58Z</time>
      </trkpt>
      <trkpt lat="43.684" lon="6.18174">
        <ele>738</ele>
        <time>2011-10-14T14:42:03Z</time>
      </trkpt>
      <trkpt lat="43.684" lon="6.18165">
        <ele>737.5</ele>
        <time>2011-10-14T14:42:08Z</time>
      </trkpt>
      <trkpt lat="43.68401" lon="6.18155">
        <ele>737</ele>
        <time>2011-10-14T14:42:13Z</time>
      </trkpt>
      <trkpt lat="43.68401" lon="6.18147">
        <ele>736.099976</ele>
        <time>2011-10-14T14:42:18Z</time>
      </trkpt>
      <trkpt lat="43.68402" lon="6.18137">
        <ele>735.5</ele>
        <time>2011-10-14T14:42:23Z</time>
      </trkpt>
      <trkpt lat="43.68402" lon="6.18131">
        <ele>734.799988</ele>
        <time>2011-10-14T14:42:28Z</time>
      </trkpt>
      <trkpt lat="43.68401" lon="6.18126">
        <ele>733.900024</ele>
        <time>2011-10-14T14:42:33Z</time>
      </trkpt>
      <trkpt lat="43.684" lon="6.18123">
        <ele>733.200012</ele>
        <time>2011-10-14T14:42:38Z</time>
      </trkpt>
      <trkpt lat="43.684" lon="6.18122">
        <ele>733.200012</ele>
        <time>2011-10-14T14:42:39Z</time>
      </trkpt>
      <trkpt lat="43.68401" lon="6.18123">
        <ele>733.599976</ele>
        <time>2011-10-14T14:42:48Z</time>
      </trkpt>
      <trkpt lat="43.68397" lon="6.18121">
        <ele>733.5</ele>
        <time>2011-10-14T14:42:53Z</time>
      </trkpt>
      <trkpt lat="43.68398" lon="6.18115">
        <ele>732.599976</ele>
        <time>2011-10-14T14:42:58Z</time>
      </trkpt>
      <trkpt lat="43.68402" lon="6.18107">
        <ele>732.200012</ele>
        <time>2011-10-14T14:43:03Z</time>
      </trkpt>
      <trkpt lat="43.68403" lon="6.18104">
        <ele>732.099976</ele>
        <time>2011-10-14T14:43:08Z</time>
      </trkpt>
      <trkpt lat="43.68407" lon="6.18104">
        <ele>732</ele>
        <time>2011-10-14T14:43:13Z</time>
      </trkpt>
      <trkpt lat="43.68406" lon="6.18106">
        <ele>732</ele>
        <time>2011-10-14T14:43:18Z</time>
      </trkpt>
      <trkpt lat="43.68407" lon="6.18104">
        <ele>732.200012</ele>
        <time>2011-10-14T14:43:23Z</time>
      </trkpt>
      <trkpt lat="43.68407" lon="6.18104">
        <ele>732.299988</ele>
        <time>2011-10-14T14:43:28Z</time>
      </trkpt>
      <trkpt lat="43.68406" lon="6.18101">
        <ele>731.900024</ele>
        <time>2011-10-14T14:43:33Z</time>
      </trkpt>
      <trkpt lat="43.68406" lon="6.18097">
        <ele>732.200012</ele>
        <time>2011-10-14T14:43:38Z</time>
      </trkpt>
      <trkpt lat="43.68407" lon="6.18096">
        <ele>732.200012</ele>
        <time>2011-10-14T14:43:43Z</time>
      </trkpt>
      <trkpt lat="43.68407" lon="6.18096">
        <ele>732.200012</ele>
        <time>2011-10-14T14:43:44Z</time>
      </trkpt>
      <trkpt lat="43.68407" lon="6.18097">
        <ele>732</ele>
        <time>2011-10-14T14:43:53Z</time>
      </trkpt>
      <trkpt lat="43.68405" lon="6.18098">
        <ele>731.799988</ele>
        <time>2011-10-14T14:43:58Z</time>
      </trkpt>
      <trkpt lat="43.68406" lon="6.18102">
        <ele>731.799988</ele>
        <time>2011-10-14T14:44:03Z</time>
      </trkpt>
      <trkpt lat="43.68406" lon="6.18103">
        <ele>731.5</ele>
        <time>2011-10-14T14:44:08Z</time>
      </trkpt>
      <trkpt lat="43.68402" lon="6.18101">
        <ele>731.5</ele>
        <time>2011-10-14T14:44:13Z</time>
      </trkpt>
      <trkpt lat="43.68399" lon="6.18101">
        <ele>731.700012</ele>
        <time>2011-10-14T14:44:18Z</time>
      </trkpt>
      <trkpt lat="43.684" lon="6.18104">
        <ele>731.799988</ele>
        <time>2011-10-14T14:44:23Z</time>
      </trkpt>
      <trkpt lat="43.68401" lon="6.18104">
        <ele>731.200012</ele>
        <time>2011-10-14T14:44:28Z</time>
      </trkpt>
      <trkpt lat="43.68403" lon="6.18104">
        <ele>731.099976</ele>
        <time>2011-10-14T14:44:33Z</time>
      </trkpt>
      <trkpt lat="43.68403" lon="6.18103">
        <ele>731.299988</ele>
        <time>2011-10-14T14:44:38Z</time>
      </trkpt>
      <trkpt lat="43.68401" lon="6.18099">
        <ele>731.400024</ele>
        <time>2011-10-14T14:44:43Z</time>
      </trkpt>
      <trkpt lat="43.68401" lon="6.181">
        <ele>730.799988</ele>
        <time>2011-10-14T14:44:48Z</time>
      </trkpt>
      <trkpt lat="43.684" lon="6.181">
        <ele>730.799988</ele>
        <time>2011-10-14T14:44:49Z</time>
      </trkpt>
      <trkpt lat="43.68402" lon="6.18099">
        <ele>731.5</ele>
        <time>2011-10-14T14:44:58Z</time>
      </trkpt>
      <trkpt lat="43.68401" lon="6.18099">
        <ele>731.200012</ele>
        <time>2011-10-14T14:45:03Z</time>
      </trkpt>
      <trkpt lat="43.68401" lon="6.18098">
        <ele>731.5</ele>
        <time>2011-10-14T14:45:08Z</time>
      </trkpt>
      <trkpt lat="43.68404" lon="6.18099">
        <ele>731</ele>
        <time>2011-10-14T14:45:13Z</time>
      </trkpt>
      <trkpt lat="43.68406" lon="6.18099">
        <ele>731.099976</ele>
        <time>2011-10-14T14:45:18Z</time>
      </trkpt>
      <trkpt lat="43.68405" lon="6.18099">
        <ele>731.099976</ele>
        <time>2011-10-14T14:45:23Z</time>
      </trkpt>
      <trkpt lat="43.68405" lon="6.181">
        <ele>731.099976</ele>
        <time>2011-10-14T14:45:28Z</time>
      </trkpt>
      <trkpt lat="43.68404" lon="6.18101">
        <ele>731</ele>
        <time>2011-10-14T14:45:33Z</time>
      </trkpt>
      <trkpt lat="43.68403" lon="6.18101">
        <ele>731.299988</ele>
        <time>2011-10-14T14:45:38Z</time>
      </trkpt>
      <trkpt lat="43.68402" lon="6.18101">
        <ele>731.599976</ele>
        <time>2011-10-14T14:45:43Z</time>
      </trkpt>
      <trkpt lat="43.68401" lon="6.181">
        <ele>731.400024</ele>
        <time>2011-10-14T14:45:48Z</time>
      </trkpt>
      <trkpt lat="43.68402" lon="6.18098">
        <ele>731.400024</ele>
        <time>2011-10-14T14:45:53Z</time>
      </trkpt>
      <trkpt lat="43.68402" lon="6.18098">
        <ele>731.400024</ele>
        <time>2011-10-14T14:45:54Z</time>
      </trkpt>
      <trkpt lat="43.68401" lon="6.18097">
        <ele>731.200012</ele>
        <time>2011-10-14T14:46:03Z</time>
      </trkpt>
      <trkpt lat="43.68401" lon="6.18098">
        <ele>731.099976</ele>
        <time>2011-10-14T14:46:08Z</time>
      </trkpt>
      <trkpt lat="43.68404" lon="6.18098">
        <ele>731.200012</ele>
        <time>2011-10-14T14:46:13Z</time>
      </trkpt>
      <trkpt lat="43.68403" lon="6.18099">
        <ele>731.099976</ele>
        <time>2011-10-14T14:46:18Z</time>
      </trkpt>
      <trkpt lat="43.68403" lon="6.181">
        <ele>731.099976</ele>
        <time>2011-10-14T14:46:23Z</time>
      </trkpt>
      <trkpt lat="43.68401" lon="6.18101">
        <ele>731.299988</ele>
        <time>2011-10-14T14:46:28Z</time>
      </trkpt>
      <trkpt lat="43.68403" lon="6.18102">
        <ele>731.5</ele>
        <time>2011-10-14T14:46:33Z</time>
      </trkpt>
      <trkpt lat="43.68404" lon="6.18101">
        <ele>731</ele>
        <time>2011-10-14T14:46:38Z</time>
      </trkpt>
      <trkpt lat="43.68404" lon="6.18103">
        <ele>731.299988</ele>
        <time>2011-10-14T14:46:43Z</time>
      </trkpt>
      <trkpt lat="43.68404" lon="6.18102">
        <ele>731.299988</ele>
        <time>2011-10-14T14:46:48Z</time>
      </trkpt>
      <trkpt lat="43.68404" lon="6.18103">
        <ele>731</ele>
        <time>2011-10-14T14:46:53Z</time>
      </trkpt>
      <trkpt lat="43.68402" lon="6.18104">
        <ele>731.099976</ele>
        <time>2011-10-14T14:46:58Z</time>
      </trkpt>
      <trkpt lat="43.68402" lon="6.18104">
        <ele>731</ele>
        <time>2011-10-14T14:46:59Z</time>
      </trkpt>
      <trkpt lat="43.68403" lon="6.181">
        <ele>731.099976</ele>
        <time>2011-10-14T14:47:08Z</time>
      </trkpt>
      <trkpt lat="43.68405" lon="6.18098">
        <ele>731</ele>
        <time>2011-10-14T14:47:13Z</time>
      </trkpt>
      <trkpt lat="43.68405" lon="6.18098">
        <ele>730.799988</ele>
        <time>2011-10-14T14:47:18Z</time>
      </trkpt>
      <trkpt lat="43.68405" lon="6.18097">
        <ele>730.5</ele>
        <time>2011-10-14T14:47:23Z</time>
      </trkpt>
      <trkpt lat="43.68404" lon="6.18098">
        <ele>730.799988</ele>
        <time>2011-10-14T14:47:28Z</time>
      </trkpt>
      <trkpt lat="43.68402" lon="6.18095">
        <ele>730.099976</ele>
        <time>2011-10-14T14:47:33Z</time>
      </trkpt>
      <trkpt lat="43.68396" lon="6.18094">
        <ele>729.5</ele>
        <time>2011-10-14T14:47:38Z</time>
      </trkpt>
      <trkpt lat="43.68393" lon="6.1809">
        <ele>729.400024</ele>
        <time>2011-10-14T14:47:43Z</time>
      </trkpt>
      <trkpt lat="43.6839" lon="6.18086">
        <ele>728.599976</ele>
        <time>2011-10-14T14:47:48Z</time>
      </trkpt>
      <trkpt lat="43.68386" lon="6.18081">
        <ele>728.200012</ele>
        <time>2011-10-14T14:47:53Z</time>
      </trkpt>
      <trkpt lat="43.68384" lon="6.18078">
        <ele>727.599976</ele>
        <time>2011-10-14T14:47:58Z</time>
      </trkpt>
      <trkpt lat="43.68383" lon="6.18071">
        <ele>726.900024</ele>
        <time>2011-10-14T14:48:03Z</time>
      </trkpt>
      <trkpt lat="43.68384" lon="6.18069">
        <ele>727</ele>
        <time>2011-10-14T14:48:04Z</time>
      </trkpt>
      <trkpt lat="43.68382" lon="6.18059">
        <ele>726.599976</ele>
        <time>2011-10-14T14:48:13Z</time>
      </trkpt>
      <trkpt lat="43.68379" lon="6.18055">
        <ele>727</ele>
        <time>2011-10-14T14:48:18Z</time>
      </trkpt>
      <trkpt lat="43.68375" lon="6.18051">
        <ele>726.599976</ele>
        <time>2011-10-14T14:48:23Z</time>
      </trkpt>
      <trkpt lat="43.68373" lon="6.18045">
        <ele>726.299988</ele>
        <time>2011-10-14T14:48:28Z</time>
      </trkpt>
      <trkpt lat="43.68371" lon="6.18038">
        <ele>726.400024</ele>
        <time>2011-10-14T14:48:33Z</time>
      </trkpt>
      <trkpt lat="43.68371" lon="6.1803">
        <ele>726.200012</ele>
        <time>2011-10-14T14:48:38Z</time>
      </trkpt>
      <trkpt lat="43.6837" lon="6.18022">
        <ele>726</ele>
        <time>2011-10-14T14:48:43Z</time>
      </trkpt>
      <trkpt lat="43.68366" lon="6.18016">
        <ele>725.799988</ele>
        <time>2011-10-14T14:48:48Z</time>
      </trkpt>
      <trkpt lat="43.68362" lon="6.1801">
        <ele>725.799988</ele>
        <time>2011-10-14T14:48:53Z</time>
      </trkpt>
      <trkpt lat="43.68359" lon="6.18003">
        <ele>725.799988</ele>
        <time>2011-10-14T14:48:58Z</time>
      </trkpt>
      <trkpt lat="43.68357" lon="6.17997">
        <ele>725.700012</ele>
        <time>2011-10-14T14:49:03Z</time>
      </trkpt>
      <trkpt lat="43.68355" lon="6.17989">
        <ele>725.599976</ele>
        <time>2011-10-14T14:49:08Z</time>
      </trkpt>
      <trkpt lat="43.68354" lon="6.17988">
        <ele>725.799988</ele>
        <time>2011-10-14T14:49:09Z</time>
      </trkpt>
      <trkpt lat="43.68348" lon="6.17978">
        <ele>725.5</ele>
        <time>2011-10-14T14:49:18Z</time>
      </trkpt>
      <trkpt lat="43.68344" lon="6.17973">
        <ele>725</ele>
        <time>2011-10-14T14:49:23Z</time>
      </trkpt>
      <trkpt lat="43.68342" lon="6.17965">
        <ele>724.599976</ele>
        <time>2011-10-14T14:49:28Z</time>
      </trkpt>
      <trkpt lat="43.68339" lon="6.17959">
        <ele>724.599976</ele>
        <time>2011-10-14T14:49:33Z</time>
      </trkpt>
      <trkpt lat="43.68337" lon="6.17952">
        <ele>724.700012</ele>
        <time>2011-10-14T14:49:38Z</time>
      </trkpt>
      <trkpt lat="43.68335" lon="6.17944">
        <ele>724.599976</ele>
        <time>2011-10-14T14:49:43Z</time>
      </trkpt>
      <trkpt lat="43.68333" lon="6.17936">
        <ele>724.599976</ele>
        <time>2011-10-14T14:49:48Z</time>
      </trkpt>
      <trkpt lat="43.68333" lon="6.17932">
        <ele>724</ele>
        <time>2011-10-14T14:49:53Z</time>
      </trkpt>
      <trkpt lat="43.68332" lon="6.17924">
        <ele>724.299988</ele>
        <time>2011-10-14T14:49:58Z</time>
      </trkpt>
      <trkpt lat="43.6833" lon="6.17918">
        <ele>723.900024</ele>
        <time>2011-10-14T14:50:03Z</time>
      </trkpt>
      <trkpt lat="43.68329" lon="6.17911">
        <ele>723.700012</ele>
        <time>2011-10-14T14:50:08Z</time>
      </trkpt>
      <trkpt lat="43.68328" lon="6.17905">
        <ele>723.099976</ele>
        <time>2011-10-14T14:50:13Z</time>
      </trkpt>
      <trkpt lat="43.68327" lon="6.17903">
        <ele>722.900024</ele>
        <time>2011-10-14T14:50:14Z</time>
      </trkpt>
      <trkpt lat="43.68319" lon="6.17895">
        <ele>722.599976</ele>
        <time>2011-10-14T14:50:23Z</time>
      </trkpt>
      <trkpt lat="43.68315" lon="6.17891">
        <ele>722</ele>
        <time>2011-10-14T14:50:28Z</time>
      </trkpt>
      <trkpt lat="43.68312" lon="6.17885">
        <ele>721.400024</ele>
        <time>2011-10-14T14:50:33Z</time>
      </trkpt>
      <trkpt lat="43.68309" lon="6.17878">
        <ele>721</ele>
        <time>2011-10-14T14:50:38Z</time>
      </trkpt>
      <trkpt lat="43.68305" lon="6.17872">
        <ele>720.900024</ele>
        <time>2011-10-14T14:50:43Z</time>
      </trkpt>
      <trkpt lat="43.68301" lon="6.17866">
        <ele>720.200012</ele>
        <time>2011-10-14T14:50:48Z</time>
      </trkpt>
      <trkpt lat="43.68298" lon="6.1786">
        <ele>720</ele>
        <time>2011-10-14T14:50:53Z</time>
      </trkpt>
      <trkpt lat="43.68295" lon="6.17855">
        <ele>719.700012</ele>
        <time>2011-10-14T14:50:58Z</time>
      </trkpt>
      <trkpt lat="43.68291" lon="6.17849">
        <ele>719.5</ele>
        <time>2011-10-14T14:51:03Z</time>
      </trkpt>
      <trkpt lat="43.6829" lon="6.17842">
        <ele>719.099976</ele>
        <time>2011-10-14T14:51:08Z</time>
      </trkpt>
      <trkpt lat="43.68287" lon="6.17836">
        <ele>719</ele>
        <time>2011-10-14T14:51:14Z</time>
      </trkpt>
      <trkpt lat="43.68285" lon="6.17835">
        <ele>719.200012</ele>
        <time>2011-10-14T14:51:16Z</time>
      </trkpt>
      <trkpt lat="43.6828" lon="6.17825">
        <ele>718.099976</ele>
        <time>2011-10-14T14:51:24Z</time>
      </trkpt>
      <trkpt lat="43.68278" lon="6.17819">
        <ele>717.700012</ele>
        <time>2011-10-14T14:51:29Z</time>
      </trkpt>
      <trkpt lat="43.68277" lon="6.1781">
        <ele>717.400024</ele>
        <time>2011-10-14T14:51:34Z</time>
      </trkpt>
      <trkpt lat="43.68275" lon="6.17802">
        <ele>717</ele>
        <time>2011-10-14T14:51:39Z</time>
      </trkpt>
      <trkpt lat="43.6827" lon="6.17796">
        <ele>716.799988</ele>
        <time>2011-10-14T14:51:44Z</time>
      </trkpt>
      <trkpt lat="43.68268" lon="6.17794">
        <ele>716.5</ele>
        <time>2011-10-14T14:51:49Z</time>
      </trkpt>
      <trkpt lat="43.68268" lon="6.17791">
        <ele>715.900024</ele>
        <time>2011-10-14T14:51:54Z</time>
      </trkpt>
      <trkpt lat="43.68267" lon="6.17787">
        <ele>715.299988</ele>
        <time>2011-10-14T14:51:59Z</time>
      </trkpt>
      <trkpt lat="43.68265" lon="6.17783">
        <ele>714.900024</ele>
        <time>2011-10-14T14:52:04Z</time>
      </trkpt>
      <trkpt lat="43.68264" lon="6.17776">
        <ele>714.299988</ele>
        <time>2011-10-14T14:52:09Z</time>
      </trkpt>
      <trkpt lat="43.68263" lon="6.17769">
        <ele>713.599976</ele>
        <time>2011-10-14T14:52:14Z</time>
      </trkpt>
      <trkpt lat="43.68262" lon="6.1776">
        <ele>713.299988</ele>
        <time>2011-10-14T14:52:19Z</time>
      </trkpt>
      <trkpt lat="43.68263" lon="6.17759">
        <ele>713.099976</ele>
        <time>2011-10-14T14:52:20Z</time>
      </trkpt>
      <trkpt lat="43.68267" lon="6.17748">
        <ele>711.799988</ele>
        <time>2011-10-14T14:52:29Z</time>
      </trkpt>
      <trkpt lat="43.68268" lon="6.17742">
        <ele>711.200012</ele>
        <time>2011-10-14T14:52:34Z</time>
      </trkpt>
      <trkpt lat="43.68266" lon="6.17737">
        <ele>710.799988</ele>
        <time>2011-10-14T14:52:39Z</time>
      </trkpt>
      <trkpt lat="43.68266" lon="6.17733">
        <ele>710.700012</ele>
        <time>2011-10-14T14:52:44Z</time>
      </trkpt>
      <trkpt lat="43.68266" lon="6.17728">
        <ele>710.700012</ele>
        <time>2011-10-14T14:52:49Z</time>
      </trkpt>
      <trkpt lat="43.68266" lon="6.1772">
        <ele>710.5</ele>
        <time>2011-10-14T14:52:54Z</time>
      </trkpt>
      <trkpt lat="43.68264" lon="6.17711">
        <ele>710.200012</ele>
        <time>2011-10-14T14:52:59Z</time>
      </trkpt>
      <trkpt lat="43.68262" lon="6.17703">
        <ele>709.900024</ele>
        <time>2011-10-14T14:53:04Z</time>
      </trkpt>
      <trkpt lat="43.6826" lon="6.17698">
        <ele>709.299988</ele>
        <time>2011-10-14T14:53:09Z</time>
      </trkpt>
      <trkpt lat="43.68257" lon="6.17694">
        <ele>708.299988</ele>
        <time>2011-10-14T14:53:14Z</time>
      </trkpt>
      <trkpt lat="43.68253" lon="6.17689">
        <ele>707.400024</ele>
        <time>2011-10-14T14:53:19Z</time>
      </trkpt>
      <trkpt lat="43.6825" lon="6.17685">
        <ele>706.799988</ele>
        <time>2011-10-14T14:53:24Z</time>
      </trkpt>
      <trkpt lat="43.6825" lon="6.17684">
        <ele>706.700012</ele>
        <time>2011-10-14T14:53:25Z</time>
      </trkpt>
      <trkpt lat="43.68245" lon="6.17675">
        <ele>705.799988</ele>
        <time>2011-10-14T14:53:34Z</time>
      </trkpt>
      <trkpt lat="43.68245" lon="6.17669">
        <ele>705.200012</ele>
        <time>2011-10-14T14:53:39Z</time>
      </trkpt>
      <trkpt lat="43.68243" lon="6.17664">
        <ele>704.299988</ele>
        <time>2011-10-14T14:53:44Z</time>
      </trkpt>
      <trkpt lat="43.68242" lon="6.17658">
        <ele>703.5</ele>
        <time>2011-10-14T14:53:49Z</time>
      </trkpt>
      <trkpt lat="43.68238" lon="6.17653">
        <ele>702.900024</ele>
        <time>2011-10-14T14:53:54Z</time>
      </trkpt>
      <trkpt lat="43.68234" lon="6.17649">
        <ele>701.900024</ele>
        <time>2011-10-14T14:53:59Z</time>
      </trkpt>
      <trkpt lat="43.6823" lon="6.17644">
        <ele>701.599976</ele>
        <time>2011-10-14T14:54:04Z</time>
      </trkpt>
      <trkpt lat="43.68227" lon="6.17638">
        <ele>700.799988</ele>
        <time>2011-10-14T14:54:09Z</time>
      </trkpt>
      <trkpt lat="43.68224" lon="6.17633">
        <ele>700.700012</ele>
        <time>2011-10-14T14:54:14Z</time>
      </trkpt>
      <trkpt lat="43.6822" lon="6.1763">
        <ele>700.099976</ele>
        <time>2011-10-14T14:54:19Z</time>
      </trkpt>
      <trkpt lat="43.68216" lon="6.17624">
        <ele>699.599976</ele>
        <time>2011-10-14T14:54:24Z</time>
      </trkpt>
      <trkpt lat="43.68213" lon="6.17619">
        <ele>698.900024</ele>
        <time>2011-10-14T14:54:29Z</time>
      </trkpt>
      <trkpt lat="43.68213" lon="6.17618">
        <ele>698.700012</ele>
        <time>2011-10-14T14:54:30Z</time>
      </trkpt>
      <trkpt lat="43.68205" lon="6.1761">
        <ele>697.799988</ele>
        <time>2011-10-14T14:54:39Z</time>
      </trkpt>
      <trkpt lat="43.68201" lon="6.17606">
        <ele>697.200012</ele>
        <time>2011-10-14T14:54:44Z</time>
      </trkpt>
      <trkpt lat="43.68199" lon="6.17599">
        <ele>696.700012</ele>
        <time>2011-10-14T14:54:49Z</time>
      </trkpt>
      <trkpt lat="43.68197" lon="6.17592">
        <ele>696.200012</ele>
        <time>2011-10-14T14:54:54Z</time>
      </trkpt>
      <trkpt lat="43.68196" lon="6.17585">
        <ele>696</ele>
        <time>2011-10-14T14:54:59Z</time>
      </trkpt>
      <trkpt lat="43.68195" lon="6.17577">
        <ele>695.400024</ele>
        <time>2011-10-14T14:55:04Z</time>
      </trkpt>
      <trkpt lat="43.68195" lon="6.17571">
        <ele>694.700012</ele>
        <time>2011-10-14T14:55:09Z</time>
      </trkpt>
      <trkpt lat="43.68193" lon="6.17564">
        <ele>694.400024</ele>
        <time>2011-10-14T14:55:14Z</time>
      </trkpt>
      <trkpt lat="43.68192" lon="6.17558">
        <ele>694</ele>
        <time>2011-10-14T14:55:19Z</time>
      </trkpt>
      <trkpt lat="43.6819" lon="6.17552">
        <ele>693.299988</ele>
        <time>2011-10-14T14:55:24Z</time>
      </trkpt>
      <trkpt lat="43.68189" lon="6.17545">
        <ele>692.599976</ele>
        <time>2011-10-14T14:55:29Z</time>
      </trkpt>
      <trkpt lat="43.68187" lon="6.1754">
        <ele>691.900024</ele>
        <time>2011-10-14T14:55:34Z</time>
      </trkpt>
      <trkpt lat="43.68186" lon="6.17539">
        <ele>692</ele>
        <time>2011-10-14T14:55:35Z</time>
      </trkpt>
      <trkpt lat="43.68182" lon="6.17527">
        <ele>691</ele>
        <time>2011-10-14T14:55:44Z</time>
      </trkpt>
      <trkpt lat="43.68178" lon="6.17523">
        <ele>690.599976</ele>
        <time>2011-10-14T14:55:49Z</time>
      </trkpt>
      <trkpt lat="43.68175" lon="6.17517">
        <ele>690.5</ele>
        <time>2011-10-14T14:55:54Z</time>
      </trkpt>
      <trkpt lat="43.68172" lon="6.17512">
        <ele>689.799988</ele>
        <time>2011-10-14T14:55:59Z</time>
      </trkpt>
      <trkpt lat="43.68169" lon="6.17506">
        <ele>689.700012</ele>
        <time>2011-10-14T14:56:04Z</time>
      </trkpt>
      <trkpt lat="43.68165" lon="6.17501">
        <ele>689</ele>
        <time>2011-10-14T14:56:09Z</time>
      </trkpt>
      <trkpt lat="43.68163" lon="6.17494">
        <ele>688.5</ele>
        <time>2011-10-14T14:56:14Z</time>
      </trkpt>
      <trkpt lat="43.68161" lon="6.17488">
        <ele>688.099976</ele>
        <time>2011-10-14T14:56:19Z</time>
      </trkpt>
      <trkpt lat="43.68157" lon="6.17483">
        <ele>687.700012</ele>
        <time>2011-10-14T14:56:24Z</time>
      </trkpt>
      <trkpt lat="43.68155" lon="6.17478">
        <ele>687</ele>
        <time>2011-10-14T14:56:29Z</time>
      </trkpt>
      <trkpt lat="43.68153" lon="6.17473">
        <ele>686.400024</ele>
        <time>2011-10-14T14:56:34Z</time>
      </trkpt>
      <trkpt lat="43.6815" lon="6.17466">
        <ele>686.099976</ele>
        <time>2011-10-14T14:56:39Z</time>
      </trkpt>
      <trkpt lat="43.6815" lon="6.17465">
        <ele>686.099976</ele>
        <time>2011-10-14T14:56:40Z</time>
      </trkpt>
      <trkpt lat="43.68146" lon="6.17454">
        <ele>685</ele>
        <time>2011-10-14T14:56:49Z</time>
      </trkpt>
      <trkpt lat="43.68145" lon="6.17449">
        <ele>684.900024</ele>
        <time>2011-10-14T14:56:54Z</time>
      </trkpt>
      <trkpt lat="43.68142" lon="6.17442">
        <ele>683.900024</ele>
        <time>2011-10-14T14:57:00Z</time>
      </trkpt>
      <trkpt lat="43.6814" lon="6.17435">
        <ele>683</ele>
        <time>2011-10-14T14:57:05Z</time>
      </trkpt>
      <trkpt lat="43.68137" lon="6.17431">
        <ele>682.799988</ele>
        <time>2011-10-14T14:57:10Z</time>
      </trkpt>
      <trkpt lat="43.68135" lon="6.17424">
        <ele>681.599976</ele>
        <time>2011-10-14T14:57:15Z</time>
      </trkpt>
      <trkpt lat="43.68133" lon="6.17417">
        <ele>681.299988</ele>
        <time>2011-10-14T14:57:20Z</time>
      </trkpt>
      <trkpt lat="43.68128" lon="6.17414">
        <ele>680.900024</ele>
        <time>2011-10-14T14:57:25Z</time>
      </trkpt>
      <trkpt lat="43.68124" lon="6.1741">
        <ele>680.700012</ele>
        <time>2011-10-14T14:57:30Z</time>
      </trkpt>
      <trkpt lat="43.68121" lon="6.17406">
        <ele>680.099976</ele>
        <time>2011-10-14T14:57:35Z</time>
      </trkpt>
      <trkpt lat="43.68117" lon="6.17399">
        <ele>679.5</ele>
        <time>2011-10-14T14:57:40Z</time>
      </trkpt>
      <trkpt lat="43.68116" lon="6.17398">
        <ele>679.599976</ele>
        <time>2011-10-14T14:57:41Z</time>
      </trkpt>
      <trkpt lat="43.68108" lon="6.17391">
        <ele>679.299988</ele>
        <time>2011-10-14T14:57:50Z</time>
      </trkpt>
      <trkpt lat="43.68104" lon="6.17388">
        <ele>678.700012</ele>
        <time>2011-10-14T14:57:55Z</time>
      </trkpt>
      <trkpt lat="43.68099" lon="6.17385">
        <ele>678.5</ele>
        <time>2011-10-14T14:58:00Z</time>
      </trkpt>
      <trkpt lat="43.68097" lon="6.17382">
        <ele>678.099976</ele>
        <time>2011-10-14T14:58:05Z</time>
      </trkpt>
      <trkpt lat="43.68091" lon="6.1738">
        <ele>677.799988</ele>
        <time>2011-10-14T14:58:10Z</time>
      </trkpt>
      <trkpt lat="43.68087" lon="6.17378">
        <ele>677.599976</ele>
        <time>2011-10-14T14:58:15Z</time>
      </trkpt>
      <trkpt lat="43.68081" lon="6.17376">
        <ele>677.299988</ele>
        <time>2011-10-14T14:58:20Z</time>
      </trkpt>
      <trkpt lat="43.68075" lon="6.17376">
        <ele>676.900024</ele>
        <time>2011-10-14T14:58:25Z</time>
      </trkpt>
      <trkpt lat="43.68071" lon="6.17372">
        <ele>676.400024</ele>
        <time>2011-10-14T14:58:30Z</time>
      </trkpt>
      <trkpt lat="43.68068" lon="6.17366">
        <ele>676</ele>
        <time>2011-10-14T14:58:35Z</time>
      </trkpt>
      <trkpt lat="43.68067" lon="6.1736">
        <ele>675.799988</ele>
        <time>2011-10-14T14:58:40Z</time>
      </trkpt>
      <trkpt lat="43.68067" lon="6.17352">
        <ele>675.200012</ele>
        <time>2011-10-14T14:58:45Z</time>
      </trkpt>
      <trkpt lat="43.68067" lon="6.17351">
        <ele>675.299988</ele>
        <time>2011-10-14T14:58:46Z</time>
      </trkpt>
      <trkpt lat="43.68072" lon="6.17337">
        <ele>674.700012</ele>
        <time>2011-10-14T14:58:55Z</time>
      </trkpt>
      <trkpt lat="43.68075" lon="6.1733">
        <ele>674.700012</ele>
        <time>2011-10-14T14:59:00Z</time>
      </trkpt>
      <trkpt lat="43.68079" lon="6.17325">
        <ele>674.400024</ele>
        <time>2011-10-14T14:59:05Z</time>
      </trkpt>
      <trkpt lat="43.68083" lon="6.17321">
        <ele>674.599976</ele>
        <time>2011-10-14T14:59:10Z</time>
      </trkpt>
      <trkpt lat="43.68086" lon="6.17317">
        <ele>674.099976</ele>
        <time>2011-10-14T14:59:15Z</time>
      </trkpt>
      <trkpt lat="43.68088" lon="6.17312">
        <ele>673.5</ele>
        <time>2011-10-14T14:59:20Z</time>
      </trkpt>
      <trkpt lat="43.68088" lon="6.17307">
        <ele>672.900024</ele>
        <time>2011-10-14T14:59:25Z</time>
      </trkpt>
      <trkpt lat="43.68086" lon="6.17302">
        <ele>672.400024</ele>
        <time>2011-10-14T14:59:30Z</time>
      </trkpt>
      <trkpt lat="43.68083" lon="6.17297">
        <ele>672.299988</ele>
        <time>2011-10-14T14:59:35Z</time>
      </trkpt>
      <trkpt lat="43.68081" lon="6.17291">
        <ele>672</ele>
        <time>2011-10-14T14:59:40Z</time>
      </trkpt>
      <trkpt lat="43.68079" lon="6.17284">
        <ele>671.200012</ele>
        <time>2011-10-14T14:59:45Z</time>
      </trkpt>
      <trkpt lat="43.68075" lon="6.1728">
        <ele>670.799988</ele>
        <time>2011-10-14T14:59:50Z</time>
      </trkpt>
      <trkpt lat="43.68075" lon="6.17279">
        <ele>670.900024</ele>
        <time>2011-10-14T14:59:51Z</time>
      </trkpt>
      <trkpt lat="43.68069" lon="6.1727">
        <ele>670</ele>
        <time>2011-10-14T15:00:00Z</time>
      </trkpt>
      <trkpt lat="43.68065" lon="6.17265">
        <ele>669.5</ele>
        <time>2011-10-14T15:00:05Z</time>
      </trkpt>
      <trkpt lat="43.68062" lon="6.17261">
        <ele>669.200012</ele>
        <time>2011-10-14T15:00:10Z</time>
      </trkpt>
      <trkpt lat="43.68059" lon="6.17255">
        <ele>668.5</ele>
        <time>2011-10-14T15:00:15Z</time>
      </trkpt>
      <trkpt lat="43.68055" lon="6.17249">
        <ele>668</ele>
        <time>2011-10-14T15:00:20Z</time>
      </trkpt>
      <trkpt lat="43.68052" lon="6.17245">
        <ele>667.900024</ele>
        <time>2011-10-14T15:00:25Z</time>
      </trkpt>
      <trkpt lat="43.68048" lon="6.17241">
        <ele>667.5</ele>
        <time>2011-10-14T15:00:30Z</time>
      </trkpt>
      <trkpt lat="43.68046" lon="6.17234">
        <ele>667</ele>
        <time>2011-10-14T15:00:35Z</time>
      </trkpt>
      <trkpt lat="43.68045" lon="6.17226">
        <ele>666.700012</ele>
        <time>2011-10-14T15:00:40Z</time>
      </trkpt>
      <trkpt lat="43.68043" lon="6.17219">
        <ele>665.799988</ele>
        <time>2011-10-14T15:00:45Z</time>
      </trkpt>
      <trkpt lat="43.68042" lon="6.17211">
        <ele>665.700012</ele>
        <time>2011-10-14T15:00:50Z</time>
      </trkpt>
      <trkpt lat="43.68041" lon="6.17205">
        <ele>665.099976</ele>
        <time>2011-10-14T15:00:55Z</time>
      </trkpt>
      <trkpt lat="43.68041" lon="6.17203">
        <ele>665.299988</ele>
        <time>2011-10-14T15:00:56Z</time>
      </trkpt>
      <trkpt lat="43.68036" lon="6.17194">
        <ele>664.299988</ele>
        <time>2011-10-14T15:01:05Z</time>
      </trkpt>
      <trkpt lat="43.68032" lon="6.17188">
        <ele>663.900024</ele>
        <time>2011-10-14T15:01:10Z</time>
      </trkpt>
      <trkpt lat="43.68028" lon="6.17185">
        <ele>663.400024</ele>
        <time>2011-10-14T15:01:15Z</time>
      </trkpt>
      <trkpt lat="43.68023" lon="6.17183">
        <ele>662.799988</ele>
        <time>2011-10-14T15:01:20Z</time>
      </trkpt>
      <trkpt lat="43.68019" lon="6.17178">
        <ele>662</ele>
        <time>2011-10-14T15:01:25Z</time>
      </trkpt>
      <trkpt lat="43.68013" lon="6.17174">
        <ele>661.900024</ele>
        <time>2011-10-14T15:01:30Z</time>
      </trkpt>
      <trkpt lat="43.6801" lon="6.17169">
        <ele>661.700012</ele>
        <time>2011-10-14T15:01:35Z</time>
      </trkpt>
      <trkpt lat="43.68008" lon="6.1716">
        <ele>661.200012</ele>
        <time>2011-10-14T15:01:40Z</time>
      </trkpt>
      <trkpt lat="43.68004" lon="6.17157">
        <ele>661.099976</ele>
        <time>2011-10-14T15:01:45Z</time>
      </trkpt>
      <trkpt lat="43.68" lon="6.17152">
        <ele>660.400024</ele>
        <time>2011-10-14T15:01:50Z</time>
      </trkpt>
      <trkpt lat="43.67996" lon="6.17147">
        <ele>660</ele>
        <time>2011-10-14T15:01:55Z</time>
      </trkpt>
      <trkpt lat="43.67992" lon="6.17142">
        <ele>660.400024</ele>
        <time>2011-10-14T15:02:00Z</time>
      </trkpt>
      <trkpt lat="43.67991" lon="6.17141">
        <ele>660.599976</ele>
        <time>2011-10-14T15:02:01Z</time>
      </trkpt>
      <trkpt lat="43.67985" lon="6.17133">
        <ele>660.400024</ele>
        <time>2011-10-14T15:02:10Z</time>
      </trkpt>
      <trkpt lat="43.67984" lon="6.17129">
        <ele>660.299988</ele>
        <time>2011-10-14T15:02:15Z</time>
      </trkpt>
      <trkpt lat="43.67982" lon="6.17125">
        <ele>659.799988</ele>
        <time>2011-10-14T15:02:20Z</time>
      </trkpt>
      <trkpt lat="43.67979" lon="6.1712">
        <ele>659.400024</ele>
        <time>2011-10-14T15:02:25Z</time>
      </trkpt>
      <trkpt lat="43.67979" lon="6.17116">
        <ele>659.299988</ele>
        <time>2011-10-14T15:02:30Z</time>
      </trkpt>
      <trkpt lat="43.6798" lon="6.17115">
        <ele>658.799988</ele>
        <time>2011-10-14T15:02:35Z</time>
      </trkpt>
      <trkpt lat="43.67981" lon="6.17114">
        <ele>659.099976</ele>
        <time>2011-10-14T15:02:40Z</time>
      </trkpt>
      <trkpt lat="43.67981" lon="6.17113">
        <ele>659</ele>
        <time>2011-10-14T15:02:45Z</time>
      </trkpt>
      <trkpt lat="43.67983" lon="6.17111">
        <ele>658.700012</ele>
        <time>2011-10-14T15:02:50Z</time>
      </trkpt>
      <trkpt lat="43.67984" lon="6.17111">
        <ele>658.5</ele>
        <time>2011-10-14T15:02:55Z</time>
      </trkpt>
      <trkpt lat="43.67984" lon="6.17109">
        <ele>658.900024</ele>
        <time>2011-10-14T15:03:00Z</time>
      </trkpt>
      <trkpt lat="43.67984" lon="6.1711">
        <ele>659.099976</ele>
        <time>2011-10-14T15:03:05Z</time>
      </trkpt>
      <trkpt lat="43.67983" lon="6.1711">
        <ele>659.200012</ele>
        <time>2011-10-14T15:03:06Z</time>
      </trkpt>
      <trkpt lat="43.67986" lon="6.1711">
        <ele>659</ele>
        <time>2011-10-14T15:03:15Z</time>
      </trkpt>
      <trkpt lat="43.67983" lon="6.17111">
        <ele>659.599976</ele>
        <time>2011-10-14T15:03:20Z</time>
      </trkpt>
      <trkpt lat="43.67981" lon="6.1711">
        <ele>659.799988</ele>
        <time>2011-10-14T15:03:25Z</time>
      </trkpt>
      <trkpt lat="43.67982" lon="6.17109">
        <ele>659.400024</ele>
        <time>2011-10-14T15:03:30Z</time>
      </trkpt>
      <trkpt lat="43.67983" lon="6.17109">
        <ele>659.299988</ele>
        <time>2011-10-14T15:03:35Z</time>
      </trkpt>
      <trkpt lat="43.67982" lon="6.17109">
        <ele>659.299988</ele>
        <time>2011-10-14T15:03:40Z</time>
      </trkpt>
      <trkpt lat="43.67984" lon="6.17109">
        <ele>659</ele>
        <time>2011-10-14T15:03:45Z</time>
      </trkpt>
      <trkpt lat="43.67983" lon="6.17109">
        <ele>658.700012</ele>
        <time>2011-10-14T15:03:50Z</time>
      </trkpt>
      <trkpt lat="43.67982" lon="6.17109">
        <ele>658.200012</ele>
        <time>2011-10-14T15:03:55Z</time>
      </trkpt>
      <trkpt lat="43.67981" lon="6.17109">
        <ele>658.599976</ele>
        <time>2011-10-14T15:04:00Z</time>
      </trkpt>
      <trkpt lat="43.67981" lon="6.17109">
        <ele>657.799988</ele>
        <time>2011-10-14T15:04:05Z</time>
      </trkpt>
      <trkpt lat="43.67983" lon="6.17109">
        <ele>658</ele>
        <time>2011-10-14T15:04:10Z</time>
      </trkpt>
      <trkpt lat="43.67984" lon="6.17109">
        <ele>658</ele>
        <time>2011-10-14T15:04:11Z</time>
      </trkpt>
      <trkpt lat="43.67984" lon="6.17112">
        <ele>658</ele>
        <time>2011-10-14T15:04:20Z</time>
      </trkpt>
      <trkpt lat="43.67983" lon="6.17112">
        <ele>658</ele>
        <time>2011-10-14T15:04:25Z</time>
      </trkpt>
      <trkpt lat="43.67982" lon="6.17113">
        <ele>657.700012</ele>
        <time>2011-10-14T15:04:30Z</time>
      </trkpt>
      <trkpt lat="43.67982" lon="6.17112">
        <ele>657.400024</ele>
        <time>2011-10-14T15:04:35Z</time>
      </trkpt>
      <trkpt lat="43.67982" lon="6.17111">
        <ele>657.299988</ele>
        <time>2011-10-14T15:04:40Z</time>
      </trkpt>
      <trkpt lat="43.67981" lon="6.1711">
        <ele>657.200012</ele>
        <time>2011-10-14T15:04:45Z</time>
      </trkpt>
      <trkpt lat="43.67981" lon="6.1711">
        <ele>657.200012</ele>
        <time>2011-10-14T15:04:50Z</time>
      </trkpt>
      <trkpt lat="43.67981" lon="6.17111">
        <ele>657.5</ele>
        <time>2011-10-14T15:04:55Z</time>
      </trkpt>
      <trkpt lat="43.6798" lon="6.17113">
        <ele>657.299988</ele>
        <time>2011-10-14T15:05:00Z</time>
      </trkpt>
      <trkpt lat="43.6798" lon="6.17114">
        <ele>657.5</ele>
        <time>2011-10-14T15:05:05Z</time>
      </trkpt>
      <trkpt lat="43.6798" lon="6.17115">
        <ele>657.099976</ele>
        <time>2011-10-14T15:05:10Z</time>
      </trkpt>
      <trkpt lat="43.6798" lon="6.17116">
        <ele>657.400024</ele>
        <time>2011-10-14T15:05:15Z</time>
      </trkpt>
      <trkpt lat="43.6798" lon="6.17116">
        <ele>657.299988</ele>
        <time>2011-10-14T15:05:16Z</time>
      </trkpt>
      <trkpt lat="43.67979" lon="6.17115">
        <ele>657.599976</ele>
        <time>2011-10-14T15:05:25Z</time>
      </trkpt>
      <trkpt lat="43.67979" lon="6.17112">
        <ele>657.599976</ele>
        <time>2011-10-14T15:05:30Z</time>
      </trkpt>
      <trkpt lat="43.67977" lon="6.17113">
        <ele>657.099976</ele>
        <time>2011-10-14T15:05:35Z</time>
      </trkpt>
      <trkpt lat="43.67978" lon="6.17114">
        <ele>657.099976</ele>
        <time>2011-10-14T15:05:40Z</time>
      </trkpt>
      <trkpt lat="43.67979" lon="6.17115">
        <ele>657.700012</ele>
        <time>2011-10-14T15:05:45Z</time>
      </trkpt>
      <trkpt lat="43.67978" lon="6.17114">
        <ele>657.400024</ele>
        <time>2011-10-14T15:05:50Z</time>
      </trkpt>
      <trkpt lat="43.67977" lon="6.17114">
        <ele>657.099976</ele>
        <time>2011-10-14T15:05:55Z</time>
      </trkpt>
      <trkpt lat="43.67977" lon="6.17113">
        <ele>657.5</ele>
        <time>2011-10-14T15:06:00Z</time>
      </trkpt>
      <trkpt lat="43.67977" lon="6.17113">
        <ele>657.700012</ele>
        <time>2011-10-14T15:06:05Z</time>
      </trkpt>
      <trkpt lat="43.67977" lon="6.17112">
        <ele>657.200012</ele>
        <time>2011-10-14T15:06:10Z</time>
      </trkpt>
      <trkpt lat="43.67977" lon="6.17112">
        <ele>657.400024</ele>
        <time>2011-10-14T15:06:15Z</time>
      </trkpt>
      <trkpt lat="43.67977" lon="6.17112">
        <ele>657.400024</ele>
        <time>2011-10-14T15:06:20Z</time>
      </trkpt>
      <trkpt lat="43.67977" lon="6.17112">
        <ele>657.299988</ele>
        <time>2011-10-14T15:06:21Z</time>
      </trkpt>
      <trkpt lat="43.67978" lon="6.17113">
        <ele>657.099976</ele>
        <time>2011-10-14T15:06:30Z</time>
      </trkpt>
      <trkpt lat="43.67978" lon="6.17111">
        <ele>657.400024</ele>
        <time>2011-10-14T15:06:35Z</time>
      </trkpt>
      <trkpt lat="43.67977" lon="6.17111">
        <ele>657.200012</ele>
        <time>2011-10-14T15:06:40Z</time>
      </trkpt>
      <trkpt lat="43.67976" lon="6.17109">
        <ele>657</ele>
        <time>2011-10-14T15:06:45Z</time>
      </trkpt>
      <trkpt lat="43.67974" lon="6.17107">
        <ele>657</ele>
        <time>2011-10-14T15:06:50Z</time>
      </trkpt>
      <trkpt lat="43.67972" lon="6.17105">
        <ele>656.5</ele>
        <time>2011-10-14T15:06:55Z</time>
      </trkpt>
      <trkpt lat="43.67971" lon="6.17103">
        <ele>656</ele>
        <time>2011-10-14T15:07:00Z</time>
      </trkpt>
      <trkpt lat="43.67968" lon="6.17101">
        <ele>655.5</ele>
        <time>2011-10-14T15:07:05Z</time>
      </trkpt>
      <trkpt lat="43.67967" lon="6.17099">
        <ele>655.400024</ele>
        <time>2011-10-14T15:07:10Z</time>
      </trkpt>
      <trkpt lat="43.67967" lon="6.17097">
        <ele>655.400024</ele>
        <time>2011-10-14T15:07:15Z</time>
      </trkpt>
      <trkpt lat="43.67967" lon="6.17095">
        <ele>655.5</ele>
        <time>2011-10-14T15:07:20Z</time>
      </trkpt>
      <trkpt lat="43.67967" lon="6.17093">
        <ele>655.5</ele>
        <time>2011-10-14T15:07:25Z</time>
      </trkpt>
      <trkpt lat="43.67967" lon="6.17093">
        <ele>655.5</ele>
        <time>2011-10-14T15:07:26Z</time>
      </trkpt>
      <trkpt lat="43.67968" lon="6.17094">
        <ele>655.299988</ele>
        <time>2011-10-14T15:07:35Z</time>
      </trkpt>
      <trkpt lat="43.67968" lon="6.17093">
        <ele>655.299988</ele>
        <time>2011-10-14T15:07:40Z</time>
      </trkpt>
      <trkpt lat="43.67969" lon="6.17094">
        <ele>655.400024</ele>
        <time>2011-10-14T15:07:45Z</time>
      </trkpt>
      <trkpt lat="43.67967" lon="6.17095">
        <ele>655.5</ele>
        <time>2011-10-14T15:07:50Z</time>
      </trkpt>
      <trkpt lat="43.67966" lon="6.17095">
        <ele>655.599976</ele>
        <time>2011-10-14T15:07:55Z</time>
      </trkpt>
      <trkpt lat="43.67963" lon="6.17095">
        <ele>655.299988</ele>
        <time>2011-10-14T15:08:00Z</time>
      </trkpt>
      <trkpt lat="43.6796" lon="6.17091">
        <ele>655.299988</ele>
        <time>2011-10-14T15:08:05Z</time>
      </trkpt>
      <trkpt lat="43.67956" lon="6.17088">
        <ele>654.299988</ele>
        <time>2011-10-14T15:08:10Z</time>
      </trkpt>
      <trkpt lat="43.67952" lon="6.17084">
        <ele>654.400024</ele>
        <time>2011-10-14T15:08:15Z</time>
      </trkpt>
      <trkpt lat="43.67949" lon="6.17081">
        <ele>654.599976</ele>
        <time>2011-10-14T15:08:20Z</time>
      </trkpt>
      <trkpt lat="43.67947" lon="6.17077">
        <ele>654</ele>
        <time>2011-10-14T15:08:25Z</time>
      </trkpt>
      <trkpt lat="43.67943" lon="6.17072">
        <ele>654.099976</ele>
        <time>2011-10-14T15:08:30Z</time>
      </trkpt>
      <trkpt lat="43.67942" lon="6.17072">
        <ele>653.900024</ele>
        <time>2011-10-14T15:08:31Z</time>
      </trkpt>
      <trkpt lat="43.67935" lon="6.17066">
        <ele>653.299988</ele>
        <time>2011-10-14T15:08:40Z</time>
      </trkpt>
      <trkpt lat="43.67932" lon="6.17062">
        <ele>652.900024</ele>
        <time>2011-10-14T15:08:45Z</time>
      </trkpt>
      <trkpt lat="43.67928" lon="6.17058">
        <ele>652.200012</ele>
        <time>2011-10-14T15:08:50Z</time>
      </trkpt>
      <trkpt lat="43.67925" lon="6.17055">
        <ele>651.900024</ele>
        <time>2011-10-14T15:08:55Z</time>
      </trkpt>
      <trkpt lat="43.67922" lon="6.1705">
        <ele>651.400024</ele>
        <time>2011-10-14T15:09:00Z</time>
      </trkpt>
      <trkpt lat="43.67917" lon="6.17045">
        <ele>651</ele>
        <time>2011-10-14T15:09:05Z</time>
      </trkpt>
      <trkpt lat="43.67912" lon="6.17042">
        <ele>650.799988</ele>
        <time>2011-10-14T15:09:10Z</time>
      </trkpt>
      <trkpt lat="43.67908" lon="6.17037">
        <ele>650.700012</ele>
        <time>2011-10-14T15:09:15Z</time>
      </trkpt>
      <trkpt lat="43.67905" lon="6.17033">
        <ele>649.799988</ele>
        <time>2011-10-14T15:09:20Z</time>
      </trkpt>
      <trkpt lat="43.67901" lon="6.17029">
        <ele>649.299988</ele>
        <time>2011-10-14T15:09:25Z</time>
      </trkpt>
      <trkpt lat="43.67899" lon="6.17025">
        <ele>649.099976</ele>
        <time>2011-10-14T15:09:30Z</time>
      </trkpt>
      <trkpt lat="43.67895" lon="6.17021">
        <ele>648.5</ele>
        <time>2011-10-14T15:09:35Z</time>
      </trkpt>
      <trkpt lat="43.67894" lon="6.1702">
        <ele>648.299988</ele>
        <time>2011-10-14T15:09:36Z</time>
      </trkpt>
      <trkpt lat="43.67886" lon="6.17015">
        <ele>648</ele>
        <time>2011-10-14T15:09:45Z</time>
      </trkpt>
      <trkpt lat="43.67882" lon="6.17011">
        <ele>647.400024</ele>
        <time>2011-10-14T15:09:50Z</time>
      </trkpt>
      <trkpt lat="43.67878" lon="6.17008">
        <ele>647.299988</ele>
        <time>2011-10-14T15:09:55Z</time>
      </trkpt>
      <trkpt lat="43.67874" lon="6.17004">
        <ele>646.700012</ele>
        <time>2011-10-14T15:10:00Z</time>
      </trkpt>
      <trkpt lat="43.67871" lon="6.16999">
        <ele>646.400024</ele>
        <time>2011-10-14T15:10:05Z</time>
      </trkpt>
      <trkpt lat="43.67867" lon="6.16994">
        <ele>645.900024</ele>
        <time>2011-10-14T15:10:10Z</time>
      </trkpt>
      <trkpt lat="43.67864" lon="6.16988">
        <ele>645.5</ele>
        <time>2011-10-14T15:10:15Z</time>
      </trkpt>
      <trkpt lat="43.67861" lon="6.16983">
        <ele>644.900024</ele>
        <time>2011-10-14T15:10:20Z</time>
      </trkpt>
      <trkpt lat="43.67857" lon="6.16978">
        <ele>644.900024</ele>
        <time>2011-10-14T15:10:25Z</time>
      </trkpt>
      <trkpt lat="43.67854" lon="6.16974">
        <ele>644.400024</ele>
        <time>2011-10-14T15:10:30Z</time>
      </trkpt>
      <trkpt lat="43.6785" lon="6.1697">
        <ele>644.400024</ele>
        <time>2011-10-14T15:10:35Z</time>
      </trkpt>
      <trkpt lat="43.67847" lon="6.16964">
        <ele>644.099976</ele>
        <time>2011-10-14T15:10:40Z</time>
      </trkpt>
      <trkpt lat="43.67846" lon="6.16963">
        <ele>644.099976</ele>
        <time>2011-10-14T15:10:41Z</time>
      </trkpt>
      <trkpt lat="43.67839" lon="6.16953">
        <ele>643.900024</ele>
        <time>2011-10-14T15:10:50Z</time>
      </trkpt>
      <trkpt lat="43.67834" lon="6.16949">
        <ele>643.799988</ele>
        <time>2011-10-14T15:10:55Z</time>
      </trkpt>
      <trkpt lat="43.67831" lon="6.16947">
        <ele>643.700012</ele>
        <time>2011-10-14T15:11:00Z</time>
      </trkpt>
      <trkpt lat="43.67827" lon="6.16943">
        <ele>643.599976</ele>
        <time>2011-10-14T15:11:05Z</time>
      </trkpt>
      <trkpt lat="43.67822" lon="6.16939">
        <ele>643.5</ele>
        <time>2011-10-14T15:11:10Z</time>
      </trkpt>
      <trkpt lat="43.67817" lon="6.16933">
        <ele>642.900024</ele>
        <time>2011-10-14T15:11:15Z</time>
      </trkpt>
      <trkpt lat="43.67813" lon="6.16928">
        <ele>642.900024</ele>
        <time>2011-10-14T15:11:20Z</time>
      </trkpt>
      <trkpt lat="43.67809" lon="6.16924">
        <ele>643</ele>
        <time>2011-10-14T15:11:25Z</time>
      </trkpt>
      <trkpt lat="43.67814" lon="6.1692">
        <ele>643.099976</ele>
        <time>2011-10-14T15:11:30Z</time>
      </trkpt>
      <trkpt lat="43.67818" lon="6.16914">
        <ele>642.799988</ele>
        <time>2011-10-14T15:11:35Z</time>
      </trkpt>
      <trkpt lat="43.67821" lon="6.16906">
        <ele>642.400024</ele>
        <time>2011-10-14T15:11:40Z</time>
      </trkpt>
      <trkpt lat="43.67823" lon="6.16899">
        <ele>642.099976</ele>
        <time>2011-10-14T15:11:45Z</time>
      </trkpt>
      <trkpt lat="43.67823" lon="6.16898">
        <ele>641.900024</ele>
        <time>2011-10-14T15:11:46Z</time>
      </trkpt>
      <trkpt lat="43.67826" lon="6.16886">
        <ele>641.200012</ele>
        <time>2011-10-14T15:11:55Z</time>
      </trkpt>
      <trkpt lat="43.67829" lon="6.16879">
        <ele>640.900024</ele>
        <time>2011-10-14T15:12:00Z</time>
      </trkpt>
      <trkpt lat="43.6783" lon="6.16872">
        <ele>640.700012</ele>
        <time>2011-10-14T15:12:05Z</time>
      </trkpt>
      <trkpt lat="43.67832" lon="6.16865">
        <ele>640.200012</ele>
        <time>2011-10-14T15:12:10Z</time>
      </trkpt>
      <trkpt lat="43.67833" lon="6.16858">
        <ele>639.700012</ele>
        <time>2011-10-14T15:12:15Z</time>
      </trkpt>
      <trkpt lat="43.67834" lon="6.16851">
        <ele>639.200012</ele>
        <time>2011-10-14T15:12:20Z</time>
      </trkpt>
      <trkpt lat="43.67836" lon="6.16844">
        <ele>639.200012</ele>
        <time>2011-10-14T15:12:25Z</time>
      </trkpt>
      <trkpt lat="43.67839" lon="6.16836">
        <ele>638.599976</ele>
        <time>2011-10-14T15:12:30Z</time>
      </trkpt>
      <trkpt lat="43.67841" lon="6.16829">
        <ele>638.599976</ele>
        <time>2011-10-14T15:12:35Z</time>
      </trkpt>
      <trkpt lat="43.67842" lon="6.16821">
        <ele>638.299988</ele>
        <time>2011-10-14T15:12:40Z</time>
      </trkpt>
      <trkpt lat="43.67844" lon="6.16813">
        <ele>637.900024</ele>
        <time>2011-10-14T15:12:45Z</time>
      </trkpt>
      <trkpt lat="43.67844" lon="6.16808">
        <ele>637.799988</ele>
        <time>2011-10-14T15:12:50Z</time>
      </trkpt>
      <trkpt lat="43.67844" lon="6.16807">
        <ele>637.900024</ele>
        <time>2011-10-14T15:12:51Z</time>
      </trkpt>
      <trkpt lat="43.67845" lon="6.16794">
        <ele>637.099976</ele>
        <time>2011-10-14T15:13:00Z</time>
      </trkpt>
      <trkpt lat="43.67847" lon="6.16787">
        <ele>636.599976</ele>
        <time>2011-10-14T15:13:05Z</time>
      </trkpt>
      <trkpt lat="43.6785" lon="6.1678">
        <ele>636.299988</ele>
        <time>2011-10-14T15:13:10Z</time>
      </trkpt>
      <trkpt lat="43.67852" lon="6.16773">
        <ele>636.099976</ele>
        <time>2011-10-14T15:13:15Z</time>
      </trkpt>
      <trkpt lat="43.67852" lon="6.16767">
        <ele>635.5</ele>
        <time>2011-10-14T15:13:20Z</time>
      </trkpt>
      <trkpt lat="43.67851" lon="6.16763">
        <ele>635.099976</ele>
        <time>2011-10-14T15:13:25Z</time>
      </trkpt>
      <trkpt lat="43.67849" lon="6.16759">
        <ele>634.799988</ele>
        <time>2011-10-14T15:13:30Z</time>
      </trkpt>
      <trkpt lat="43.67847" lon="6.16752">
        <ele>634.5</ele>
        <time>2011-10-14T15:13:35Z</time>
      </trkpt>
      <trkpt lat="43.67846" lon="6.16746">
        <ele>634.299988</ele>
        <time>2011-10-14T15:13:40Z</time>
      </trkpt>
      <trkpt lat="43.67847" lon="6.16739">
        <ele>634.200012</ele>
        <time>2011-10-14T15:13:45Z</time>
      </trkpt>
      <trkpt lat="43.67849" lon="6.16731">
        <ele>634.099976</ele>
        <time>2011-10-14T15:13:50Z</time>
      </trkpt>
      <trkpt lat="43.67852" lon="6.16724">
        <ele>633.700012</ele>
        <time>2011-10-14T15:13:55Z</time>
      </trkpt>
      <trkpt lat="43.67853" lon="6.16722">
        <ele>633.700012</ele>
        <time>2011-10-14T15:13:56Z</time>
      </trkpt>
      <trkpt lat="43.67858" lon="6.1671">
        <ele>633</ele>
        <time>2011-10-14T15:14:05Z</time>
      </trkpt>
      <trkpt lat="43.67862" lon="6.16705">
        <ele>632.700012</ele>
        <time>2011-10-14T15:14:10Z</time>
      </trkpt>
      <trkpt lat="43.67866" lon="6.16699">
        <ele>632.099976</ele>
        <time>2011-10-14T15:14:15Z</time>
      </trkpt>
      <trkpt lat="43.6787" lon="6.16693">
        <ele>631.5</ele>
        <time>2011-10-14T15:14:20Z</time>
      </trkpt>
      <trkpt lat="43.67873" lon="6.16687">
        <ele>631.599976</ele>
        <time>2011-10-14T15:14:25Z</time>
      </trkpt>
      <trkpt lat="43.67876" lon="6.1668">
        <ele>631.5</ele>
        <time>2011-10-14T15:14:30Z</time>
      </trkpt>
      <trkpt lat="43.67878" lon="6.16672">
        <ele>631.099976</ele>
        <time>2011-10-14T15:14:35Z</time>
      </trkpt>
      <trkpt lat="43.6788" lon="6.16665">
        <ele>630.799988</ele>
        <time>2011-10-14T15:14:40Z</time>
      </trkpt>
      <trkpt lat="43.67882" lon="6.16659">
        <ele>630.5</ele>
        <time>2011-10-14T15:14:45Z</time>
      </trkpt>
      <trkpt lat="43.67883" lon="6.16655">
        <ele>630.299988</ele>
        <time>2011-10-14T15:14:50Z</time>
      </trkpt>
      <trkpt lat="43.67883" lon="6.16649">
        <ele>630.099976</ele>
        <time>2011-10-14T15:14:55Z</time>
      </trkpt>
      <trkpt lat="43.67882" lon="6.16642">
        <ele>629.900024</ele>
        <time>2011-10-14T15:15:00Z</time>
      </trkpt>
      <trkpt lat="43.67881" lon="6.16641">
        <ele>629.799988</ele>
        <time>2011-10-14T15:15:01Z</time>
      </trkpt>
      <trkpt lat="43.67875" lon="6.16633">
        <ele>629.599976</ele>
        <time>2011-10-14T15:15:10Z</time>
      </trkpt>
      <trkpt lat="43.67872" lon="6.16626">
        <ele>629.400024</ele>
        <time>2011-10-14T15:15:15Z</time>
      </trkpt>
      <trkpt lat="43.67869" lon="6.16621">
        <ele>629.299988</ele>
        <time>2011-10-14T15:15:20Z</time>
      </trkpt>
      <trkpt lat="43.67865" lon="6.16615">
        <ele>628.900024</ele>
        <time>2011-10-14T15:15:25Z</time>
      </trkpt>
      <trkpt lat="43.6786" lon="6.16609">
        <ele>628.799988</ele>
        <time>2011-10-14T15:15:30Z</time>
      </trkpt>
      <trkpt lat="43.67857" lon="6.16604">
        <ele>628.099976</ele>
        <time>2011-10-14T15:15:35Z</time>
      </trkpt>
      <trkpt lat="43.67854" lon="6.16597">
        <ele>628.099976</ele>
        <time>2011-10-14T15:15:40Z</time>
      </trkpt>
      <trkpt lat="43.6785" lon="6.1659">
        <ele>627.200012</ele>
        <time>2011-10-14T15:15:45Z</time>
      </trkpt>
      <trkpt lat="43.67847" lon="6.16585">
        <ele>627.200012</ele>
        <time>2011-10-14T15:15:50Z</time>
      </trkpt>
      <trkpt lat="43.67845" lon="6.1658">
        <ele>626.799988</ele>
        <time>2011-10-14T15:15:55Z</time>
      </trkpt>
      <trkpt lat="43.67842" lon="6.16574">
        <ele>626.299988</ele>
        <time>2011-10-14T15:16:00Z</time>
      </trkpt>
      <trkpt lat="43.67838" lon="6.16569">
        <ele>626.200012</ele>
        <time>2011-10-14T15:16:05Z</time>
      </trkpt>
      <trkpt lat="43.67837" lon="6.16568">
        <ele>626.099976</ele>
        <time>2011-10-14T15:16:06Z</time>
      </trkpt>
      <trkpt lat="43.67831" lon="6.16558">
        <ele>625.900024</ele>
        <time>2011-10-14T15:16:15Z</time>
      </trkpt>
      <trkpt lat="43.67828" lon="6.16552">
        <ele>625.5</ele>
        <time>2011-10-14T15:16:20Z</time>
      </trkpt>
      <trkpt lat="43.67825" lon="6.16547">
        <ele>625.099976</ele>
        <time>2011-10-14T15:16:25Z</time>
      </trkpt>
      <trkpt lat="43.67821" lon="6.16542">
        <ele>625.400024</ele>
        <time>2011-10-14T15:16:30Z</time>
      </trkpt>
      <trkpt lat="43.67817" lon="6.16536">
        <ele>624.900024</ele>
        <time>2011-10-14T15:16:35Z</time>
      </trkpt>
      <trkpt lat="43.67813" lon="6.16531">
        <ele>624.599976</ele>
        <time>2011-10-14T15:16:40Z</time>
      </trkpt>
      <trkpt lat="43.6781" lon="6.16526">
        <ele>624.099976</ele>
        <time>2011-10-14T15:16:45Z</time>
      </trkpt>
      <trkpt lat="43.67807" lon="6.1652">
        <ele>623.900024</ele>
        <time>2011-10-14T15:16:50Z</time>
      </trkpt>
      <trkpt lat="43.67803" lon="6.16514">
        <ele>623.5</ele>
        <time>2011-10-14T15:16:55Z</time>
      </trkpt>
      <trkpt lat="43.678" lon="6.16507">
        <ele>623.5</ele>
        <time>2011-10-14T15:17:00Z</time>
      </trkpt>
      <trkpt lat="43.67797" lon="6.16501">
        <ele>623.099976</ele>
        <time>2011-10-14T15:17:05Z</time>
      </trkpt>
      <trkpt lat="43.67793" lon="6.16496">
        <ele>623</ele>
        <time>2011-10-14T15:17:10Z</time>
      </trkpt>
      <trkpt lat="43.67793" lon="6.16494">
        <ele>622.900024</ele>
        <time>2011-10-14T15:17:11Z</time>
      </trkpt>
      <trkpt lat="43.67787" lon="6.16483">
        <ele>622.299988</ele>
        <time>2011-10-14T15:17:20Z</time>
      </trkpt>
      <trkpt lat="43.67783" lon="6.16478">
        <ele>622.099976</ele>
        <time>2011-10-14T15:17:25Z</time>
      </trkpt>
      <trkpt lat="43.67781" lon="6.16471">
        <ele>622</ele>
        <time>2011-10-14T15:17:30Z</time>
      </trkpt>
      <trkpt lat="43.67777" lon="6.16465">
        <ele>622</ele>
        <time>2011-10-14T15:17:35Z</time>
      </trkpt>
      <trkpt lat="43.67774" lon="6.16459">
        <ele>621.900024</ele>
        <time>2011-10-14T15:17:40Z</time>
      </trkpt>
      <trkpt lat="43.6777" lon="6.16454">
        <ele>621.599976</ele>
        <time>2011-10-14T15:17:45Z</time>
      </trkpt>
      <trkpt lat="43.67766" lon="6.1645">
        <ele>621</ele>
        <time>2011-10-14T15:17:50Z</time>
      </trkpt>
      <trkpt lat="43.67763" lon="6.16446">
        <ele>620.900024</ele>
        <time>2011-10-14T15:17:55Z</time>
      </trkpt>
      <trkpt lat="43.67761" lon="6.16439">
        <ele>620.5</ele>
        <time>2011-10-14T15:18:00Z</time>
      </trkpt>
      <trkpt lat="43.6776" lon="6.16431">
        <ele>620</ele>
        <time>2011-10-14T15:18:05Z</time>
      </trkpt>
      <trkpt lat="43.67759" lon="6.16424">
        <ele>620.099976</ele>
        <time>2011-10-14T15:18:10Z</time>
      </trkpt>
      <trkpt lat="43.67759" lon="6.16416">
        <ele>619.599976</ele>
        <time>2011-10-14T15:18:15Z</time>
      </trkpt>
      <trkpt lat="43.67759" lon="6.16416">
        <ele>619.5</ele>
        <time>2011-10-14T15:18:16Z</time>
      </trkpt>
      <trkpt lat="43.67762" lon="6.16401">
        <ele>619.700012</ele>
        <time>2011-10-14T15:18:25Z</time>
      </trkpt>
      <trkpt lat="43.67764" lon="6.16393">
        <ele>619.400024</ele>
        <time>2011-10-14T15:18:30Z</time>
      </trkpt>
      <trkpt lat="43.67768" lon="6.16387">
        <ele>618.799988</ele>
        <time>2011-10-14T15:18:35Z</time>
      </trkpt>
      <trkpt lat="43.67773" lon="6.16381">
        <ele>618.599976</ele>
        <time>2011-10-14T15:18:40Z</time>
      </trkpt>
      <trkpt lat="43.67776" lon="6.16377">
        <ele>618.700012</ele>
        <time>2011-10-14T15:18:45Z</time>
      </trkpt>
      <trkpt lat="43.67779" lon="6.1637">
        <ele>618.700012</ele>
        <time>2011-10-14T15:18:50Z</time>
      </trkpt>
      <trkpt lat="43.67783" lon="6.16366">
        <ele>618.5</ele>
        <time>2011-10-14T15:18:55Z</time>
      </trkpt>
      <trkpt lat="43.67788" lon="6.16361">
        <ele>618.400024</ele>
        <time>2011-10-14T15:19:00Z</time>
      </trkpt>
      <trkpt lat="43.67792" lon="6.16354">
        <ele>617.299988</ele>
        <time>2011-10-14T15:19:05Z</time>
      </trkpt>
      <trkpt lat="43.67796" lon="6.16347">
        <ele>617.099976</ele>
        <time>2011-10-14T15:19:10Z</time>
      </trkpt>
      <trkpt lat="43.67798" lon="6.1634">
        <ele>616.700012</ele>
        <time>2011-10-14T15:19:15Z</time>
      </trkpt>
      <trkpt lat="43.67799" lon="6.16334">
        <ele>616.700012</ele>
        <time>2011-10-14T15:19:20Z</time>
      </trkpt>
      <trkpt lat="43.67799" lon="6.16333">
        <ele>616.700012</ele>
        <time>2011-10-14T15:19:21Z</time>
      </trkpt>
      <trkpt lat="43.67802" lon="6.1632">
        <ele>615.799988</ele>
        <time>2011-10-14T15:19:30Z</time>
      </trkpt>
      <trkpt lat="43.67802" lon="6.16313">
        <ele>615.599976</ele>
        <time>2011-10-14T15:19:35Z</time>
      </trkpt>
      <trkpt lat="43.67803" lon="6.16305">
        <ele>615</ele>
        <time>2011-10-14T15:19:40Z</time>
      </trkpt>
      <trkpt lat="43.67805" lon="6.16297">
        <ele>614.900024</ele>
        <time>2011-10-14T15:19:45Z</time>
      </trkpt>
      <trkpt lat="43.67806" lon="6.16289">
        <ele>614.299988</ele>
        <time>2011-10-14T15:19:50Z</time>
      </trkpt>
      <trkpt lat="43.67808" lon="6.16282">
        <ele>614.099976</ele>
        <time>2011-10-14T15:19:55Z</time>
      </trkpt>
      <trkpt lat="43.67811" lon="6.16275">
        <ele>614</ele>
        <time>2011-10-14T15:20:00Z</time>
      </trkpt>
      <trkpt lat="43.67813" lon="6.16268">
        <ele>613.900024</ele>
        <time>2011-10-14T15:20:05Z</time>
      </trkpt>
      <trkpt lat="43.67816" lon="6.16261">
        <ele>613.900024</ele>
        <time>2011-10-14T15:20:10Z</time>
      </trkpt>
      <trkpt lat="43.67818" lon="6.16255">
        <ele>613.599976</ele>
        <time>2011-10-14T15:20:15Z</time>
      </trkpt>
      <trkpt lat="43.67819" lon="6.16249">
        <ele>613.5</ele>
        <time>2011-10-14T15:20:20Z</time>
      </trkpt>
      <trkpt lat="43.6782" lon="6.16242">
        <ele>612.900024</ele>
        <time>2011-10-14T15:20:25Z</time>
      </trkpt>
      <trkpt lat="43.67821" lon="6.16241">
        <ele>612.799988</ele>
        <time>2011-10-14T15:20:26Z</time>
      </trkpt>
      <trkpt lat="43.67824" lon="6.16229">
        <ele>612.599976</ele>
        <time>2011-10-14T15:20:35Z</time>
      </trkpt>
      <trkpt lat="43.67827" lon="6.16222">
        <ele>612.299988</ele>
        <time>2011-10-14T15:20:40Z</time>
      </trkpt>
      <trkpt lat="43.67829" lon="6.16216">
        <ele>611.799988</ele>
        <time>2011-10-14T15:20:45Z</time>
      </trkpt>
      <trkpt lat="43.6783" lon="6.1621">
        <ele>611.799988</ele>
        <time>2011-10-14T15:20:50Z</time>
      </trkpt>
      <trkpt lat="43.6783" lon="6.16204">
        <ele>611.400024</ele>
        <time>2011-10-14T15:20:55Z</time>
      </trkpt>
      <trkpt lat="43.67832" lon="6.16197">
        <ele>611.299988</ele>
        <time>2011-10-14T15:21:00Z</time>
      </trkpt>
      <trkpt lat="43.67834" lon="6.1619">
        <ele>611.099976</ele>
        <time>2011-10-14T15:21:05Z</time>
      </trkpt>
      <trkpt lat="43.67835" lon="6.16182">
        <ele>610.799988</ele>
        <time>2011-10-14T15:21:10Z</time>
      </trkpt>
      <trkpt lat="43.67836" lon="6.16175">
        <ele>610.400024</ele>
        <time>2011-10-14T15:21:15Z</time>
      </trkpt>
      <trkpt lat="43.67837" lon="6.16168">
        <ele>610.400024</ele>
        <time>2011-10-14T15:21:20Z</time>
      </trkpt>
      <trkpt lat="43.67837" lon="6.16161">
        <ele>610.5</ele>
        <time>2011-10-14T15:21:25Z</time>
      </trkpt>
      <trkpt lat="43.67834" lon="6.16155">
        <ele>610</ele>
        <time>2011-10-14T15:21:30Z</time>
      </trkpt>
      <trkpt lat="43.67834" lon="6.16153">
        <ele>609.900024</ele>
        <time>2011-10-14T15:21:31Z</time>
      </trkpt>
      <trkpt lat="43.67831" lon="6.16142">
        <ele>609.799988</ele>
        <time>2011-10-14T15:21:40Z</time>
      </trkpt>
      <trkpt lat="43.67829" lon="6.16133">
        <ele>609.299988</ele>
        <time>2011-10-14T15:21:45Z</time>
      </trkpt>
      <trkpt lat="43.67827" lon="6.16126">
        <ele>609.5</ele>
        <time>2011-10-14T15:21:50Z</time>
      </trkpt>
      <trkpt lat="43.67824" lon="6.16121">
        <ele>608.799988</ele>
        <time>2011-10-14T15:21:55Z</time>
      </trkpt>
      <trkpt lat="43.67821" lon="6.16116">
        <ele>608.799988</ele>
        <time>2011-10-14T15:22:00Z</time>
      </trkpt>
      <trkpt lat="43.67818" lon="6.16111">
        <ele>608.599976</ele>
        <time>2011-10-14T15:22:05Z</time>
      </trkpt>
      <trkpt lat="43.67815" lon="6.16103">
        <ele>608.099976</ele>
        <time>2011-10-14T15:22:10Z</time>
      </trkpt>
      <trkpt lat="43.67812" lon="6.16095">
        <ele>608.099976</ele>
        <time>2011-10-14T15:22:15Z</time>
      </trkpt>
      <trkpt lat="43.6781" lon="6.16089">
        <ele>608</ele>
        <time>2011-10-14T15:22:20Z</time>
      </trkpt>
      <trkpt lat="43.67811" lon="6.16087">
        <ele>608.099976</ele>
        <time>2011-10-14T15:22:25Z</time>
      </trkpt>
      <trkpt lat="43.67811" lon="6.16084">
        <ele>607.799988</ele>
        <time>2011-10-14T15:22:30Z</time>
      </trkpt>
      <trkpt lat="43.67811" lon="6.16079">
        <ele>608.299988</ele>
        <time>2011-10-14T15:22:35Z</time>
      </trkpt>
      <trkpt lat="43.67811" lon="6.16077">
        <ele>608.099976</ele>
        <time>2011-10-14T15:22:36Z</time>
      </trkpt>
      <trkpt lat="43.67812" lon="6.16069">
        <ele>607.299988</ele>
        <time>2011-10-14T15:22:45Z</time>
      </trkpt>
      <trkpt lat="43.67814" lon="6.16063">
        <ele>607.099976</ele>
        <time>2011-10-14T15:22:50Z</time>
      </trkpt>
      <trkpt lat="43.67815" lon="6.16057">
        <ele>606.700012</ele>
        <time>2011-10-14T15:22:55Z</time>
      </trkpt>
      <trkpt lat="43.67816" lon="6.16051">
        <ele>606.599976</ele>
        <time>2011-10-14T15:23:00Z</time>
      </trkpt>
      <trkpt lat="43.67817" lon="6.16047">
        <ele>606.599976</ele>
        <time>2011-10-14T15:23:05Z</time>
      </trkpt>
      <trkpt lat="43.6782" lon="6.16041">
        <ele>606.5</ele>
        <time>2011-10-14T15:23:10Z</time>
      </trkpt>
      <trkpt lat="43.67822" lon="6.16036">
        <ele>606.099976</ele>
        <time>2011-10-14T15:23:15Z</time>
      </trkpt>
      <trkpt lat="43.67823" lon="6.16032">
        <ele>606.299988</ele>
        <time>2011-10-14T15:23:20Z</time>
      </trkpt>
      <trkpt lat="43.67822" lon="6.16025">
        <ele>606.099976</ele>
        <time>2011-10-14T15:23:25Z</time>
      </trkpt>
      <trkpt lat="43.67822" lon="6.16019">
        <ele>605.799988</ele>
        <time>2011-10-14T15:23:30Z</time>
      </trkpt>
      <trkpt lat="43.67822" lon="6.16015">
        <ele>605.200012</ele>
        <time>2011-10-14T15:23:35Z</time>
      </trkpt>
      <trkpt lat="43.67822" lon="6.16013">
        <ele>605.299988</ele>
        <time>2011-10-14T15:23:40Z</time>
      </trkpt>
      <trkpt lat="43.67822" lon="6.16013">
        <ele>605.200012</ele>
        <time>2011-10-14T15:23:41Z</time>
      </trkpt>
    </trkseg>
  </trk>
</gpx>